<?xml version="1.0" encoding="UTF-8" standalone="no" ?>
<gpx xmlns="http://www.topografix.com/GPX/1/1" xmlns:xsi="http://www.w3.org/2001/XMLSchema-instance" xsi:schemaLocation="http://www.topografix.com/GPX/1/1 http://www.topografix.com/GPX/1/1/gpx.xsd" version="1.1" creator="VisuGPX - https://www.visugpx.com">
  <metadata>
    <name>Vercors19-4vtt.</name>
    <desc><![CDATA[Circuit entre Villard de Lans et Autrans en Vercors.]]></desc>
  </metadata>
  <trk>
    <name><![CDATA[Vercors19-4vtt.]]></name>
    <trkseg>
      <trkpt lat="45.0582" lon="5.54707">
        <ele>997.6</ele>
        <time>2019-08-27T13:52:22Z</time>
      </trkpt>
      <trkpt lat="45.0582" lon="5.54707">
        <ele>997.6</ele>
        <time>2019-08-27T13:52:23Z</time>
      </trkpt>
      <trkpt lat="45.05819" lon="5.5471">
        <ele>997.88</ele>
        <time>2019-08-27T13:52:51Z</time>
      </trkpt>
      <trkpt lat="45.05817" lon="5.54707">
        <ele>998.07</ele>
        <time>2019-08-27T13:53:24Z</time>
      </trkpt>
      <trkpt lat="45.05821" lon="5.54707">
        <ele>997.79</ele>
        <time>2019-08-27T13:53:58Z</time>
      </trkpt>
      <trkpt lat="45.05817" lon="5.54707">
        <ele>998.03</ele>
        <time>2019-08-27T13:54:29Z</time>
      </trkpt>
      <trkpt lat="45.05816" lon="5.54706">
        <ele>997.86</ele>
        <time>2019-08-27T13:54:59Z</time>
      </trkpt>
      <trkpt lat="45.05816" lon="5.54707">
        <ele>997.77</ele>
        <time>2019-08-27T13:55:27Z</time>
      </trkpt>
      <trkpt lat="45.05817" lon="5.54707">
        <ele>997.97</ele>
        <time>2019-08-27T13:56:00Z</time>
      </trkpt>
      <trkpt lat="45.05818" lon="5.547">
        <ele>997.87</ele>
        <time>2019-08-27T13:56:28Z</time>
      </trkpt>
      <trkpt lat="45.0582" lon="5.54699">
        <ele>997.87</ele>
        <time>2019-08-27T13:56:59Z</time>
      </trkpt>
      <trkpt lat="45.05816" lon="5.54703">
        <ele>997.94</ele>
        <time>2019-08-27T13:57:17Z</time>
      </trkpt>
      <trkpt lat="45.05819" lon="5.54703">
        <ele>997.76</ele>
        <time>2019-08-27T13:57:47Z</time>
      </trkpt>
      <trkpt lat="45.05819" lon="5.54704">
        <ele>997.77</ele>
        <time>2019-08-27T13:58:20Z</time>
      </trkpt>
      <trkpt lat="45.05818" lon="5.54708">
        <ele>997.91</ele>
        <time>2019-08-27T13:58:52Z</time>
      </trkpt>
      <trkpt lat="45.05821" lon="5.54707">
        <ele>997.84</ele>
        <time>2019-08-27T13:59:23Z</time>
      </trkpt>
      <trkpt lat="45.05819" lon="5.54708">
        <ele>997.95</ele>
        <time>2019-08-27T13:59:56Z</time>
      </trkpt>
      <trkpt lat="45.05818" lon="5.54708">
        <ele>997.77</ele>
        <time>2019-08-27T14:00:29Z</time>
      </trkpt>
      <trkpt lat="45.05814" lon="5.5471">
        <ele>997.9</ele>
        <time>2019-08-27T14:01:05Z</time>
      </trkpt>
      <trkpt lat="45.05816" lon="5.54707">
        <ele>997.74</ele>
        <time>2019-08-27T14:01:37Z</time>
      </trkpt>
      <trkpt lat="45.05815" lon="5.54706">
        <ele>998.1</ele>
        <time>2019-08-27T14:02:08Z</time>
      </trkpt>
      <trkpt lat="45.05817" lon="5.54705">
        <ele>997.94</ele>
        <time>2019-08-27T14:02:42Z</time>
      </trkpt>
      <trkpt lat="45.05819" lon="5.54707">
        <ele>997.76</ele>
        <time>2019-08-27T14:03:12Z</time>
      </trkpt>
      <trkpt lat="45.05815" lon="5.54699">
        <ele>991.59</ele>
        <time>2019-08-27T14:34:59Z</time>
      </trkpt>
      <trkpt lat="45.05816" lon="5.54698">
        <ele>991.59</ele>
        <time>2019-08-27T14:35:00Z</time>
      </trkpt>
      <trkpt lat="45.05819" lon="5.54709">
        <ele>991.69</ele>
        <time>2019-08-27T14:35:29Z</time>
      </trkpt>
      <trkpt lat="45.05821" lon="5.54709">
        <ele>991.47</ele>
        <time>2019-08-27T14:35:55Z</time>
      </trkpt>
      <trkpt lat="45.05819" lon="5.54704">
        <ele>991.62</ele>
        <time>2019-08-27T14:36:24Z</time>
      </trkpt>
      <trkpt lat="45.0584" lon="5.54663">
        <ele>1012.58</ele>
        <time>2019-08-27T15:07:37Z</time>
      </trkpt>
      <trkpt lat="45.05838" lon="5.54664">
        <ele>1012.58</ele>
        <time>2019-08-27T15:07:38Z</time>
      </trkpt>
      <trkpt lat="45.0583" lon="5.54683">
        <ele>1012.53</ele>
        <time>2019-08-27T15:08:12Z</time>
      </trkpt>
      <trkpt lat="45.06144" lon="5.54814">
        <ele>992.63</ele>
        <time>2019-08-28T07:05:40Z</time>
      </trkpt>
      <trkpt lat="45.06143" lon="5.54831">
        <ele>992.63</ele>
        <time>2019-08-28T07:05:41Z</time>
      </trkpt>
      <trkpt lat="45.06146" lon="5.54836">
        <ele>992.63</ele>
        <time>2019-08-28T07:05:44Z</time>
      </trkpt>
      <trkpt lat="45.06149" lon="5.54835">
        <ele>992.94</ele>
        <time>2019-08-28T07:05:47Z</time>
      </trkpt>
      <trkpt lat="45.06151" lon="5.54833">
        <ele>993.02</ele>
        <time>2019-08-28T07:05:48Z</time>
      </trkpt>
      <trkpt lat="45.06154" lon="5.54831">
        <ele>993.17</ele>
        <time>2019-08-28T07:05:49Z</time>
      </trkpt>
      <trkpt lat="45.06156" lon="5.54827">
        <ele>993.29</ele>
        <time>2019-08-28T07:05:50Z</time>
      </trkpt>
      <trkpt lat="45.06159" lon="5.54826">
        <ele>993.42</ele>
        <time>2019-08-28T07:05:51Z</time>
      </trkpt>
      <trkpt lat="45.06162" lon="5.54825">
        <ele>993.59</ele>
        <time>2019-08-28T07:05:52Z</time>
      </trkpt>
      <trkpt lat="45.06165" lon="5.54825">
        <ele>993.83</ele>
        <time>2019-08-28T07:05:53Z</time>
      </trkpt>
      <trkpt lat="45.06167" lon="5.54821">
        <ele>994.09</ele>
        <time>2019-08-28T07:05:54Z</time>
      </trkpt>
      <trkpt lat="45.06169" lon="5.54818">
        <ele>994.31</ele>
        <time>2019-08-28T07:05:55Z</time>
      </trkpt>
      <trkpt lat="45.06171" lon="5.54811">
        <ele>994.49</ele>
        <time>2019-08-28T07:05:56Z</time>
      </trkpt>
      <trkpt lat="45.06179" lon="5.54792">
        <ele>994.81</ele>
        <time>2019-08-28T07:05:59Z</time>
      </trkpt>
      <trkpt lat="45.06183" lon="5.54788">
        <ele>994.82</ele>
        <time>2019-08-28T07:06:00Z</time>
      </trkpt>
      <trkpt lat="45.06186" lon="5.54786">
        <ele>994.78</ele>
        <time>2019-08-28T07:06:01Z</time>
      </trkpt>
      <trkpt lat="45.06189" lon="5.54785">
        <ele>994.65</ele>
        <time>2019-08-28T07:06:02Z</time>
      </trkpt>
      <trkpt lat="45.06191" lon="5.54784">
        <ele>994.1</ele>
        <time>2019-08-28T07:06:03Z</time>
      </trkpt>
      <trkpt lat="45.06194" lon="5.54785">
        <ele>993.78</ele>
        <time>2019-08-28T07:06:04Z</time>
      </trkpt>
      <trkpt lat="45.06196" lon="5.54786">
        <ele>993.47</ele>
        <time>2019-08-28T07:06:05Z</time>
      </trkpt>
      <trkpt lat="45.06198" lon="5.54788">
        <ele>993.23</ele>
        <time>2019-08-28T07:06:06Z</time>
      </trkpt>
      <trkpt lat="45.062" lon="5.54791">
        <ele>993.03</ele>
        <time>2019-08-28T07:06:07Z</time>
      </trkpt>
      <trkpt lat="45.06201" lon="5.54791">
        <ele>992.86</ele>
        <time>2019-08-28T07:06:08Z</time>
      </trkpt>
      <trkpt lat="45.06202" lon="5.54784">
        <ele>991.82</ele>
        <time>2019-08-28T07:06:19Z</time>
      </trkpt>
      <trkpt lat="45.06203" lon="5.54779">
        <ele>991.64</ele>
        <time>2019-08-28T07:06:26Z</time>
      </trkpt>
      <trkpt lat="45.06202" lon="5.54776">
        <ele>991.62</ele>
        <time>2019-08-28T07:06:27Z</time>
      </trkpt>
      <trkpt lat="45.06202" lon="5.54774">
        <ele>991.61</ele>
        <time>2019-08-28T07:06:28Z</time>
      </trkpt>
      <trkpt lat="45.06199" lon="5.54771">
        <ele>991.54</ele>
        <time>2019-08-28T07:06:37Z</time>
      </trkpt>
      <trkpt lat="45.06195" lon="5.54765">
        <ele>991.36</ele>
        <time>2019-08-28T07:06:52Z</time>
      </trkpt>
      <trkpt lat="45.06194" lon="5.54764">
        <ele>991.38</ele>
        <time>2019-08-28T07:06:53Z</time>
      </trkpt>
      <trkpt lat="45.06196" lon="5.54766">
        <ele>991.25</ele>
        <time>2019-08-28T07:07:05Z</time>
      </trkpt>
      <trkpt lat="45.06203" lon="5.54771">
        <ele>991.22</ele>
        <time>2019-08-28T07:07:16Z</time>
      </trkpt>
      <trkpt lat="45.06204" lon="5.54772">
        <ele>991.25</ele>
        <time>2019-08-28T07:07:17Z</time>
      </trkpt>
      <trkpt lat="45.06206" lon="5.54773">
        <ele>991.28</ele>
        <time>2019-08-28T07:07:18Z</time>
      </trkpt>
      <trkpt lat="45.06209" lon="5.54776">
        <ele>991.35</ele>
        <time>2019-08-28T07:07:21Z</time>
      </trkpt>
      <trkpt lat="45.06211" lon="5.54778">
        <ele>991.35</ele>
        <time>2019-08-28T07:07:22Z</time>
      </trkpt>
      <trkpt lat="45.06228" lon="5.54789">
        <ele>991.25</ele>
        <time>2019-08-28T07:07:33Z</time>
      </trkpt>
      <trkpt lat="45.06258" lon="5.54784">
        <ele>990.75</ele>
        <time>2019-08-28T07:07:46Z</time>
      </trkpt>
      <trkpt lat="45.06271" lon="5.54781">
        <ele>990.84</ele>
        <time>2019-08-28T07:07:52Z</time>
      </trkpt>
      <trkpt lat="45.06273" lon="5.54779">
        <ele>990.88</ele>
        <time>2019-08-28T07:07:53Z</time>
      </trkpt>
      <trkpt lat="45.06317" lon="5.54804">
        <ele>990.62</ele>
        <time>2019-08-28T07:08:06Z</time>
      </trkpt>
      <trkpt lat="45.06358" lon="5.54811">
        <ele>991.03</ele>
        <time>2019-08-28T07:08:20Z</time>
      </trkpt>
      <trkpt lat="45.06384" lon="5.54814">
        <ele>991.7</ele>
        <time>2019-08-28T07:08:33Z</time>
      </trkpt>
      <trkpt lat="45.0641" lon="5.54816">
        <ele>992.85</ele>
        <time>2019-08-28T07:08:45Z</time>
      </trkpt>
      <trkpt lat="45.06446" lon="5.54821">
        <ele>994.89</ele>
        <time>2019-08-28T07:09:01Z</time>
      </trkpt>
      <trkpt lat="45.06481" lon="5.54824">
        <ele>996.67</ele>
        <time>2019-08-28T07:09:17Z</time>
      </trkpt>
      <trkpt lat="45.06508" lon="5.54825">
        <ele>997.79</ele>
        <time>2019-08-28T07:09:29Z</time>
      </trkpt>
      <trkpt lat="45.0651" lon="5.54824">
        <ele>997.99</ele>
        <time>2019-08-28T07:09:30Z</time>
      </trkpt>
      <trkpt lat="45.06543" lon="5.54813">
        <ele>998.62</ele>
        <time>2019-08-28T07:09:42Z</time>
      </trkpt>
      <trkpt lat="45.06611" lon="5.5479">
        <ele>996.9</ele>
        <time>2019-08-28T07:09:56Z</time>
      </trkpt>
      <trkpt lat="45.06664" lon="5.54772">
        <ele>995.46</ele>
        <time>2019-08-28T07:10:07Z</time>
      </trkpt>
      <trkpt lat="45.0667" lon="5.54771">
        <ele>995.29</ele>
        <time>2019-08-28T07:10:08Z</time>
      </trkpt>
      <trkpt lat="45.06675" lon="5.5477">
        <ele>995.08</ele>
        <time>2019-08-28T07:10:09Z</time>
      </trkpt>
      <trkpt lat="45.06679" lon="5.54769">
        <ele>994.77</ele>
        <time>2019-08-28T07:10:10Z</time>
      </trkpt>
      <trkpt lat="45.06685" lon="5.54767">
        <ele>994.39</ele>
        <time>2019-08-28T07:10:11Z</time>
      </trkpt>
      <trkpt lat="45.067" lon="5.54763">
        <ele>993</ele>
        <time>2019-08-28T07:10:14Z</time>
      </trkpt>
      <trkpt lat="45.06717" lon="5.54761">
        <ele>991.32</ele>
        <time>2019-08-28T07:10:17Z</time>
      </trkpt>
      <trkpt lat="45.0674" lon="5.54755">
        <ele>988.07</ele>
        <time>2019-08-28T07:10:21Z</time>
      </trkpt>
      <trkpt lat="45.06747" lon="5.54753">
        <ele>986.2</ele>
        <time>2019-08-28T07:10:24Z</time>
      </trkpt>
      <trkpt lat="45.06749" lon="5.54753">
        <ele>985.71</ele>
        <time>2019-08-28T07:10:25Z</time>
      </trkpt>
      <trkpt lat="45.06751" lon="5.54757">
        <ele>985.32</ele>
        <time>2019-08-28T07:10:26Z</time>
      </trkpt>
      <trkpt lat="45.06753" lon="5.54762">
        <ele>985</ele>
        <time>2019-08-28T07:10:27Z</time>
      </trkpt>
      <trkpt lat="45.06755" lon="5.54766">
        <ele>984.73</ele>
        <time>2019-08-28T07:10:28Z</time>
      </trkpt>
      <trkpt lat="45.06758" lon="5.5477">
        <ele>984.54</ele>
        <time>2019-08-28T07:10:29Z</time>
      </trkpt>
      <trkpt lat="45.0676" lon="5.54773">
        <ele>984.39</ele>
        <time>2019-08-28T07:10:30Z</time>
      </trkpt>
      <trkpt lat="45.06763" lon="5.54776">
        <ele>984.27</ele>
        <time>2019-08-28T07:10:31Z</time>
      </trkpt>
      <trkpt lat="45.06781" lon="5.548">
        <ele>983.76</ele>
        <time>2019-08-28T07:10:41Z</time>
      </trkpt>
      <trkpt lat="45.06798" lon="5.54821">
        <ele>984.71</ele>
        <time>2019-08-28T07:10:51Z</time>
      </trkpt>
      <trkpt lat="45.06801" lon="5.54821">
        <ele>984.83</ele>
        <time>2019-08-28T07:10:52Z</time>
      </trkpt>
      <trkpt lat="45.06803" lon="5.54821">
        <ele>984.93</ele>
        <time>2019-08-28T07:10:53Z</time>
      </trkpt>
      <trkpt lat="45.06804" lon="5.54821">
        <ele>985.05</ele>
        <time>2019-08-28T07:10:54Z</time>
      </trkpt>
      <trkpt lat="45.06806" lon="5.5482">
        <ele>985.18</ele>
        <time>2019-08-28T07:10:55Z</time>
      </trkpt>
      <trkpt lat="45.06818" lon="5.54801">
        <ele>986.09</ele>
        <time>2019-08-28T07:11:05Z</time>
      </trkpt>
      <trkpt lat="45.0682" lon="5.54798">
        <ele>986.11</ele>
        <time>2019-08-28T07:11:06Z</time>
      </trkpt>
      <trkpt lat="45.06822" lon="5.54794">
        <ele>986.13</ele>
        <time>2019-08-28T07:11:07Z</time>
      </trkpt>
      <trkpt lat="45.06849" lon="5.54756">
        <ele>985.13</ele>
        <time>2019-08-28T07:11:17Z</time>
      </trkpt>
      <trkpt lat="45.06853" lon="5.54751">
        <ele>984.98</ele>
        <time>2019-08-28T07:11:18Z</time>
      </trkpt>
      <trkpt lat="45.06872" lon="5.54717">
        <ele>983.81</ele>
        <time>2019-08-28T07:11:24Z</time>
      </trkpt>
      <trkpt lat="45.0688" lon="5.54704">
        <ele>983.38</ele>
        <time>2019-08-28T07:11:26Z</time>
      </trkpt>
      <trkpt lat="45.06884" lon="5.54698">
        <ele>983.21</ele>
        <time>2019-08-28T07:11:27Z</time>
      </trkpt>
      <trkpt lat="45.06888" lon="5.54693">
        <ele>983.05</ele>
        <time>2019-08-28T07:11:28Z</time>
      </trkpt>
      <trkpt lat="45.06893" lon="5.54689">
        <ele>982.88</ele>
        <time>2019-08-28T07:11:29Z</time>
      </trkpt>
      <trkpt lat="45.06899" lon="5.54686">
        <ele>982.69</ele>
        <time>2019-08-28T07:11:30Z</time>
      </trkpt>
      <trkpt lat="45.06904" lon="5.54683">
        <ele>982.53</ele>
        <time>2019-08-28T07:11:31Z</time>
      </trkpt>
      <trkpt lat="45.06912" lon="5.54679">
        <ele>982.11</ele>
        <time>2019-08-28T07:11:33Z</time>
      </trkpt>
      <trkpt lat="45.06917" lon="5.54679">
        <ele>982.11</ele>
        <time>2019-08-28T07:11:34Z</time>
      </trkpt>
      <trkpt lat="45.06954" lon="5.54678">
        <ele>981.68</ele>
        <time>2019-08-28T07:11:44Z</time>
      </trkpt>
      <trkpt lat="45.0699" lon="5.54675">
        <ele>982.05</ele>
        <time>2019-08-28T07:11:55Z</time>
      </trkpt>
      <trkpt lat="45.07024" lon="5.54674">
        <ele>982.46</ele>
        <time>2019-08-28T07:12:05Z</time>
      </trkpt>
      <trkpt lat="45.07064" lon="5.54692">
        <ele>982.65</ele>
        <time>2019-08-28T07:12:15Z</time>
      </trkpt>
      <trkpt lat="45.07097" lon="5.5471">
        <ele>982.45</ele>
        <time>2019-08-28T07:12:25Z</time>
      </trkpt>
      <trkpt lat="45.07141" lon="5.54714">
        <ele>982.01</ele>
        <time>2019-08-28T07:12:38Z</time>
      </trkpt>
      <trkpt lat="45.07184" lon="5.54724">
        <ele>982.21</ele>
        <time>2019-08-28T07:12:51Z</time>
      </trkpt>
      <trkpt lat="45.07229" lon="5.54724">
        <ele>982.15</ele>
        <time>2019-08-28T07:13:02Z</time>
      </trkpt>
      <trkpt lat="45.07256" lon="5.54715">
        <ele>981.43</ele>
        <time>2019-08-28T07:13:07Z</time>
      </trkpt>
      <trkpt lat="45.07273" lon="5.54714">
        <ele>980.42</ele>
        <time>2019-08-28T07:13:10Z</time>
      </trkpt>
      <trkpt lat="45.07285" lon="5.54717">
        <ele>979.74</ele>
        <time>2019-08-28T07:13:12Z</time>
      </trkpt>
      <trkpt lat="45.07298" lon="5.54723">
        <ele>978.67</ele>
        <time>2019-08-28T07:13:14Z</time>
      </trkpt>
      <trkpt lat="45.07341" lon="5.54758">
        <ele>975.49</ele>
        <time>2019-08-28T07:13:22Z</time>
      </trkpt>
      <trkpt lat="45.07362" lon="5.54778">
        <ele>973.07</ele>
        <time>2019-08-28T07:13:28Z</time>
      </trkpt>
      <trkpt lat="45.07364" lon="5.54776">
        <ele>972.71</ele>
        <time>2019-08-28T07:13:29Z</time>
      </trkpt>
      <trkpt lat="45.07365" lon="5.54774">
        <ele>972.37</ele>
        <time>2019-08-28T07:13:30Z</time>
      </trkpt>
      <trkpt lat="45.07365" lon="5.54771">
        <ele>972.07</ele>
        <time>2019-08-28T07:13:31Z</time>
      </trkpt>
      <trkpt lat="45.07364" lon="5.54768">
        <ele>971.8</ele>
        <time>2019-08-28T07:13:32Z</time>
      </trkpt>
      <trkpt lat="45.07362" lon="5.54765">
        <ele>971.56</ele>
        <time>2019-08-28T07:13:33Z</time>
      </trkpt>
      <trkpt lat="45.0736" lon="5.54762">
        <ele>971.35</ele>
        <time>2019-08-28T07:13:34Z</time>
      </trkpt>
      <trkpt lat="45.0736" lon="5.54759">
        <ele>969.2</ele>
        <time>2019-08-28T07:13:44Z</time>
      </trkpt>
      <trkpt lat="45.07363" lon="5.54757">
        <ele>968.93</ele>
        <time>2019-08-28T07:13:48Z</time>
      </trkpt>
      <trkpt lat="45.07364" lon="5.54756">
        <ele>968.89</ele>
        <time>2019-08-28T07:13:49Z</time>
      </trkpt>
      <trkpt lat="45.0737" lon="5.54758">
        <ele>968.85</ele>
        <time>2019-08-28T07:13:51Z</time>
      </trkpt>
      <trkpt lat="45.07372" lon="5.54758">
        <ele>968.83</ele>
        <time>2019-08-28T07:13:52Z</time>
      </trkpt>
      <trkpt lat="45.07374" lon="5.54757">
        <ele>968.81</ele>
        <time>2019-08-28T07:13:53Z</time>
      </trkpt>
      <trkpt lat="45.07375" lon="5.54754">
        <ele>968.75</ele>
        <time>2019-08-28T07:13:54Z</time>
      </trkpt>
      <trkpt lat="45.07376" lon="5.54752">
        <ele>968.65</ele>
        <time>2019-08-28T07:13:55Z</time>
      </trkpt>
      <trkpt lat="45.07376" lon="5.54749">
        <ele>968.54</ele>
        <time>2019-08-28T07:13:56Z</time>
      </trkpt>
      <trkpt lat="45.07376" lon="5.54746">
        <ele>968.39</ele>
        <time>2019-08-28T07:13:57Z</time>
      </trkpt>
      <trkpt lat="45.07375" lon="5.54743">
        <ele>968.22</ele>
        <time>2019-08-28T07:13:58Z</time>
      </trkpt>
      <trkpt lat="45.07374" lon="5.54738">
        <ele>968.05</ele>
        <time>2019-08-28T07:13:59Z</time>
      </trkpt>
      <trkpt lat="45.07374" lon="5.54734">
        <ele>967.91</ele>
        <time>2019-08-28T07:14:00Z</time>
      </trkpt>
      <trkpt lat="45.07382" lon="5.54669">
        <ele>966.51</ele>
        <time>2019-08-28T07:14:15Z</time>
      </trkpt>
      <trkpt lat="45.07396" lon="5.54628">
        <ele>966.12</ele>
        <time>2019-08-28T07:14:27Z</time>
      </trkpt>
      <trkpt lat="45.07397" lon="5.54625">
        <ele>966.16</ele>
        <time>2019-08-28T07:14:28Z</time>
      </trkpt>
      <trkpt lat="45.07396" lon="5.54621">
        <ele>966.2</ele>
        <time>2019-08-28T07:14:29Z</time>
      </trkpt>
      <trkpt lat="45.07389" lon="5.54602">
        <ele>966.29</ele>
        <time>2019-08-28T07:14:37Z</time>
      </trkpt>
      <trkpt lat="45.0738" lon="5.54547">
        <ele>965.95</ele>
        <time>2019-08-28T07:14:48Z</time>
      </trkpt>
      <trkpt lat="45.07376" lon="5.54537">
        <ele>965.81</ele>
        <time>2019-08-28T07:14:50Z</time>
      </trkpt>
      <trkpt lat="45.07362" lon="5.54501">
        <ele>965.42</ele>
        <time>2019-08-28T07:14:56Z</time>
      </trkpt>
      <trkpt lat="45.07359" lon="5.54496">
        <ele>965.38</ele>
        <time>2019-08-28T07:14:57Z</time>
      </trkpt>
      <trkpt lat="45.07355" lon="5.5449">
        <ele>965.31</ele>
        <time>2019-08-28T07:14:58Z</time>
      </trkpt>
      <trkpt lat="45.0734" lon="5.54469">
        <ele>965</ele>
        <time>2019-08-28T07:15:02Z</time>
      </trkpt>
      <trkpt lat="45.07309" lon="5.54432">
        <ele>964.15</ele>
        <time>2019-08-28T07:15:11Z</time>
      </trkpt>
      <trkpt lat="45.07306" lon="5.54427">
        <ele>964.07</ele>
        <time>2019-08-28T07:15:12Z</time>
      </trkpt>
      <trkpt lat="45.07302" lon="5.54422">
        <ele>964</ele>
        <time>2019-08-28T07:15:13Z</time>
      </trkpt>
      <trkpt lat="45.073" lon="5.54416">
        <ele>963.95</ele>
        <time>2019-08-28T07:15:14Z</time>
      </trkpt>
      <trkpt lat="45.07299" lon="5.54409">
        <ele>963.86</ele>
        <time>2019-08-28T07:15:15Z</time>
      </trkpt>
      <trkpt lat="45.073" lon="5.54403">
        <ele>963.83</ele>
        <time>2019-08-28T07:15:16Z</time>
      </trkpt>
      <trkpt lat="45.07302" lon="5.54396">
        <ele>963.78</ele>
        <time>2019-08-28T07:15:17Z</time>
      </trkpt>
      <trkpt lat="45.07305" lon="5.54389">
        <ele>963.73</ele>
        <time>2019-08-28T07:15:18Z</time>
      </trkpt>
      <trkpt lat="45.07309" lon="5.54382">
        <ele>963.69</ele>
        <time>2019-08-28T07:15:19Z</time>
      </trkpt>
      <trkpt lat="45.07314" lon="5.54376">
        <ele>963.62</ele>
        <time>2019-08-28T07:15:20Z</time>
      </trkpt>
      <trkpt lat="45.07319" lon="5.54371">
        <ele>963.55</ele>
        <time>2019-08-28T07:15:21Z</time>
      </trkpt>
      <trkpt lat="45.07364" lon="5.54315">
        <ele>962.94</ele>
        <time>2019-08-28T07:15:31Z</time>
      </trkpt>
      <trkpt lat="45.07373" lon="5.54293">
        <ele>962.61</ele>
        <time>2019-08-28T07:15:34Z</time>
      </trkpt>
      <trkpt lat="45.07374" lon="5.54283">
        <ele>962.47</ele>
        <time>2019-08-28T07:15:35Z</time>
      </trkpt>
      <trkpt lat="45.07403" lon="5.54154">
        <ele>959.97</ele>
        <time>2019-08-28T07:15:48Z</time>
      </trkpt>
      <trkpt lat="45.07404" lon="5.54144">
        <ele>959.74</ele>
        <time>2019-08-28T07:15:49Z</time>
      </trkpt>
      <trkpt lat="45.07405" lon="5.54135">
        <ele>959.46</ele>
        <time>2019-08-28T07:15:50Z</time>
      </trkpt>
      <trkpt lat="45.07405" lon="5.54125">
        <ele>959.15</ele>
        <time>2019-08-28T07:15:51Z</time>
      </trkpt>
      <trkpt lat="45.07403" lon="5.54115">
        <ele>958.87</ele>
        <time>2019-08-28T07:15:52Z</time>
      </trkpt>
      <trkpt lat="45.07401" lon="5.54106">
        <ele>958.62</ele>
        <time>2019-08-28T07:15:53Z</time>
      </trkpt>
      <trkpt lat="45.07398" lon="5.54098">
        <ele>958.4</ele>
        <time>2019-08-28T07:15:54Z</time>
      </trkpt>
      <trkpt lat="45.07394" lon="5.54092">
        <ele>958.18</ele>
        <time>2019-08-28T07:15:55Z</time>
      </trkpt>
      <trkpt lat="45.07391" lon="5.54086">
        <ele>957.99</ele>
        <time>2019-08-28T07:15:56Z</time>
      </trkpt>
      <trkpt lat="45.07386" lon="5.54081">
        <ele>957.81</ele>
        <time>2019-08-28T07:15:57Z</time>
      </trkpt>
      <trkpt lat="45.07381" lon="5.54077">
        <ele>957.64</ele>
        <time>2019-08-28T07:15:58Z</time>
      </trkpt>
      <trkpt lat="45.07377" lon="5.54075">
        <ele>957.49</ele>
        <time>2019-08-28T07:15:59Z</time>
      </trkpt>
      <trkpt lat="45.07371" lon="5.54073">
        <ele>957.37</ele>
        <time>2019-08-28T07:16:00Z</time>
      </trkpt>
      <trkpt lat="45.07365" lon="5.54072">
        <ele>957.27</ele>
        <time>2019-08-28T07:16:01Z</time>
      </trkpt>
      <trkpt lat="45.07324" lon="5.54059">
        <ele>956.06</ele>
        <time>2019-08-28T07:16:12Z</time>
      </trkpt>
      <trkpt lat="45.07321" lon="5.54055">
        <ele>955.81</ele>
        <time>2019-08-28T07:16:14Z</time>
      </trkpt>
      <trkpt lat="45.0732" lon="5.54053">
        <ele>955.72</ele>
        <time>2019-08-28T07:16:15Z</time>
      </trkpt>
      <trkpt lat="45.07318" lon="5.54049">
        <ele>955.56</ele>
        <time>2019-08-28T07:16:17Z</time>
      </trkpt>
      <trkpt lat="45.07317" lon="5.54047">
        <ele>955.49</ele>
        <time>2019-08-28T07:16:18Z</time>
      </trkpt>
      <trkpt lat="45.07317" lon="5.54043">
        <ele>954.93</ele>
        <time>2019-08-28T07:16:29Z</time>
      </trkpt>
      <trkpt lat="45.07317" lon="5.54042">
        <ele>954.93</ele>
        <time>2019-08-28T07:16:30Z</time>
      </trkpt>
      <trkpt lat="45.07316" lon="5.54042">
        <ele>954.95</ele>
        <time>2019-08-28T07:16:31Z</time>
      </trkpt>
      <trkpt lat="45.07315" lon="5.54044">
        <ele>954.97</ele>
        <time>2019-08-28T07:16:32Z</time>
      </trkpt>
      <trkpt lat="45.07314" lon="5.54046">
        <ele>955.05</ele>
        <time>2019-08-28T07:16:33Z</time>
      </trkpt>
      <trkpt lat="45.07314" lon="5.54049">
        <ele>955.08</ele>
        <time>2019-08-28T07:16:34Z</time>
      </trkpt>
      <trkpt lat="45.07313" lon="5.54051">
        <ele>955.13</ele>
        <time>2019-08-28T07:16:35Z</time>
      </trkpt>
      <trkpt lat="45.07314" lon="5.54054">
        <ele>955.19</ele>
        <time>2019-08-28T07:16:36Z</time>
      </trkpt>
      <trkpt lat="45.07313" lon="5.54057">
        <ele>955.25</ele>
        <time>2019-08-28T07:16:37Z</time>
      </trkpt>
      <trkpt lat="45.07313" lon="5.54059">
        <ele>955.35</ele>
        <time>2019-08-28T07:16:38Z</time>
      </trkpt>
      <trkpt lat="45.07311" lon="5.54062">
        <ele>955.42</ele>
        <time>2019-08-28T07:16:39Z</time>
      </trkpt>
      <trkpt lat="45.07309" lon="5.54062">
        <ele>955.44</ele>
        <time>2019-08-28T07:16:40Z</time>
      </trkpt>
      <trkpt lat="45.07306" lon="5.54061">
        <ele>955.45</ele>
        <time>2019-08-28T07:16:41Z</time>
      </trkpt>
      <trkpt lat="45.07304" lon="5.54058">
        <ele>955.45</ele>
        <time>2019-08-28T07:16:42Z</time>
      </trkpt>
      <trkpt lat="45.07302" lon="5.54055">
        <ele>955.41</ele>
        <time>2019-08-28T07:16:43Z</time>
      </trkpt>
      <trkpt lat="45.07301" lon="5.54052">
        <ele>955.36</ele>
        <time>2019-08-28T07:16:44Z</time>
      </trkpt>
      <trkpt lat="45.0729" lon="5.54008">
        <ele>954.69</ele>
        <time>2019-08-28T07:16:56Z</time>
      </trkpt>
      <trkpt lat="45.07293" lon="5.5395">
        <ele>954.42</ele>
        <time>2019-08-28T07:17:06Z</time>
      </trkpt>
      <trkpt lat="45.07305" lon="5.53895">
        <ele>954.16</ele>
        <time>2019-08-28T07:17:17Z</time>
      </trkpt>
      <trkpt lat="45.07304" lon="5.53891">
        <ele>954.23</ele>
        <time>2019-08-28T07:17:18Z</time>
      </trkpt>
      <trkpt lat="45.07304" lon="5.53887">
        <ele>954.28</ele>
        <time>2019-08-28T07:17:19Z</time>
      </trkpt>
      <trkpt lat="45.07298" lon="5.53865">
        <ele>954.71</ele>
        <time>2019-08-28T07:17:25Z</time>
      </trkpt>
      <trkpt lat="45.07297" lon="5.53863">
        <ele>954.8</ele>
        <time>2019-08-28T07:17:26Z</time>
      </trkpt>
      <trkpt lat="45.07296" lon="5.5386">
        <ele>954.92</ele>
        <time>2019-08-28T07:17:27Z</time>
      </trkpt>
      <trkpt lat="45.07295" lon="5.53858">
        <ele>955.05</ele>
        <time>2019-08-28T07:17:28Z</time>
      </trkpt>
      <trkpt lat="45.07294" lon="5.53856">
        <ele>955.18</ele>
        <time>2019-08-28T07:17:29Z</time>
      </trkpt>
      <trkpt lat="45.07293" lon="5.53853">
        <ele>955.32</ele>
        <time>2019-08-28T07:17:30Z</time>
      </trkpt>
      <trkpt lat="45.07291" lon="5.53851">
        <ele>955.48</ele>
        <time>2019-08-28T07:17:31Z</time>
      </trkpt>
      <trkpt lat="45.0729" lon="5.53848">
        <ele>955.66</ele>
        <time>2019-08-28T07:17:32Z</time>
      </trkpt>
      <trkpt lat="45.07289" lon="5.53845">
        <ele>955.86</ele>
        <time>2019-08-28T07:17:33Z</time>
      </trkpt>
      <trkpt lat="45.07288" lon="5.53843">
        <ele>956.04</ele>
        <time>2019-08-28T07:17:34Z</time>
      </trkpt>
      <trkpt lat="45.07283" lon="5.53827">
        <ele>957.01</ele>
        <time>2019-08-28T07:17:40Z</time>
      </trkpt>
      <trkpt lat="45.07285" lon="5.5382">
        <ele>957.33</ele>
        <time>2019-08-28T07:17:42Z</time>
      </trkpt>
      <trkpt lat="45.07287" lon="5.53817">
        <ele>957.49</ele>
        <time>2019-08-28T07:17:43Z</time>
      </trkpt>
      <trkpt lat="45.07287" lon="5.53814">
        <ele>957.65</ele>
        <time>2019-08-28T07:17:44Z</time>
      </trkpt>
      <trkpt lat="45.07288" lon="5.53811">
        <ele>957.82</ele>
        <time>2019-08-28T07:17:45Z</time>
      </trkpt>
      <trkpt lat="45.0729" lon="5.53809">
        <ele>957.98</ele>
        <time>2019-08-28T07:17:46Z</time>
      </trkpt>
      <trkpt lat="45.07291" lon="5.53805">
        <ele>958.15</ele>
        <time>2019-08-28T07:17:47Z</time>
      </trkpt>
      <trkpt lat="45.07292" lon="5.53803">
        <ele>958.34</ele>
        <time>2019-08-28T07:17:48Z</time>
      </trkpt>
      <trkpt lat="45.07293" lon="5.538">
        <ele>958.54</ele>
        <time>2019-08-28T07:17:49Z</time>
      </trkpt>
      <trkpt lat="45.07295" lon="5.53797">
        <ele>958.72</ele>
        <time>2019-08-28T07:17:50Z</time>
      </trkpt>
      <trkpt lat="45.07297" lon="5.53794">
        <ele>959.07</ele>
        <time>2019-08-28T07:17:51Z</time>
      </trkpt>
      <trkpt lat="45.07299" lon="5.53792">
        <ele>959.07</ele>
        <time>2019-08-28T07:17:52Z</time>
      </trkpt>
      <trkpt lat="45.07301" lon="5.53791">
        <ele>959.32</ele>
        <time>2019-08-28T07:17:53Z</time>
      </trkpt>
      <trkpt lat="45.07303" lon="5.53782">
        <ele>959.61</ele>
        <time>2019-08-28T07:18:02Z</time>
      </trkpt>
      <trkpt lat="45.07304" lon="5.5378">
        <ele>959.64</ele>
        <time>2019-08-28T07:18:03Z</time>
      </trkpt>
      <trkpt lat="45.07306" lon="5.53778">
        <ele>959.67</ele>
        <time>2019-08-28T07:18:04Z</time>
      </trkpt>
      <trkpt lat="45.07308" lon="5.53777">
        <ele>959.68</ele>
        <time>2019-08-28T07:18:05Z</time>
      </trkpt>
      <trkpt lat="45.0731" lon="5.53775">
        <ele>959.68</ele>
        <time>2019-08-28T07:18:06Z</time>
      </trkpt>
      <trkpt lat="45.07315" lon="5.53773">
        <ele>959.68</ele>
        <time>2019-08-28T07:18:09Z</time>
      </trkpt>
      <trkpt lat="45.07316" lon="5.53772">
        <ele>959.68</ele>
        <time>2019-08-28T07:18:10Z</time>
      </trkpt>
      <trkpt lat="45.07318" lon="5.53771">
        <ele>959.68</ele>
        <time>2019-08-28T07:18:11Z</time>
      </trkpt>
      <trkpt lat="45.07319" lon="5.5377">
        <ele>959.68</ele>
        <time>2019-08-28T07:18:12Z</time>
      </trkpt>
      <trkpt lat="45.07321" lon="5.53769">
        <ele>959.68</ele>
        <time>2019-08-28T07:18:13Z</time>
      </trkpt>
      <trkpt lat="45.07323" lon="5.53768">
        <ele>959.68</ele>
        <time>2019-08-28T07:18:14Z</time>
      </trkpt>
      <trkpt lat="45.07326" lon="5.53767">
        <ele>959.68</ele>
        <time>2019-08-28T07:18:16Z</time>
      </trkpt>
      <trkpt lat="45.07333" lon="5.53764">
        <ele>959.68</ele>
        <time>2019-08-28T07:18:19Z</time>
      </trkpt>
      <trkpt lat="45.07336" lon="5.53763">
        <ele>959.68</ele>
        <time>2019-08-28T07:18:20Z</time>
      </trkpt>
      <trkpt lat="45.07339" lon="5.53762">
        <ele>959.67</ele>
        <time>2019-08-28T07:18:21Z</time>
      </trkpt>
      <trkpt lat="45.07341" lon="5.53761">
        <ele>959.64</ele>
        <time>2019-08-28T07:18:22Z</time>
      </trkpt>
      <trkpt lat="45.07344" lon="5.5376">
        <ele>959.6</ele>
        <time>2019-08-28T07:18:23Z</time>
      </trkpt>
      <trkpt lat="45.07347" lon="5.53758">
        <ele>959.56</ele>
        <time>2019-08-28T07:18:24Z</time>
      </trkpt>
      <trkpt lat="45.07371" lon="5.53748">
        <ele>958.94</ele>
        <time>2019-08-28T07:18:31Z</time>
      </trkpt>
      <trkpt lat="45.07374" lon="5.53747">
        <ele>958.75</ele>
        <time>2019-08-28T07:18:32Z</time>
      </trkpt>
      <trkpt lat="45.07377" lon="5.53745">
        <ele>958.56</ele>
        <time>2019-08-28T07:18:33Z</time>
      </trkpt>
      <trkpt lat="45.07381" lon="5.53744">
        <ele>958.35</ele>
        <time>2019-08-28T07:18:34Z</time>
      </trkpt>
      <trkpt lat="45.07386" lon="5.53746">
        <ele>958.15</ele>
        <time>2019-08-28T07:18:35Z</time>
      </trkpt>
      <trkpt lat="45.0739" lon="5.53745">
        <ele>957.95</ele>
        <time>2019-08-28T07:18:36Z</time>
      </trkpt>
      <trkpt lat="45.07393" lon="5.53746">
        <ele>957.71</ele>
        <time>2019-08-28T07:18:37Z</time>
      </trkpt>
      <trkpt lat="45.07396" lon="5.53746">
        <ele>957.47</ele>
        <time>2019-08-28T07:18:38Z</time>
      </trkpt>
      <trkpt lat="45.07399" lon="5.53745">
        <ele>957.27</ele>
        <time>2019-08-28T07:18:39Z</time>
      </trkpt>
      <trkpt lat="45.07418" lon="5.53746">
        <ele>955.95</ele>
        <time>2019-08-28T07:18:46Z</time>
      </trkpt>
      <trkpt lat="45.07442" lon="5.53751">
        <ele>954.58</ele>
        <time>2019-08-28T07:18:52Z</time>
      </trkpt>
      <trkpt lat="45.0745" lon="5.53753">
        <ele>954.34</ele>
        <time>2019-08-28T07:18:53Z</time>
      </trkpt>
      <trkpt lat="45.07482" lon="5.53755">
        <ele>953.44</ele>
        <time>2019-08-28T07:18:57Z</time>
      </trkpt>
      <trkpt lat="45.07496" lon="5.53753">
        <ele>953.11</ele>
        <time>2019-08-28T07:18:59Z</time>
      </trkpt>
      <trkpt lat="45.07528" lon="5.53739">
        <ele>952.75</ele>
        <time>2019-08-28T07:19:06Z</time>
      </trkpt>
      <trkpt lat="45.07533" lon="5.53734">
        <ele>952.78</ele>
        <time>2019-08-28T07:19:07Z</time>
      </trkpt>
      <trkpt lat="45.07537" lon="5.5373">
        <ele>952.78</ele>
        <time>2019-08-28T07:19:08Z</time>
      </trkpt>
      <trkpt lat="45.07541" lon="5.53726">
        <ele>952.76</ele>
        <time>2019-08-28T07:19:09Z</time>
      </trkpt>
      <trkpt lat="45.07545" lon="5.53723">
        <ele>952.73</ele>
        <time>2019-08-28T07:19:10Z</time>
      </trkpt>
      <trkpt lat="45.07552" lon="5.53716">
        <ele>952.65</ele>
        <time>2019-08-28T07:19:12Z</time>
      </trkpt>
      <trkpt lat="45.07556" lon="5.53712">
        <ele>952.6</ele>
        <time>2019-08-28T07:19:13Z</time>
      </trkpt>
      <trkpt lat="45.07592" lon="5.53673">
        <ele>953.09</ele>
        <time>2019-08-28T07:19:25Z</time>
      </trkpt>
      <trkpt lat="45.07608" lon="5.53657">
        <ele>953.89</ele>
        <time>2019-08-28T07:19:30Z</time>
      </trkpt>
      <trkpt lat="45.0761" lon="5.53653">
        <ele>953.99</ele>
        <time>2019-08-28T07:19:31Z</time>
      </trkpt>
      <trkpt lat="45.07612" lon="5.5365">
        <ele>954.05</ele>
        <time>2019-08-28T07:19:32Z</time>
      </trkpt>
      <trkpt lat="45.07615" lon="5.53648">
        <ele>954</ele>
        <time>2019-08-28T07:19:33Z</time>
      </trkpt>
      <trkpt lat="45.07616" lon="5.53646">
        <ele>953.93</ele>
        <time>2019-08-28T07:19:34Z</time>
      </trkpt>
      <trkpt lat="45.07616" lon="5.53643">
        <ele>953.84</ele>
        <time>2019-08-28T07:19:35Z</time>
      </trkpt>
      <trkpt lat="45.07617" lon="5.53641">
        <ele>953.78</ele>
        <time>2019-08-28T07:19:36Z</time>
      </trkpt>
      <trkpt lat="45.07618" lon="5.5364">
        <ele>953.72</ele>
        <time>2019-08-28T07:19:37Z</time>
      </trkpt>
      <trkpt lat="45.0762" lon="5.53639">
        <ele>953.59</ele>
        <time>2019-08-28T07:19:44Z</time>
      </trkpt>
      <trkpt lat="45.07625" lon="5.53641">
        <ele>953.43</ele>
        <time>2019-08-28T07:19:50Z</time>
      </trkpt>
      <trkpt lat="45.07656" lon="5.53636">
        <ele>953.55</ele>
        <time>2019-08-28T07:20:03Z</time>
      </trkpt>
      <trkpt lat="45.07659" lon="5.53638">
        <ele>952.99</ele>
        <time>2019-08-28T07:20:09Z</time>
      </trkpt>
      <trkpt lat="45.07661" lon="5.5364">
        <ele>952.9</ele>
        <time>2019-08-28T07:20:10Z</time>
      </trkpt>
      <trkpt lat="45.07663" lon="5.5364">
        <ele>952.87</ele>
        <time>2019-08-28T07:20:11Z</time>
      </trkpt>
      <trkpt lat="45.07667" lon="5.53641">
        <ele>952.85</ele>
        <time>2019-08-28T07:20:12Z</time>
      </trkpt>
      <trkpt lat="45.07671" lon="5.53641">
        <ele>952.8</ele>
        <time>2019-08-28T07:20:13Z</time>
      </trkpt>
      <trkpt lat="45.07676" lon="5.53641">
        <ele>952.71</ele>
        <time>2019-08-28T07:20:14Z</time>
      </trkpt>
      <trkpt lat="45.07682" lon="5.53641">
        <ele>952.61</ele>
        <time>2019-08-28T07:20:15Z</time>
      </trkpt>
      <trkpt lat="45.07723" lon="5.53638">
        <ele>951.6</ele>
        <time>2019-08-28T07:20:22Z</time>
      </trkpt>
      <trkpt lat="45.07728" lon="5.53636">
        <ele>951.5</ele>
        <time>2019-08-28T07:20:23Z</time>
      </trkpt>
      <trkpt lat="45.07733" lon="5.53636">
        <ele>951.46</ele>
        <time>2019-08-28T07:20:24Z</time>
      </trkpt>
      <trkpt lat="45.07737" lon="5.53635">
        <ele>951.46</ele>
        <time>2019-08-28T07:20:25Z</time>
      </trkpt>
      <trkpt lat="45.07741" lon="5.53634">
        <ele>951.52</ele>
        <time>2019-08-28T07:20:26Z</time>
      </trkpt>
      <trkpt lat="45.07746" lon="5.53632">
        <ele>951.67</ele>
        <time>2019-08-28T07:20:27Z</time>
      </trkpt>
      <trkpt lat="45.07749" lon="5.53628">
        <ele>951.89</ele>
        <time>2019-08-28T07:20:28Z</time>
      </trkpt>
      <trkpt lat="45.07754" lon="5.53625">
        <ele>952.14</ele>
        <time>2019-08-28T07:20:29Z</time>
      </trkpt>
      <trkpt lat="45.07767" lon="5.53613">
        <ele>952.8</ele>
        <time>2019-08-28T07:20:32Z</time>
      </trkpt>
      <trkpt lat="45.07771" lon="5.53608">
        <ele>952.98</ele>
        <time>2019-08-28T07:20:33Z</time>
      </trkpt>
      <trkpt lat="45.07773" lon="5.53603">
        <ele>953.13</ele>
        <time>2019-08-28T07:20:34Z</time>
      </trkpt>
      <trkpt lat="45.07775" lon="5.53597">
        <ele>953.29</ele>
        <time>2019-08-28T07:20:35Z</time>
      </trkpt>
      <trkpt lat="45.07775" lon="5.53592">
        <ele>953.47</ele>
        <time>2019-08-28T07:20:36Z</time>
      </trkpt>
      <trkpt lat="45.07776" lon="5.53587">
        <ele>953.63</ele>
        <time>2019-08-28T07:20:37Z</time>
      </trkpt>
      <trkpt lat="45.07777" lon="5.53584">
        <ele>953.78</ele>
        <time>2019-08-28T07:20:38Z</time>
      </trkpt>
      <trkpt lat="45.07772" lon="5.53556">
        <ele>956.2</ele>
        <time>2019-08-28T07:20:48Z</time>
      </trkpt>
      <trkpt lat="45.07767" lon="5.53536">
        <ele>957.45</ele>
        <time>2019-08-28T07:20:54Z</time>
      </trkpt>
      <trkpt lat="45.0778" lon="5.53487">
        <ele>957.53</ele>
        <time>2019-08-28T07:21:04Z</time>
      </trkpt>
      <trkpt lat="45.07791" lon="5.53465">
        <ele>957.31</ele>
        <time>2019-08-28T07:21:08Z</time>
      </trkpt>
      <trkpt lat="45.07797" lon="5.53454">
        <ele>957.18</ele>
        <time>2019-08-28T07:21:10Z</time>
      </trkpt>
      <trkpt lat="45.07801" lon="5.53448">
        <ele>957.05</ele>
        <time>2019-08-28T07:21:11Z</time>
      </trkpt>
      <trkpt lat="45.07804" lon="5.53442">
        <ele>956.96</ele>
        <time>2019-08-28T07:21:12Z</time>
      </trkpt>
      <trkpt lat="45.07805" lon="5.53437">
        <ele>956.88</ele>
        <time>2019-08-28T07:21:13Z</time>
      </trkpt>
      <trkpt lat="45.07806" lon="5.53432">
        <ele>956.8</ele>
        <time>2019-08-28T07:21:14Z</time>
      </trkpt>
      <trkpt lat="45.07819" lon="5.53405">
        <ele>956.86</ele>
        <time>2019-08-28T07:21:21Z</time>
      </trkpt>
      <trkpt lat="45.0784" lon="5.53364">
        <ele>958.28</ele>
        <time>2019-08-28T07:21:33Z</time>
      </trkpt>
      <trkpt lat="45.07845" lon="5.53345">
        <ele>959.46</ele>
        <time>2019-08-28T07:21:39Z</time>
      </trkpt>
      <trkpt lat="45.07846" lon="5.53342">
        <ele>959.61</ele>
        <time>2019-08-28T07:21:40Z</time>
      </trkpt>
      <trkpt lat="45.07848" lon="5.53341">
        <ele>959.75</ele>
        <time>2019-08-28T07:21:41Z</time>
      </trkpt>
      <trkpt lat="45.07849" lon="5.5334">
        <ele>959.88</ele>
        <time>2019-08-28T07:21:42Z</time>
      </trkpt>
      <trkpt lat="45.07851" lon="5.53339">
        <ele>959.99</ele>
        <time>2019-08-28T07:21:43Z</time>
      </trkpt>
      <trkpt lat="45.07853" lon="5.53337">
        <ele>960.1</ele>
        <time>2019-08-28T07:21:44Z</time>
      </trkpt>
      <trkpt lat="45.07854" lon="5.53335">
        <ele>960.21</ele>
        <time>2019-08-28T07:21:45Z</time>
      </trkpt>
      <trkpt lat="45.07855" lon="5.53333">
        <ele>960.36</ele>
        <time>2019-08-28T07:21:46Z</time>
      </trkpt>
      <trkpt lat="45.07857" lon="5.53331">
        <ele>960.51</ele>
        <time>2019-08-28T07:21:47Z</time>
      </trkpt>
      <trkpt lat="45.07858" lon="5.53329">
        <ele>960.65</ele>
        <time>2019-08-28T07:21:48Z</time>
      </trkpt>
      <trkpt lat="45.0786" lon="5.53327">
        <ele>960.78</ele>
        <time>2019-08-28T07:21:49Z</time>
      </trkpt>
      <trkpt lat="45.07861" lon="5.53326">
        <ele>960.89</ele>
        <time>2019-08-28T07:21:50Z</time>
      </trkpt>
      <trkpt lat="45.07862" lon="5.53323">
        <ele>961</ele>
        <time>2019-08-28T07:21:51Z</time>
      </trkpt>
      <trkpt lat="45.07868" lon="5.53307">
        <ele>961.86</ele>
        <time>2019-08-28T07:21:58Z</time>
      </trkpt>
      <trkpt lat="45.07871" lon="5.53302">
        <ele>962.27</ele>
        <time>2019-08-28T07:22:01Z</time>
      </trkpt>
      <trkpt lat="45.07872" lon="5.53301">
        <ele>962.39</ele>
        <time>2019-08-28T07:22:02Z</time>
      </trkpt>
      <trkpt lat="45.07872" lon="5.53298">
        <ele>962.51</ele>
        <time>2019-08-28T07:22:03Z</time>
      </trkpt>
      <trkpt lat="45.07873" lon="5.53296">
        <ele>962.65</ele>
        <time>2019-08-28T07:22:04Z</time>
      </trkpt>
      <trkpt lat="45.07873" lon="5.53293">
        <ele>962.82</ele>
        <time>2019-08-28T07:22:05Z</time>
      </trkpt>
      <trkpt lat="45.07874" lon="5.5329">
        <ele>963</ele>
        <time>2019-08-28T07:22:06Z</time>
      </trkpt>
      <trkpt lat="45.07875" lon="5.53286">
        <ele>963.17</ele>
        <time>2019-08-28T07:22:07Z</time>
      </trkpt>
      <trkpt lat="45.07893" lon="5.53259">
        <ele>965.34</ele>
        <time>2019-08-28T07:22:19Z</time>
      </trkpt>
      <trkpt lat="45.07895" lon="5.53255">
        <ele>965.68</ele>
        <time>2019-08-28T07:22:21Z</time>
      </trkpt>
      <trkpt lat="45.07899" lon="5.5325">
        <ele>966.16</ele>
        <time>2019-08-28T07:22:24Z</time>
      </trkpt>
      <trkpt lat="45.07901" lon="5.53249">
        <ele>966.55</ele>
        <time>2019-08-28T07:22:25Z</time>
      </trkpt>
      <trkpt lat="45.07902" lon="5.53247">
        <ele>966.77</ele>
        <time>2019-08-28T07:22:26Z</time>
      </trkpt>
      <trkpt lat="45.07904" lon="5.53245">
        <ele>966.95</ele>
        <time>2019-08-28T07:22:27Z</time>
      </trkpt>
      <trkpt lat="45.07906" lon="5.53244">
        <ele>967.13</ele>
        <time>2019-08-28T07:22:28Z</time>
      </trkpt>
      <trkpt lat="45.07908" lon="5.53243">
        <ele>967.31</ele>
        <time>2019-08-28T07:22:29Z</time>
      </trkpt>
      <trkpt lat="45.07914" lon="5.53238">
        <ele>968.05</ele>
        <time>2019-08-28T07:22:42Z</time>
      </trkpt>
      <trkpt lat="45.07917" lon="5.53236">
        <ele>967.79</ele>
        <time>2019-08-28T07:23:00Z</time>
      </trkpt>
      <trkpt lat="45.07927" lon="5.5323">
        <ele>967.78</ele>
        <time>2019-08-28T07:23:05Z</time>
      </trkpt>
      <trkpt lat="45.07931" lon="5.5323">
        <ele>967.77</ele>
        <time>2019-08-28T07:23:06Z</time>
      </trkpt>
      <trkpt lat="45.07934" lon="5.53229">
        <ele>967.72</ele>
        <time>2019-08-28T07:23:07Z</time>
      </trkpt>
      <trkpt lat="45.07938" lon="5.53227">
        <ele>967.63</ele>
        <time>2019-08-28T07:23:08Z</time>
      </trkpt>
      <trkpt lat="45.07943" lon="5.53225">
        <ele>967.49</ele>
        <time>2019-08-28T07:23:09Z</time>
      </trkpt>
      <trkpt lat="45.07946" lon="5.53222">
        <ele>967.34</ele>
        <time>2019-08-28T07:23:10Z</time>
      </trkpt>
      <trkpt lat="45.07949" lon="5.5322">
        <ele>967.18</ele>
        <time>2019-08-28T07:23:11Z</time>
      </trkpt>
      <trkpt lat="45.07952" lon="5.53217">
        <ele>966.98</ele>
        <time>2019-08-28T07:23:12Z</time>
      </trkpt>
      <trkpt lat="45.07956" lon="5.53216">
        <ele>966.72</ele>
        <time>2019-08-28T07:23:13Z</time>
      </trkpt>
      <trkpt lat="45.07961" lon="5.53214">
        <ele>966.42</ele>
        <time>2019-08-28T07:23:14Z</time>
      </trkpt>
      <trkpt lat="45.07965" lon="5.53211">
        <ele>965.56</ele>
        <time>2019-08-28T07:23:15Z</time>
      </trkpt>
      <trkpt lat="45.07969" lon="5.53209">
        <ele>964.98</ele>
        <time>2019-08-28T07:23:16Z</time>
      </trkpt>
      <trkpt lat="45.07971" lon="5.53205">
        <ele>964.37</ele>
        <time>2019-08-28T07:23:17Z</time>
      </trkpt>
      <trkpt lat="45.07975" lon="5.53203">
        <ele>963.72</ele>
        <time>2019-08-28T07:23:18Z</time>
      </trkpt>
      <trkpt lat="45.07979" lon="5.532">
        <ele>963.11</ele>
        <time>2019-08-28T07:23:19Z</time>
      </trkpt>
      <trkpt lat="45.07987" lon="5.53195">
        <ele>961.8</ele>
        <time>2019-08-28T07:23:21Z</time>
      </trkpt>
      <trkpt lat="45.07991" lon="5.53191">
        <ele>961.09</ele>
        <time>2019-08-28T07:23:22Z</time>
      </trkpt>
      <trkpt lat="45.07999" lon="5.53186">
        <ele>959.67</ele>
        <time>2019-08-28T07:23:24Z</time>
      </trkpt>
      <trkpt lat="45.08004" lon="5.53183">
        <ele>958.9</ele>
        <time>2019-08-28T07:23:25Z</time>
      </trkpt>
      <trkpt lat="45.08007" lon="5.5318">
        <ele>958.14</ele>
        <time>2019-08-28T07:23:26Z</time>
      </trkpt>
      <trkpt lat="45.08012" lon="5.53178">
        <ele>957.35</ele>
        <time>2019-08-28T07:23:27Z</time>
      </trkpt>
      <trkpt lat="45.08017" lon="5.53177">
        <ele>956.57</ele>
        <time>2019-08-28T07:23:28Z</time>
      </trkpt>
      <trkpt lat="45.08024" lon="5.53177">
        <ele>955.78</ele>
        <time>2019-08-28T07:23:29Z</time>
      </trkpt>
      <trkpt lat="45.08031" lon="5.53176">
        <ele>954.97</ele>
        <time>2019-08-28T07:23:30Z</time>
      </trkpt>
      <trkpt lat="45.08038" lon="5.53174">
        <ele>954.16</ele>
        <time>2019-08-28T07:23:31Z</time>
      </trkpt>
      <trkpt lat="45.08047" lon="5.53172">
        <ele>953.32</ele>
        <time>2019-08-28T07:23:32Z</time>
      </trkpt>
      <trkpt lat="45.08057" lon="5.5317">
        <ele>952.43</ele>
        <time>2019-08-28T07:23:33Z</time>
      </trkpt>
      <trkpt lat="45.0808" lon="5.53169">
        <ele>950.57</ele>
        <time>2019-08-28T07:23:35Z</time>
      </trkpt>
      <trkpt lat="45.08091" lon="5.53167">
        <ele>949.6</ele>
        <time>2019-08-28T07:23:36Z</time>
      </trkpt>
      <trkpt lat="45.08124" lon="5.53157">
        <ele>946.13</ele>
        <time>2019-08-28T07:23:39Z</time>
      </trkpt>
      <trkpt lat="45.08145" lon="5.53153">
        <ele>944.79</ele>
        <time>2019-08-28T07:23:41Z</time>
      </trkpt>
      <trkpt lat="45.08154" lon="5.53149">
        <ele>944.21</ele>
        <time>2019-08-28T07:23:42Z</time>
      </trkpt>
      <trkpt lat="45.08162" lon="5.53145">
        <ele>943.72</ele>
        <time>2019-08-28T07:23:43Z</time>
      </trkpt>
      <trkpt lat="45.08183" lon="5.53133">
        <ele>942.63</ele>
        <time>2019-08-28T07:23:46Z</time>
      </trkpt>
      <trkpt lat="45.08189" lon="5.53131">
        <ele>942.33</ele>
        <time>2019-08-28T07:23:47Z</time>
      </trkpt>
      <trkpt lat="45.08195" lon="5.53128">
        <ele>942.04</ele>
        <time>2019-08-28T07:23:48Z</time>
      </trkpt>
      <trkpt lat="45.082" lon="5.53125">
        <ele>941.76</ele>
        <time>2019-08-28T07:23:49Z</time>
      </trkpt>
      <trkpt lat="45.08205" lon="5.53123">
        <ele>941.5</ele>
        <time>2019-08-28T07:23:50Z</time>
      </trkpt>
      <trkpt lat="45.0821" lon="5.53121">
        <ele>941.27</ele>
        <time>2019-08-28T07:23:51Z</time>
      </trkpt>
      <trkpt lat="45.0824" lon="5.53111">
        <ele>940.28</ele>
        <time>2019-08-28T07:24:00Z</time>
      </trkpt>
      <trkpt lat="45.08272" lon="5.53094">
        <ele>939.88</ele>
        <time>2019-08-28T07:24:11Z</time>
      </trkpt>
      <trkpt lat="45.08305" lon="5.53079">
        <ele>940.2</ele>
        <time>2019-08-28T07:24:22Z</time>
      </trkpt>
      <trkpt lat="45.08337" lon="5.53067">
        <ele>940.12</ele>
        <time>2019-08-28T07:24:32Z</time>
      </trkpt>
      <trkpt lat="45.08371" lon="5.53037">
        <ele>939.87</ele>
        <time>2019-08-28T07:24:43Z</time>
      </trkpt>
      <trkpt lat="45.08371" lon="5.53032">
        <ele>939.87</ele>
        <time>2019-08-28T07:24:44Z</time>
      </trkpt>
      <trkpt lat="45.08373" lon="5.5303">
        <ele>939.88</ele>
        <time>2019-08-28T07:24:45Z</time>
      </trkpt>
      <trkpt lat="45.08375" lon="5.53027">
        <ele>939.92</ele>
        <time>2019-08-28T07:24:46Z</time>
      </trkpt>
      <trkpt lat="45.08378" lon="5.53025">
        <ele>939.97</ele>
        <time>2019-08-28T07:24:47Z</time>
      </trkpt>
      <trkpt lat="45.08378" lon="5.53021">
        <ele>940.02</ele>
        <time>2019-08-28T07:24:48Z</time>
      </trkpt>
      <trkpt lat="45.08379" lon="5.53018">
        <ele>940.06</ele>
        <time>2019-08-28T07:24:49Z</time>
      </trkpt>
      <trkpt lat="45.08381" lon="5.53015">
        <ele>940.11</ele>
        <time>2019-08-28T07:24:50Z</time>
      </trkpt>
      <trkpt lat="45.08382" lon="5.53011">
        <ele>940.17</ele>
        <time>2019-08-28T07:24:51Z</time>
      </trkpt>
      <trkpt lat="45.08384" lon="5.53009">
        <ele>940.17</ele>
        <time>2019-08-28T07:24:52Z</time>
      </trkpt>
      <trkpt lat="45.08387" lon="5.53007">
        <ele>940.21</ele>
        <time>2019-08-28T07:24:53Z</time>
      </trkpt>
      <trkpt lat="45.08389" lon="5.53005">
        <ele>940.23</ele>
        <time>2019-08-28T07:24:54Z</time>
      </trkpt>
      <trkpt lat="45.08396" lon="5.5299">
        <ele>940.32</ele>
        <time>2019-08-28T07:24:59Z</time>
      </trkpt>
      <trkpt lat="45.08399" lon="5.52987">
        <ele>940.32</ele>
        <time>2019-08-28T07:25:00Z</time>
      </trkpt>
      <trkpt lat="45.08402" lon="5.52983">
        <ele>940.32</ele>
        <time>2019-08-28T07:25:01Z</time>
      </trkpt>
      <trkpt lat="45.08412" lon="5.52971">
        <ele>940.23</ele>
        <time>2019-08-28T07:25:04Z</time>
      </trkpt>
      <trkpt lat="45.08417" lon="5.52957">
        <ele>940.11</ele>
        <time>2019-08-28T07:25:06Z</time>
      </trkpt>
      <trkpt lat="45.08419" lon="5.52948">
        <ele>940.02</ele>
        <time>2019-08-28T07:25:07Z</time>
      </trkpt>
      <trkpt lat="45.08425" lon="5.52929">
        <ele>939.7</ele>
        <time>2019-08-28T07:25:09Z</time>
      </trkpt>
      <trkpt lat="45.08426" lon="5.52917">
        <ele>939.5</ele>
        <time>2019-08-28T07:25:10Z</time>
      </trkpt>
      <trkpt lat="45.08428" lon="5.52908">
        <ele>939.32</ele>
        <time>2019-08-28T07:25:11Z</time>
      </trkpt>
      <trkpt lat="45.08432" lon="5.52901">
        <ele>939.13</ele>
        <time>2019-08-28T07:25:12Z</time>
      </trkpt>
      <trkpt lat="45.08434" lon="5.52894">
        <ele>938.96</ele>
        <time>2019-08-28T07:25:13Z</time>
      </trkpt>
      <trkpt lat="45.08453" lon="5.52868">
        <ele>939.28</ele>
        <time>2019-08-28T07:25:22Z</time>
      </trkpt>
      <trkpt lat="45.08458" lon="5.5285">
        <ele>939.48</ele>
        <time>2019-08-28T07:25:27Z</time>
      </trkpt>
      <trkpt lat="45.08456" lon="5.52846">
        <ele>939.39</ele>
        <time>2019-08-28T07:25:28Z</time>
      </trkpt>
      <trkpt lat="45.08453" lon="5.52821">
        <ele>938.8</ele>
        <time>2019-08-28T07:25:33Z</time>
      </trkpt>
      <trkpt lat="45.08454" lon="5.52815">
        <ele>938.62</ele>
        <time>2019-08-28T07:25:34Z</time>
      </trkpt>
      <trkpt lat="45.08453" lon="5.52809">
        <ele>938.46</ele>
        <time>2019-08-28T07:25:35Z</time>
      </trkpt>
      <trkpt lat="45.08439" lon="5.52772">
        <ele>937.82</ele>
        <time>2019-08-28T07:25:41Z</time>
      </trkpt>
      <trkpt lat="45.0844" lon="5.52766">
        <ele>937.73</ele>
        <time>2019-08-28T07:25:42Z</time>
      </trkpt>
      <trkpt lat="45.0844" lon="5.52761">
        <ele>937.57</ele>
        <time>2019-08-28T07:25:43Z</time>
      </trkpt>
      <trkpt lat="45.0844" lon="5.52756">
        <ele>937.51</ele>
        <time>2019-08-28T07:25:44Z</time>
      </trkpt>
      <trkpt lat="45.08464" lon="5.52655">
        <ele>936.64</ele>
        <time>2019-08-28T07:26:01Z</time>
      </trkpt>
      <trkpt lat="45.08475" lon="5.52606">
        <ele>936.26</ele>
        <time>2019-08-28T07:26:09Z</time>
      </trkpt>
      <trkpt lat="45.08495" lon="5.52569">
        <ele>935.79</ele>
        <time>2019-08-28T07:26:16Z</time>
      </trkpt>
      <trkpt lat="45.08506" lon="5.5254">
        <ele>935.54</ele>
        <time>2019-08-28T07:26:21Z</time>
      </trkpt>
      <trkpt lat="45.08528" lon="5.52519">
        <ele>935.37</ele>
        <time>2019-08-28T07:26:28Z</time>
      </trkpt>
      <trkpt lat="45.08539" lon="5.5252">
        <ele>935.68</ele>
        <time>2019-08-28T07:26:33Z</time>
      </trkpt>
      <trkpt lat="45.08547" lon="5.52483">
        <ele>936.83</ele>
        <time>2019-08-28T07:26:46Z</time>
      </trkpt>
      <trkpt lat="45.08549" lon="5.52483">
        <ele>936.88</ele>
        <time>2019-08-28T07:26:48Z</time>
      </trkpt>
      <trkpt lat="45.08566" lon="5.52448">
        <ele>937.04</ele>
        <time>2019-08-28T07:26:58Z</time>
      </trkpt>
      <trkpt lat="45.08582" lon="5.52385">
        <ele>937.08</ele>
        <time>2019-08-28T07:27:11Z</time>
      </trkpt>
      <trkpt lat="45.086" lon="5.52299">
        <ele>938.08</ele>
        <time>2019-08-28T07:27:29Z</time>
      </trkpt>
      <trkpt lat="45.08614" lon="5.52279">
        <ele>938.3</ele>
        <time>2019-08-28T07:27:35Z</time>
      </trkpt>
      <trkpt lat="45.08618" lon="5.52275">
        <ele>938.28</ele>
        <time>2019-08-28T07:27:36Z</time>
      </trkpt>
      <trkpt lat="45.08621" lon="5.5227">
        <ele>938.23</ele>
        <time>2019-08-28T07:27:37Z</time>
      </trkpt>
      <trkpt lat="45.08624" lon="5.52264">
        <ele>938.15</ele>
        <time>2019-08-28T07:27:38Z</time>
      </trkpt>
      <trkpt lat="45.08626" lon="5.52259">
        <ele>938.03</ele>
        <time>2019-08-28T07:27:39Z</time>
      </trkpt>
      <trkpt lat="45.08628" lon="5.52254">
        <ele>937.89</ele>
        <time>2019-08-28T07:27:40Z</time>
      </trkpt>
      <trkpt lat="45.08645" lon="5.5221">
        <ele>938.17</ele>
        <time>2019-08-28T07:27:54Z</time>
      </trkpt>
      <trkpt lat="45.08661" lon="5.52172">
        <ele>939.33</ele>
        <time>2019-08-28T07:28:07Z</time>
      </trkpt>
      <trkpt lat="45.08689" lon="5.52145">
        <ele>941.68</ele>
        <time>2019-08-28T07:28:22Z</time>
      </trkpt>
      <trkpt lat="45.08713" lon="5.52141">
        <ele>943.06</ele>
        <time>2019-08-28T07:28:36Z</time>
      </trkpt>
      <trkpt lat="45.08747" lon="5.52152">
        <ele>943.45</ele>
        <time>2019-08-28T07:28:50Z</time>
      </trkpt>
      <trkpt lat="45.08784" lon="5.52168">
        <ele>944.66</ele>
        <time>2019-08-28T07:29:05Z</time>
      </trkpt>
      <trkpt lat="45.08786" lon="5.52169">
        <ele>944.74</ele>
        <time>2019-08-28T07:29:06Z</time>
      </trkpt>
      <trkpt lat="45.08788" lon="5.52171">
        <ele>944.81</ele>
        <time>2019-08-28T07:29:07Z</time>
      </trkpt>
      <trkpt lat="45.0879" lon="5.52172">
        <ele>944.88</ele>
        <time>2019-08-28T07:29:08Z</time>
      </trkpt>
      <trkpt lat="45.08818" lon="5.522">
        <ele>945.28</ele>
        <time>2019-08-28T07:29:20Z</time>
      </trkpt>
      <trkpt lat="45.08824" lon="5.5221">
        <ele>945.32</ele>
        <time>2019-08-28T07:29:22Z</time>
      </trkpt>
      <trkpt lat="45.08826" lon="5.52216">
        <ele>945.32</ele>
        <time>2019-08-28T07:29:23Z</time>
      </trkpt>
      <trkpt lat="45.08834" lon="5.52232">
        <ele>944.87</ele>
        <time>2019-08-28T07:29:26Z</time>
      </trkpt>
      <trkpt lat="45.08838" lon="5.52237">
        <ele>944.7</ele>
        <time>2019-08-28T07:29:27Z</time>
      </trkpt>
      <trkpt lat="45.08842" lon="5.52242">
        <ele>944.55</ele>
        <time>2019-08-28T07:29:28Z</time>
      </trkpt>
      <trkpt lat="45.08847" lon="5.52248">
        <ele>944.35</ele>
        <time>2019-08-28T07:29:29Z</time>
      </trkpt>
      <trkpt lat="45.08851" lon="5.52254">
        <ele>944.1</ele>
        <time>2019-08-28T07:29:30Z</time>
      </trkpt>
      <trkpt lat="45.08856" lon="5.52262">
        <ele>943.83</ele>
        <time>2019-08-28T07:29:31Z</time>
      </trkpt>
      <trkpt lat="45.0886" lon="5.52269">
        <ele>943.54</ele>
        <time>2019-08-28T07:29:32Z</time>
      </trkpt>
      <trkpt lat="45.08877" lon="5.52298">
        <ele>942.25</ele>
        <time>2019-08-28T07:29:36Z</time>
      </trkpt>
      <trkpt lat="45.08882" lon="5.52304">
        <ele>941.98</ele>
        <time>2019-08-28T07:29:37Z</time>
      </trkpt>
      <trkpt lat="45.08918" lon="5.52336">
        <ele>940.55</ele>
        <time>2019-08-28T07:29:46Z</time>
      </trkpt>
      <trkpt lat="45.08939" lon="5.52365">
        <ele>940.97</ele>
        <time>2019-08-28T07:29:58Z</time>
      </trkpt>
      <trkpt lat="45.08955" lon="5.52385">
        <ele>940.36</ele>
        <time>2019-08-28T07:30:07Z</time>
      </trkpt>
      <trkpt lat="45.08994" lon="5.52412">
        <ele>939.55</ele>
        <time>2019-08-28T07:30:21Z</time>
      </trkpt>
      <trkpt lat="45.08995" lon="5.52413">
        <ele>939.58</ele>
        <time>2019-08-28T07:30:22Z</time>
      </trkpt>
      <trkpt lat="45.08997" lon="5.52413">
        <ele>939.98</ele>
        <time>2019-08-28T07:30:36Z</time>
      </trkpt>
      <trkpt lat="45.08998" lon="5.52411">
        <ele>939.93</ele>
        <time>2019-08-28T07:30:40Z</time>
      </trkpt>
      <trkpt lat="45.08997" lon="5.52411">
        <ele>940.24</ele>
        <time>2019-08-28T07:31:07Z</time>
      </trkpt>
      <trkpt lat="45.08997" lon="5.52418">
        <ele>940.39</ele>
        <time>2019-08-28T07:31:34Z</time>
      </trkpt>
      <trkpt lat="45.09" lon="5.52425">
        <ele>940.45</ele>
        <time>2019-08-28T07:31:57Z</time>
      </trkpt>
      <trkpt lat="45.08999" lon="5.52427">
        <ele>940.5</ele>
        <time>2019-08-28T07:32:00Z</time>
      </trkpt>
      <trkpt lat="45.09001" lon="5.52438">
        <ele>940.58</ele>
        <time>2019-08-28T07:32:33Z</time>
      </trkpt>
      <trkpt lat="45.09007" lon="5.52443">
        <ele>940.37</ele>
        <time>2019-08-28T07:32:51Z</time>
      </trkpt>
      <trkpt lat="45.0903" lon="5.52424">
        <ele>939.79</ele>
        <time>2019-08-28T07:33:01Z</time>
      </trkpt>
      <trkpt lat="45.09069" lon="5.52393">
        <ele>939.52</ele>
        <time>2019-08-28T07:33:14Z</time>
      </trkpt>
      <trkpt lat="45.09096" lon="5.52372">
        <ele>939.9</ele>
        <time>2019-08-28T07:33:24Z</time>
      </trkpt>
      <trkpt lat="45.09095" lon="5.52368">
        <ele>939.86</ele>
        <time>2019-08-28T07:33:26Z</time>
      </trkpt>
      <trkpt lat="45.09095" lon="5.52371">
        <ele>939.79</ele>
        <time>2019-08-28T07:33:29Z</time>
      </trkpt>
      <trkpt lat="45.09097" lon="5.52379">
        <ele>940.03</ele>
        <time>2019-08-28T07:33:33Z</time>
      </trkpt>
      <trkpt lat="45.09114" lon="5.52387">
        <ele>940.27</ele>
        <time>2019-08-28T07:33:39Z</time>
      </trkpt>
      <trkpt lat="45.09153" lon="5.52428">
        <ele>940.25</ele>
        <time>2019-08-28T07:33:51Z</time>
      </trkpt>
      <trkpt lat="45.09173" lon="5.52473">
        <ele>941.32</ele>
        <time>2019-08-28T07:34:03Z</time>
      </trkpt>
      <trkpt lat="45.09194" lon="5.52529">
        <ele>941.91</ele>
        <time>2019-08-28T07:34:16Z</time>
      </trkpt>
      <trkpt lat="45.09196" lon="5.52533">
        <ele>941.92</ele>
        <time>2019-08-28T07:34:17Z</time>
      </trkpt>
      <trkpt lat="45.092" lon="5.52535">
        <ele>941.92</ele>
        <time>2019-08-28T07:34:18Z</time>
      </trkpt>
      <trkpt lat="45.09203" lon="5.52535">
        <ele>941.92</ele>
        <time>2019-08-28T07:34:19Z</time>
      </trkpt>
      <trkpt lat="45.0922" lon="5.52538">
        <ele>942.14</ele>
        <time>2019-08-28T07:34:26Z</time>
      </trkpt>
      <trkpt lat="45.09225" lon="5.52592">
        <ele>941.84</ele>
        <time>2019-08-28T07:34:37Z</time>
      </trkpt>
      <trkpt lat="45.09226" lon="5.52614">
        <ele>941.87</ele>
        <time>2019-08-28T07:34:45Z</time>
      </trkpt>
      <trkpt lat="45.09228" lon="5.52613">
        <ele>941.9</ele>
        <time>2019-08-28T07:34:46Z</time>
      </trkpt>
      <trkpt lat="45.0923" lon="5.52612">
        <ele>941.94</ele>
        <time>2019-08-28T07:34:47Z</time>
      </trkpt>
      <trkpt lat="45.09235" lon="5.52609">
        <ele>941.99</ele>
        <time>2019-08-28T07:34:49Z</time>
      </trkpt>
      <trkpt lat="45.0927" lon="5.52618">
        <ele>942.49</ele>
        <time>2019-08-28T07:35:00Z</time>
      </trkpt>
      <trkpt lat="45.0929" lon="5.52643">
        <ele>943.41</ele>
        <time>2019-08-28T07:35:07Z</time>
      </trkpt>
      <trkpt lat="45.09325" lon="5.52662">
        <ele>944.88</ele>
        <time>2019-08-28T07:35:18Z</time>
      </trkpt>
      <trkpt lat="45.09346" lon="5.52667">
        <ele>948.09</ele>
        <time>2019-08-28T07:35:28Z</time>
      </trkpt>
      <trkpt lat="45.09366" lon="5.52666">
        <ele>950.49</ele>
        <time>2019-08-28T07:35:40Z</time>
      </trkpt>
      <trkpt lat="45.0938" lon="5.52671">
        <ele>951.16</ele>
        <time>2019-08-28T07:35:51Z</time>
      </trkpt>
      <trkpt lat="45.094" lon="5.52663">
        <ele>951.64</ele>
        <time>2019-08-28T07:36:05Z</time>
      </trkpt>
      <trkpt lat="45.09402" lon="5.5266">
        <ele>951.69</ele>
        <time>2019-08-28T07:36:07Z</time>
      </trkpt>
      <trkpt lat="45.09406" lon="5.52654">
        <ele>951.76</ele>
        <time>2019-08-28T07:36:11Z</time>
      </trkpt>
      <trkpt lat="45.09418" lon="5.52642">
        <ele>952.01</ele>
        <time>2019-08-28T07:36:19Z</time>
      </trkpt>
      <trkpt lat="45.0942" lon="5.5264">
        <ele>952.02</ele>
        <time>2019-08-28T07:36:20Z</time>
      </trkpt>
      <trkpt lat="45.09422" lon="5.52638">
        <ele>952.1</ele>
        <time>2019-08-28T07:36:21Z</time>
      </trkpt>
      <trkpt lat="45.09424" lon="5.52637">
        <ele>952.1</ele>
        <time>2019-08-28T07:36:22Z</time>
      </trkpt>
      <trkpt lat="45.09425" lon="5.52635">
        <ele>952.3</ele>
        <time>2019-08-28T07:36:23Z</time>
      </trkpt>
      <trkpt lat="45.09427" lon="5.52634">
        <ele>952.43</ele>
        <time>2019-08-28T07:36:24Z</time>
      </trkpt>
      <trkpt lat="45.09449" lon="5.52623">
        <ele>955.36</ele>
        <time>2019-08-28T07:36:37Z</time>
      </trkpt>
      <trkpt lat="45.09465" lon="5.52624">
        <ele>957.52</ele>
        <time>2019-08-28T07:36:48Z</time>
      </trkpt>
      <trkpt lat="45.09483" lon="5.52639">
        <ele>959.49</ele>
        <time>2019-08-28T07:37:01Z</time>
      </trkpt>
      <trkpt lat="45.09503" lon="5.52656">
        <ele>962.62</ele>
        <time>2019-08-28T07:37:20Z</time>
      </trkpt>
      <trkpt lat="45.09503" lon="5.52658">
        <ele>962.8</ele>
        <time>2019-08-28T07:37:21Z</time>
      </trkpt>
      <trkpt lat="45.09509" lon="5.52668">
        <ele>965.06</ele>
        <time>2019-08-28T07:37:34Z</time>
      </trkpt>
      <trkpt lat="45.09512" lon="5.52672">
        <ele>966.03</ele>
        <time>2019-08-28T07:37:39Z</time>
      </trkpt>
      <trkpt lat="45.0952" lon="5.52678">
        <ele>967.62</ele>
        <time>2019-08-28T07:37:49Z</time>
      </trkpt>
      <trkpt lat="45.09521" lon="5.52679">
        <ele>967.74</ele>
        <time>2019-08-28T07:37:50Z</time>
      </trkpt>
      <trkpt lat="45.09533" lon="5.52685">
        <ele>970.28</ele>
        <time>2019-08-28T07:38:09Z</time>
      </trkpt>
      <trkpt lat="45.09547" lon="5.52691">
        <ele>971.33</ele>
        <time>2019-08-28T07:38:25Z</time>
      </trkpt>
      <trkpt lat="45.09564" lon="5.52695">
        <ele>973.27</ele>
        <time>2019-08-28T07:38:40Z</time>
      </trkpt>
      <trkpt lat="45.09583" lon="5.52697">
        <ele>974.61</ele>
        <time>2019-08-28T07:38:57Z</time>
      </trkpt>
      <trkpt lat="45.09586" lon="5.52698">
        <ele>974.77</ele>
        <time>2019-08-28T07:39:15Z</time>
      </trkpt>
      <trkpt lat="45.0959" lon="5.52703">
        <ele>974.84</ele>
        <time>2019-08-28T07:39:46Z</time>
      </trkpt>
      <trkpt lat="45.09589" lon="5.52701">
        <ele>974.45</ele>
        <time>2019-08-28T07:40:16Z</time>
      </trkpt>
      <trkpt lat="45.09591" lon="5.52702">
        <ele>974.08</ele>
        <time>2019-08-28T07:40:55Z</time>
      </trkpt>
      <trkpt lat="45.09596" lon="5.52698">
        <ele>974.17</ele>
        <time>2019-08-28T07:41:20Z</time>
      </trkpt>
      <trkpt lat="45.09607" lon="5.5269">
        <ele>973.93</ele>
        <time>2019-08-28T07:41:23Z</time>
      </trkpt>
      <trkpt lat="45.09614" lon="5.52687">
        <ele>973.76</ele>
        <time>2019-08-28T07:41:24Z</time>
      </trkpt>
      <trkpt lat="45.09661" lon="5.52666">
        <ele>970.4</ele>
        <time>2019-08-28T07:41:31Z</time>
      </trkpt>
      <trkpt lat="45.09695" lon="5.52662">
        <ele>967.27</ele>
        <time>2019-08-28T07:41:36Z</time>
      </trkpt>
      <trkpt lat="45.09701" lon="5.52665">
        <ele>966.69</ele>
        <time>2019-08-28T07:41:37Z</time>
      </trkpt>
      <trkpt lat="45.09707" lon="5.52669">
        <ele>966.09</ele>
        <time>2019-08-28T07:41:38Z</time>
      </trkpt>
      <trkpt lat="45.09711" lon="5.52674">
        <ele>965.46</ele>
        <time>2019-08-28T07:41:39Z</time>
      </trkpt>
      <trkpt lat="45.09716" lon="5.52679">
        <ele>964.85</ele>
        <time>2019-08-28T07:41:40Z</time>
      </trkpt>
      <trkpt lat="45.09732" lon="5.527">
        <ele>961.75</ele>
        <time>2019-08-28T07:41:45Z</time>
      </trkpt>
      <trkpt lat="45.09738" lon="5.52714">
        <ele>960.57</ele>
        <time>2019-08-28T07:41:48Z</time>
      </trkpt>
      <trkpt lat="45.0974" lon="5.5272">
        <ele>960.2</ele>
        <time>2019-08-28T07:41:49Z</time>
      </trkpt>
      <trkpt lat="45.09744" lon="5.52727">
        <ele>959.79</ele>
        <time>2019-08-28T07:41:50Z</time>
      </trkpt>
      <trkpt lat="45.09754" lon="5.52744">
        <ele>958.56</ele>
        <time>2019-08-28T07:41:53Z</time>
      </trkpt>
      <trkpt lat="45.09777" lon="5.52764">
        <ele>956.41</ele>
        <time>2019-08-28T07:42:01Z</time>
      </trkpt>
      <trkpt lat="45.09777" lon="5.52765">
        <ele>955.87</ele>
        <time>2019-08-28T07:42:07Z</time>
      </trkpt>
      <trkpt lat="45.09775" lon="5.52764">
        <ele>955.76</ele>
        <time>2019-08-28T07:42:08Z</time>
      </trkpt>
      <trkpt lat="45.09773" lon="5.52763">
        <ele>955.68</ele>
        <time>2019-08-28T07:42:09Z</time>
      </trkpt>
      <trkpt lat="45.09766" lon="5.52758">
        <ele>955.5</ele>
        <time>2019-08-28T07:42:13Z</time>
      </trkpt>
      <trkpt lat="45.09765" lon="5.52756">
        <ele>955.47</ele>
        <time>2019-08-28T07:42:14Z</time>
      </trkpt>
      <trkpt lat="45.09749" lon="5.52728">
        <ele>956.02</ele>
        <time>2019-08-28T07:42:22Z</time>
      </trkpt>
      <trkpt lat="45.0975" lon="5.52721">
        <ele>957.14</ele>
        <time>2019-08-28T07:42:30Z</time>
      </trkpt>
      <trkpt lat="45.09746" lon="5.52726">
        <ele>957.45</ele>
        <time>2019-08-28T07:42:59Z</time>
      </trkpt>
      <trkpt lat="45.09744" lon="5.52729">
        <ele>957.51</ele>
        <time>2019-08-28T07:43:25Z</time>
      </trkpt>
      <trkpt lat="45.09745" lon="5.5272">
        <ele>956.97</ele>
        <time>2019-08-28T07:43:53Z</time>
      </trkpt>
      <trkpt lat="45.09746" lon="5.52722">
        <ele>956.75</ele>
        <time>2019-08-28T07:44:20Z</time>
      </trkpt>
      <trkpt lat="45.09755" lon="5.52717">
        <ele>956.25</ele>
        <time>2019-08-28T07:44:47Z</time>
      </trkpt>
      <trkpt lat="45.0976" lon="5.52725">
        <ele>956.29</ele>
        <time>2019-08-28T07:45:16Z</time>
      </trkpt>
      <trkpt lat="45.0976" lon="5.5272">
        <ele>955.92</ele>
        <time>2019-08-28T07:45:45Z</time>
      </trkpt>
      <trkpt lat="45.09752" lon="5.52724">
        <ele>955.61</ele>
        <time>2019-08-28T07:46:11Z</time>
      </trkpt>
      <trkpt lat="45.09751" lon="5.52725">
        <ele>955.16</ele>
        <time>2019-08-28T07:46:43Z</time>
      </trkpt>
      <trkpt lat="45.09749" lon="5.52724">
        <ele>954.89</ele>
        <time>2019-08-28T07:47:10Z</time>
      </trkpt>
      <trkpt lat="45.09745" lon="5.52722">
        <ele>954.65</ele>
        <time>2019-08-28T07:47:40Z</time>
      </trkpt>
      <trkpt lat="45.09758" lon="5.52723">
        <ele>954.36</ele>
        <time>2019-08-28T07:48:12Z</time>
      </trkpt>
      <trkpt lat="45.09765" lon="5.52722">
        <ele>954.07</ele>
        <time>2019-08-28T07:48:43Z</time>
      </trkpt>
      <trkpt lat="45.09758" lon="5.5272">
        <ele>953.86</ele>
        <time>2019-08-28T07:49:14Z</time>
      </trkpt>
      <trkpt lat="45.0976" lon="5.52719">
        <ele>953.67</ele>
        <time>2019-08-28T07:49:43Z</time>
      </trkpt>
      <trkpt lat="45.09758" lon="5.52715">
        <ele>953.41</ele>
        <time>2019-08-28T07:50:18Z</time>
      </trkpt>
      <trkpt lat="45.09754" lon="5.52716">
        <ele>952.98</ele>
        <time>2019-08-28T07:50:50Z</time>
      </trkpt>
      <trkpt lat="45.09752" lon="5.5272">
        <ele>952.83</ele>
        <time>2019-08-28T07:51:19Z</time>
      </trkpt>
      <trkpt lat="45.09756" lon="5.52721">
        <ele>952.65</ele>
        <time>2019-08-28T07:51:50Z</time>
      </trkpt>
      <trkpt lat="45.0976" lon="5.52723">
        <ele>952.33</ele>
        <time>2019-08-28T07:52:24Z</time>
      </trkpt>
      <trkpt lat="45.09748" lon="5.52723">
        <ele>952.23</ele>
        <time>2019-08-28T07:52:51Z</time>
      </trkpt>
      <trkpt lat="45.09751" lon="5.52726">
        <ele>952.03</ele>
        <time>2019-08-28T07:53:06Z</time>
      </trkpt>
      <trkpt lat="45.09751" lon="5.52728">
        <ele>952.02</ele>
        <time>2019-08-28T07:53:07Z</time>
      </trkpt>
      <trkpt lat="45.09771" lon="5.52759">
        <ele>951.03</ele>
        <time>2019-08-28T07:53:18Z</time>
      </trkpt>
      <trkpt lat="45.09798" lon="5.52765">
        <ele>950.2</ele>
        <time>2019-08-28T07:53:26Z</time>
      </trkpt>
      <trkpt lat="45.0983" lon="5.52742">
        <ele>950.03</ele>
        <time>2019-08-28T07:53:38Z</time>
      </trkpt>
      <trkpt lat="45.09852" lon="5.52708">
        <ele>950.25</ele>
        <time>2019-08-28T07:53:49Z</time>
      </trkpt>
      <trkpt lat="45.09872" lon="5.52636">
        <ele>950.34</ele>
        <time>2019-08-28T07:54:05Z</time>
      </trkpt>
      <trkpt lat="45.09877" lon="5.52616">
        <ele>950.33</ele>
        <time>2019-08-28T07:54:12Z</time>
      </trkpt>
      <trkpt lat="45.09876" lon="5.52614">
        <ele>950.31</ele>
        <time>2019-08-28T07:54:13Z</time>
      </trkpt>
      <trkpt lat="45.09875" lon="5.52613">
        <ele>950.31</ele>
        <time>2019-08-28T07:54:14Z</time>
      </trkpt>
      <trkpt lat="45.09873" lon="5.52609">
        <ele>950.35</ele>
        <time>2019-08-28T07:54:16Z</time>
      </trkpt>
      <trkpt lat="45.09873" lon="5.52607">
        <ele>950.37</ele>
        <time>2019-08-28T07:54:17Z</time>
      </trkpt>
      <trkpt lat="45.09873" lon="5.52606">
        <ele>950.35</ele>
        <time>2019-08-28T07:54:18Z</time>
      </trkpt>
      <trkpt lat="45.09874" lon="5.52564">
        <ele>948.09</ele>
        <time>2019-08-28T07:54:30Z</time>
      </trkpt>
      <trkpt lat="45.09878" lon="5.52536">
        <ele>945.6</ele>
        <time>2019-08-28T07:54:35Z</time>
      </trkpt>
      <trkpt lat="45.09884" lon="5.52523">
        <ele>944.11</ele>
        <time>2019-08-28T07:54:38Z</time>
      </trkpt>
      <trkpt lat="45.09894" lon="5.52492">
        <ele>942.86</ele>
        <time>2019-08-28T07:54:46Z</time>
      </trkpt>
      <trkpt lat="45.09897" lon="5.52483">
        <ele>942.73</ele>
        <time>2019-08-28T07:54:49Z</time>
      </trkpt>
      <trkpt lat="45.09898" lon="5.5248">
        <ele>942.7</ele>
        <time>2019-08-28T07:54:50Z</time>
      </trkpt>
      <trkpt lat="45.099" lon="5.52478">
        <ele>942.68</ele>
        <time>2019-08-28T07:54:51Z</time>
      </trkpt>
      <trkpt lat="45.099" lon="5.52475">
        <ele>942.67</ele>
        <time>2019-08-28T07:54:52Z</time>
      </trkpt>
      <trkpt lat="45.09902" lon="5.52474">
        <ele>942.67</ele>
        <time>2019-08-28T07:54:53Z</time>
      </trkpt>
      <trkpt lat="45.09903" lon="5.52474">
        <ele>942.67</ele>
        <time>2019-08-28T07:54:54Z</time>
      </trkpt>
      <trkpt lat="45.09922" lon="5.52475">
        <ele>942.84</ele>
        <time>2019-08-28T07:55:03Z</time>
      </trkpt>
      <trkpt lat="45.09943" lon="5.5249">
        <ele>943.01</ele>
        <time>2019-08-28T07:55:12Z</time>
      </trkpt>
      <trkpt lat="45.09945" lon="5.5249">
        <ele>943.09</ele>
        <time>2019-08-28T07:55:13Z</time>
      </trkpt>
      <trkpt lat="45.09947" lon="5.5249">
        <ele>943.16</ele>
        <time>2019-08-28T07:55:14Z</time>
      </trkpt>
      <trkpt lat="45.09949" lon="5.52489">
        <ele>943.22</ele>
        <time>2019-08-28T07:55:15Z</time>
      </trkpt>
      <trkpt lat="45.09952" lon="5.52489">
        <ele>943.26</ele>
        <time>2019-08-28T07:55:16Z</time>
      </trkpt>
      <trkpt lat="45.09987" lon="5.52492">
        <ele>944.3</ele>
        <time>2019-08-28T07:55:26Z</time>
      </trkpt>
      <trkpt lat="45.09999" lon="5.52491">
        <ele>945.58</ele>
        <time>2019-08-28T07:55:31Z</time>
      </trkpt>
      <trkpt lat="45.10004" lon="5.52495">
        <ele>946.98</ele>
        <time>2019-08-28T07:55:35Z</time>
      </trkpt>
      <trkpt lat="45.10016" lon="5.52515">
        <ele>948.35</ele>
        <time>2019-08-28T07:55:43Z</time>
      </trkpt>
      <trkpt lat="45.10025" lon="5.52524">
        <ele>948.98</ele>
        <time>2019-08-28T07:55:47Z</time>
      </trkpt>
      <trkpt lat="45.10036" lon="5.5254">
        <ele>950.7</ele>
        <time>2019-08-28T07:55:57Z</time>
      </trkpt>
      <trkpt lat="45.10044" lon="5.52549">
        <ele>951.93</ele>
        <time>2019-08-28T07:56:04Z</time>
      </trkpt>
      <trkpt lat="45.10048" lon="5.5256">
        <ele>953.2</ele>
        <time>2019-08-28T07:56:10Z</time>
      </trkpt>
      <trkpt lat="45.10049" lon="5.52568">
        <ele>953.79</ele>
        <time>2019-08-28T07:56:14Z</time>
      </trkpt>
      <trkpt lat="45.10064" lon="5.52601">
        <ele>955.19</ele>
        <time>2019-08-28T07:56:29Z</time>
      </trkpt>
      <trkpt lat="45.10079" lon="5.52627">
        <ele>955.98</ele>
        <time>2019-08-28T07:56:41Z</time>
      </trkpt>
      <trkpt lat="45.1008" lon="5.52629">
        <ele>956.04</ele>
        <time>2019-08-28T07:56:42Z</time>
      </trkpt>
      <trkpt lat="45.10085" lon="5.5264">
        <ele>956.47</ele>
        <time>2019-08-28T07:56:47Z</time>
      </trkpt>
      <trkpt lat="45.10093" lon="5.52656">
        <ele>957.1</ele>
        <time>2019-08-28T07:56:54Z</time>
      </trkpt>
      <trkpt lat="45.10096" lon="5.52666">
        <ele>957.72</ele>
        <time>2019-08-28T07:56:58Z</time>
      </trkpt>
      <trkpt lat="45.10112" lon="5.52699">
        <ele>959.33</ele>
        <time>2019-08-28T07:57:10Z</time>
      </trkpt>
      <trkpt lat="45.10115" lon="5.52703">
        <ele>959.55</ele>
        <time>2019-08-28T07:57:12Z</time>
      </trkpt>
      <trkpt lat="45.10119" lon="5.52709">
        <ele>959.83</ele>
        <time>2019-08-28T07:57:16Z</time>
      </trkpt>
      <trkpt lat="45.10123" lon="5.52716">
        <ele>960.44</ele>
        <time>2019-08-28T07:57:21Z</time>
      </trkpt>
      <trkpt lat="45.10128" lon="5.5272">
        <ele>960.81</ele>
        <time>2019-08-28T07:57:24Z</time>
      </trkpt>
      <trkpt lat="45.10135" lon="5.52728">
        <ele>961.29</ele>
        <time>2019-08-28T07:57:28Z</time>
      </trkpt>
      <trkpt lat="45.10148" lon="5.52735">
        <ele>962.12</ele>
        <time>2019-08-28T07:57:36Z</time>
      </trkpt>
      <trkpt lat="45.10155" lon="5.52734">
        <ele>962.26</ele>
        <time>2019-08-28T07:57:40Z</time>
      </trkpt>
      <trkpt lat="45.10168" lon="5.52728">
        <ele>962.88</ele>
        <time>2019-08-28T07:57:48Z</time>
      </trkpt>
      <trkpt lat="45.10178" lon="5.52721">
        <ele>963.85</ele>
        <time>2019-08-28T07:57:55Z</time>
      </trkpt>
      <trkpt lat="45.10192" lon="5.52708">
        <ele>966.06</ele>
        <time>2019-08-28T07:58:06Z</time>
      </trkpt>
      <trkpt lat="45.102" lon="5.52701">
        <ele>967.28</ele>
        <time>2019-08-28T07:58:12Z</time>
      </trkpt>
      <trkpt lat="45.10211" lon="5.52672">
        <ele>969.39</ele>
        <time>2019-08-28T07:58:27Z</time>
      </trkpt>
      <trkpt lat="45.1021" lon="5.5267">
        <ele>969.44</ele>
        <time>2019-08-28T07:58:28Z</time>
      </trkpt>
      <trkpt lat="45.10212" lon="5.52659">
        <ele>969.43</ele>
        <time>2019-08-28T07:58:31Z</time>
      </trkpt>
      <trkpt lat="45.10223" lon="5.52646">
        <ele>969.33</ele>
        <time>2019-08-28T07:58:38Z</time>
      </trkpt>
      <trkpt lat="45.10227" lon="5.52642">
        <ele>969.36</ele>
        <time>2019-08-28T07:58:41Z</time>
      </trkpt>
      <trkpt lat="45.10254" lon="5.52627">
        <ele>967.79</ele>
        <time>2019-08-28T07:58:51Z</time>
      </trkpt>
      <trkpt lat="45.10262" lon="5.52627">
        <ele>967.16</ele>
        <time>2019-08-28T07:58:53Z</time>
      </trkpt>
      <trkpt lat="45.1027" lon="5.52629">
        <ele>966.48</ele>
        <time>2019-08-28T07:58:55Z</time>
      </trkpt>
      <trkpt lat="45.10291" lon="5.52641">
        <ele>964.66</ele>
        <time>2019-08-28T07:58:59Z</time>
      </trkpt>
      <trkpt lat="45.1031" lon="5.52659">
        <ele>963.51</ele>
        <time>2019-08-28T07:59:02Z</time>
      </trkpt>
      <trkpt lat="45.10316" lon="5.52662">
        <ele>963.14</ele>
        <time>2019-08-28T07:59:03Z</time>
      </trkpt>
      <trkpt lat="45.10322" lon="5.52663">
        <ele>962.79</ele>
        <time>2019-08-28T07:59:04Z</time>
      </trkpt>
      <trkpt lat="45.10329" lon="5.52665">
        <ele>962.47</ele>
        <time>2019-08-28T07:59:05Z</time>
      </trkpt>
      <trkpt lat="45.10334" lon="5.52664">
        <ele>962.18</ele>
        <time>2019-08-28T07:59:06Z</time>
      </trkpt>
      <trkpt lat="45.10339" lon="5.52663">
        <ele>961.91</ele>
        <time>2019-08-28T07:59:07Z</time>
      </trkpt>
      <trkpt lat="45.10345" lon="5.52663">
        <ele>961.65</ele>
        <time>2019-08-28T07:59:08Z</time>
      </trkpt>
      <trkpt lat="45.10352" lon="5.52662">
        <ele>961.4</ele>
        <time>2019-08-28T07:59:09Z</time>
      </trkpt>
      <trkpt lat="45.10358" lon="5.52661">
        <ele>961.18</ele>
        <time>2019-08-28T07:59:10Z</time>
      </trkpt>
      <trkpt lat="45.10363" lon="5.52658">
        <ele>960.98</ele>
        <time>2019-08-28T07:59:11Z</time>
      </trkpt>
      <trkpt lat="45.1037" lon="5.52657">
        <ele>960.78</ele>
        <time>2019-08-28T07:59:12Z</time>
      </trkpt>
      <trkpt lat="45.10379" lon="5.52659">
        <ele>960.52</ele>
        <time>2019-08-28T07:59:13Z</time>
      </trkpt>
      <trkpt lat="45.10386" lon="5.5266">
        <ele>960.22</ele>
        <time>2019-08-28T07:59:14Z</time>
      </trkpt>
      <trkpt lat="45.10394" lon="5.5266">
        <ele>959.89</ele>
        <time>2019-08-28T07:59:15Z</time>
      </trkpt>
      <trkpt lat="45.10409" lon="5.5266">
        <ele>959.25</ele>
        <time>2019-08-28T07:59:17Z</time>
      </trkpt>
      <trkpt lat="45.10448" lon="5.52661">
        <ele>957.37</ele>
        <time>2019-08-28T07:59:22Z</time>
      </trkpt>
      <trkpt lat="45.10454" lon="5.52661">
        <ele>956.85</ele>
        <time>2019-08-28T07:59:23Z</time>
      </trkpt>
      <trkpt lat="45.10462" lon="5.52665">
        <ele>956.66</ele>
        <time>2019-08-28T07:59:24Z</time>
      </trkpt>
      <trkpt lat="45.10468" lon="5.52666">
        <ele>956.51</ele>
        <time>2019-08-28T07:59:25Z</time>
      </trkpt>
      <trkpt lat="45.10474" lon="5.52666">
        <ele>956.4</ele>
        <time>2019-08-28T07:59:26Z</time>
      </trkpt>
      <trkpt lat="45.10484" lon="5.52667">
        <ele>956.25</ele>
        <time>2019-08-28T07:59:28Z</time>
      </trkpt>
      <trkpt lat="45.10493" lon="5.52668">
        <ele>956.14</ele>
        <time>2019-08-28T07:59:30Z</time>
      </trkpt>
      <trkpt lat="45.10498" lon="5.52669">
        <ele>956.09</ele>
        <time>2019-08-28T07:59:31Z</time>
      </trkpt>
      <trkpt lat="45.10507" lon="5.52672">
        <ele>955.98</ele>
        <time>2019-08-28T07:59:33Z</time>
      </trkpt>
      <trkpt lat="45.10526" lon="5.52681">
        <ele>956.37</ele>
        <time>2019-08-28T07:59:41Z</time>
      </trkpt>
      <trkpt lat="45.10528" lon="5.52682">
        <ele>956.61</ele>
        <time>2019-08-28T07:59:42Z</time>
      </trkpt>
      <trkpt lat="45.1053" lon="5.52682">
        <ele>956.87</ele>
        <time>2019-08-28T07:59:43Z</time>
      </trkpt>
      <trkpt lat="45.10531" lon="5.52682">
        <ele>957.15</ele>
        <time>2019-08-28T07:59:44Z</time>
      </trkpt>
      <trkpt lat="45.10533" lon="5.5268">
        <ele>957.4</ele>
        <time>2019-08-28T07:59:45Z</time>
      </trkpt>
      <trkpt lat="45.10535" lon="5.52678">
        <ele>957.61</ele>
        <time>2019-08-28T07:59:46Z</time>
      </trkpt>
      <trkpt lat="45.10538" lon="5.52677">
        <ele>957.8</ele>
        <time>2019-08-28T07:59:47Z</time>
      </trkpt>
      <trkpt lat="45.1054" lon="5.52677">
        <ele>958.1</ele>
        <time>2019-08-28T07:59:48Z</time>
      </trkpt>
      <trkpt lat="45.10546" lon="5.52678">
        <ele>958.39</ele>
        <time>2019-08-28T07:59:50Z</time>
      </trkpt>
      <trkpt lat="45.10547" lon="5.52678">
        <ele>958.53</ele>
        <time>2019-08-28T07:59:51Z</time>
      </trkpt>
      <trkpt lat="45.10549" lon="5.52679">
        <ele>958.68</ele>
        <time>2019-08-28T07:59:52Z</time>
      </trkpt>
      <trkpt lat="45.10551" lon="5.5268">
        <ele>958.82</ele>
        <time>2019-08-28T07:59:53Z</time>
      </trkpt>
      <trkpt lat="45.10553" lon="5.52682">
        <ele>958.95</ele>
        <time>2019-08-28T07:59:54Z</time>
      </trkpt>
      <trkpt lat="45.10556" lon="5.52681">
        <ele>959.17</ele>
        <time>2019-08-28T07:59:56Z</time>
      </trkpt>
      <trkpt lat="45.10557" lon="5.52681">
        <ele>959.26</ele>
        <time>2019-08-28T07:59:57Z</time>
      </trkpt>
      <trkpt lat="45.10559" lon="5.52682">
        <ele>959.37</ele>
        <time>2019-08-28T07:59:58Z</time>
      </trkpt>
      <trkpt lat="45.10562" lon="5.52682">
        <ele>959.47</ele>
        <time>2019-08-28T07:59:59Z</time>
      </trkpt>
      <trkpt lat="45.10565" lon="5.52684">
        <ele>959.54</ele>
        <time>2019-08-28T08:00:00Z</time>
      </trkpt>
      <trkpt lat="45.10571" lon="5.5269">
        <ele>959.74</ele>
        <time>2019-08-28T08:00:03Z</time>
      </trkpt>
      <trkpt lat="45.10573" lon="5.52693">
        <ele>959.79</ele>
        <time>2019-08-28T08:00:04Z</time>
      </trkpt>
      <trkpt lat="45.10576" lon="5.52695">
        <ele>959.83</ele>
        <time>2019-08-28T08:00:05Z</time>
      </trkpt>
      <trkpt lat="45.10578" lon="5.52699">
        <ele>959.95</ele>
        <time>2019-08-28T08:00:07Z</time>
      </trkpt>
      <trkpt lat="45.10583" lon="5.52705">
        <ele>960.09</ele>
        <time>2019-08-28T08:00:09Z</time>
      </trkpt>
      <trkpt lat="45.10584" lon="5.5273">
        <ele>962.78</ele>
        <time>2019-08-28T08:00:21Z</time>
      </trkpt>
      <trkpt lat="45.1057" lon="5.5277">
        <ele>964.62</ele>
        <time>2019-08-28T08:00:36Z</time>
      </trkpt>
      <trkpt lat="45.1056" lon="5.52798">
        <ele>965.19</ele>
        <time>2019-08-28T08:00:46Z</time>
      </trkpt>
      <trkpt lat="45.10549" lon="5.52823">
        <ele>967.11</ele>
        <time>2019-08-28T08:00:57Z</time>
      </trkpt>
      <trkpt lat="45.1054" lon="5.52844">
        <ele>970.14</ele>
        <time>2019-08-28T08:01:08Z</time>
      </trkpt>
      <trkpt lat="45.1054" lon="5.52846">
        <ele>970.36</ele>
        <time>2019-08-28T08:01:09Z</time>
      </trkpt>
      <trkpt lat="45.10542" lon="5.52878">
        <ele>972.3</ele>
        <time>2019-08-28T08:01:24Z</time>
      </trkpt>
      <trkpt lat="45.10543" lon="5.5288">
        <ele>972.39</ele>
        <time>2019-08-28T08:01:25Z</time>
      </trkpt>
      <trkpt lat="45.10558" lon="5.52893">
        <ele>973.18</ele>
        <time>2019-08-28T08:01:35Z</time>
      </trkpt>
      <trkpt lat="45.1056" lon="5.52893">
        <ele>973.21</ele>
        <time>2019-08-28T08:01:36Z</time>
      </trkpt>
      <trkpt lat="45.10581" lon="5.52883">
        <ele>973.07</ele>
        <time>2019-08-28T08:01:43Z</time>
      </trkpt>
      <trkpt lat="45.10604" lon="5.52869">
        <ele>971.86</ele>
        <time>2019-08-28T08:01:47Z</time>
      </trkpt>
      <trkpt lat="45.10642" lon="5.52869">
        <ele>969.18</ele>
        <time>2019-08-28T08:01:52Z</time>
      </trkpt>
      <trkpt lat="45.10677" lon="5.52877">
        <ele>967.6</ele>
        <time>2019-08-28T08:01:57Z</time>
      </trkpt>
      <trkpt lat="45.10698" lon="5.52887">
        <ele>967.01</ele>
        <time>2019-08-28T08:02:02Z</time>
      </trkpt>
      <trkpt lat="45.10715" lon="5.52893">
        <ele>966.73</ele>
        <time>2019-08-28T08:02:05Z</time>
      </trkpt>
      <trkpt lat="45.10736" lon="5.52906">
        <ele>966.1</ele>
        <time>2019-08-28T08:02:09Z</time>
      </trkpt>
      <trkpt lat="45.10754" lon="5.52919">
        <ele>965.08</ele>
        <time>2019-08-28T08:02:13Z</time>
      </trkpt>
      <trkpt lat="45.10789" lon="5.52944">
        <ele>961.26</ele>
        <time>2019-08-28T08:02:22Z</time>
      </trkpt>
      <trkpt lat="45.10794" lon="5.52951">
        <ele>959.7</ele>
        <time>2019-08-28T08:02:24Z</time>
      </trkpt>
      <trkpt lat="45.10804" lon="5.52973">
        <ele>957.07</ele>
        <time>2019-08-28T08:02:36Z</time>
      </trkpt>
      <trkpt lat="45.10812" lon="5.52975">
        <ele>957.92</ele>
        <time>2019-08-28T08:02:50Z</time>
      </trkpt>
      <trkpt lat="45.10811" lon="5.52972">
        <ele>958.15</ele>
        <time>2019-08-28T08:03:15Z</time>
      </trkpt>
      <trkpt lat="45.10815" lon="5.5297">
        <ele>958.31</ele>
        <time>2019-08-28T08:03:25Z</time>
      </trkpt>
      <trkpt lat="45.10815" lon="5.52961">
        <ele>958.17</ele>
        <time>2019-08-28T08:03:53Z</time>
      </trkpt>
      <trkpt lat="45.10819" lon="5.52956">
        <ele>958.05</ele>
        <time>2019-08-28T08:04:17Z</time>
      </trkpt>
      <trkpt lat="45.10827" lon="5.52955">
        <ele>957.76</ele>
        <time>2019-08-28T08:04:22Z</time>
      </trkpt>
      <trkpt lat="45.10855" lon="5.52934">
        <ele>957.03</ele>
        <time>2019-08-28T08:04:34Z</time>
      </trkpt>
      <trkpt lat="45.10867" lon="5.5293">
        <ele>958.1</ele>
        <time>2019-08-28T08:04:40Z</time>
      </trkpt>
      <trkpt lat="45.1087" lon="5.5293">
        <ele>958.34</ele>
        <time>2019-08-28T08:04:41Z</time>
      </trkpt>
      <trkpt lat="45.10872" lon="5.5293">
        <ele>958.87</ele>
        <time>2019-08-28T08:04:42Z</time>
      </trkpt>
      <trkpt lat="45.10906" lon="5.52938">
        <ele>959.94</ele>
        <time>2019-08-28T08:04:54Z</time>
      </trkpt>
      <trkpt lat="45.1094" lon="5.52952">
        <ele>959.93</ele>
        <time>2019-08-28T08:05:05Z</time>
      </trkpt>
      <trkpt lat="45.10969" lon="5.52966">
        <ele>959.96</ele>
        <time>2019-08-28T08:05:14Z</time>
      </trkpt>
      <trkpt lat="45.11002" lon="5.52983">
        <ele>959.92</ele>
        <time>2019-08-28T08:05:23Z</time>
      </trkpt>
      <trkpt lat="45.11037" lon="5.53">
        <ele>960.08</ele>
        <time>2019-08-28T08:05:35Z</time>
      </trkpt>
      <trkpt lat="45.11064" lon="5.53015">
        <ele>960.35</ele>
        <time>2019-08-28T08:05:45Z</time>
      </trkpt>
      <trkpt lat="45.11097" lon="5.53034">
        <ele>960.61</ele>
        <time>2019-08-28T08:05:58Z</time>
      </trkpt>
      <trkpt lat="45.11129" lon="5.53053">
        <ele>960.76</ele>
        <time>2019-08-28T08:06:10Z</time>
      </trkpt>
      <trkpt lat="45.11161" lon="5.53072">
        <ele>961.15</ele>
        <time>2019-08-28T08:06:23Z</time>
      </trkpt>
      <trkpt lat="45.11197" lon="5.5309">
        <ele>961.27</ele>
        <time>2019-08-28T08:06:37Z</time>
      </trkpt>
      <trkpt lat="45.11209" lon="5.53096">
        <ele>961.36</ele>
        <time>2019-08-28T08:06:51Z</time>
      </trkpt>
      <trkpt lat="45.11209" lon="5.53095">
        <ele>961.53</ele>
        <time>2019-08-28T08:07:22Z</time>
      </trkpt>
      <trkpt lat="45.11211" lon="5.53102">
        <ele>961.68</ele>
        <time>2019-08-28T08:07:34Z</time>
      </trkpt>
      <trkpt lat="45.11213" lon="5.53104">
        <ele>961.78</ele>
        <time>2019-08-28T08:07:36Z</time>
      </trkpt>
      <trkpt lat="45.11215" lon="5.53104">
        <ele>961.8</ele>
        <time>2019-08-28T08:07:37Z</time>
      </trkpt>
      <trkpt lat="45.11228" lon="5.53105">
        <ele>961.6</ele>
        <time>2019-08-28T08:07:46Z</time>
      </trkpt>
      <trkpt lat="45.1123" lon="5.53103">
        <ele>961.56</ele>
        <time>2019-08-28T08:07:47Z</time>
      </trkpt>
      <trkpt lat="45.11231" lon="5.53097">
        <ele>961.53</ele>
        <time>2019-08-28T08:07:48Z</time>
      </trkpt>
      <trkpt lat="45.1123" lon="5.53091">
        <ele>961.5</ele>
        <time>2019-08-28T08:07:49Z</time>
      </trkpt>
      <trkpt lat="45.11229" lon="5.53084">
        <ele>961.47</ele>
        <time>2019-08-28T08:07:50Z</time>
      </trkpt>
      <trkpt lat="45.11228" lon="5.53077">
        <ele>961.39</ele>
        <time>2019-08-28T08:07:51Z</time>
      </trkpt>
      <trkpt lat="45.11227" lon="5.5307">
        <ele>961.24</ele>
        <time>2019-08-28T08:07:52Z</time>
      </trkpt>
      <trkpt lat="45.11227" lon="5.53063">
        <ele>961.03</ele>
        <time>2019-08-28T08:07:53Z</time>
      </trkpt>
      <trkpt lat="45.11229" lon="5.53057">
        <ele>960.8</ele>
        <time>2019-08-28T08:07:54Z</time>
      </trkpt>
      <trkpt lat="45.11232" lon="5.53053">
        <ele>960.54</ele>
        <time>2019-08-28T08:07:55Z</time>
      </trkpt>
      <trkpt lat="45.11235" lon="5.5305">
        <ele>960.28</ele>
        <time>2019-08-28T08:07:56Z</time>
      </trkpt>
      <trkpt lat="45.11238" lon="5.53048">
        <ele>960.04</ele>
        <time>2019-08-28T08:07:57Z</time>
      </trkpt>
      <trkpt lat="45.1124" lon="5.53047">
        <ele>959.83</ele>
        <time>2019-08-28T08:07:58Z</time>
      </trkpt>
      <trkpt lat="45.11243" lon="5.53047">
        <ele>959.54</ele>
        <time>2019-08-28T08:07:59Z</time>
      </trkpt>
      <trkpt lat="45.11246" lon="5.53047">
        <ele>959.46</ele>
        <time>2019-08-28T08:08:00Z</time>
      </trkpt>
      <trkpt lat="45.11249" lon="5.53048">
        <ele>959.43</ele>
        <time>2019-08-28T08:08:01Z</time>
      </trkpt>
      <trkpt lat="45.11251" lon="5.53048">
        <ele>959.45</ele>
        <time>2019-08-28T08:08:02Z</time>
      </trkpt>
      <trkpt lat="45.11253" lon="5.53049">
        <ele>959.52</ele>
        <time>2019-08-28T08:08:03Z</time>
      </trkpt>
      <trkpt lat="45.1128" lon="5.53062">
        <ele>961.07</ele>
        <time>2019-08-28T08:08:19Z</time>
      </trkpt>
      <trkpt lat="45.11326" lon="5.53089">
        <ele>960.6</ele>
        <time>2019-08-28T08:08:36Z</time>
      </trkpt>
      <trkpt lat="45.11365" lon="5.53117">
        <ele>960.03</ele>
        <time>2019-08-28T08:08:49Z</time>
      </trkpt>
      <trkpt lat="45.11405" lon="5.53122">
        <ele>960.27</ele>
        <time>2019-08-28T08:09:01Z</time>
      </trkpt>
      <trkpt lat="45.11449" lon="5.53129">
        <ele>960.56</ele>
        <time>2019-08-28T08:09:13Z</time>
      </trkpt>
      <trkpt lat="45.11499" lon="5.53135">
        <ele>961.57</ele>
        <time>2019-08-28T08:09:29Z</time>
      </trkpt>
      <trkpt lat="45.11535" lon="5.53131">
        <ele>963.61</ele>
        <time>2019-08-28T08:09:43Z</time>
      </trkpt>
      <trkpt lat="45.11569" lon="5.53133">
        <ele>965.52</ele>
        <time>2019-08-28T08:09:58Z</time>
      </trkpt>
      <trkpt lat="45.11582" lon="5.53135">
        <ele>966.5</ele>
        <time>2019-08-28T08:10:05Z</time>
      </trkpt>
      <trkpt lat="45.11584" lon="5.53135">
        <ele>966.62</ele>
        <time>2019-08-28T08:10:06Z</time>
      </trkpt>
      <trkpt lat="45.11586" lon="5.53135">
        <ele>966.73</ele>
        <time>2019-08-28T08:10:07Z</time>
      </trkpt>
      <trkpt lat="45.11612" lon="5.53137">
        <ele>968.25</ele>
        <time>2019-08-28T08:10:23Z</time>
      </trkpt>
      <trkpt lat="45.11615" lon="5.53139">
        <ele>968.48</ele>
        <time>2019-08-28T08:10:26Z</time>
      </trkpt>
      <trkpt lat="45.1162" lon="5.53142">
        <ele>968.62</ele>
        <time>2019-08-28T08:10:32Z</time>
      </trkpt>
      <trkpt lat="45.11628" lon="5.53146">
        <ele>968.54</ele>
        <time>2019-08-28T08:10:37Z</time>
      </trkpt>
      <trkpt lat="45.1163" lon="5.53147">
        <ele>968.53</ele>
        <time>2019-08-28T08:10:38Z</time>
      </trkpt>
      <trkpt lat="45.11631" lon="5.53147">
        <ele>968.52</ele>
        <time>2019-08-28T08:10:39Z</time>
      </trkpt>
      <trkpt lat="45.11633" lon="5.53147">
        <ele>968.5</ele>
        <time>2019-08-28T08:10:40Z</time>
      </trkpt>
      <trkpt lat="45.11634" lon="5.53147">
        <ele>968.49</ele>
        <time>2019-08-28T08:10:41Z</time>
      </trkpt>
      <trkpt lat="45.11636" lon="5.53146">
        <ele>968.48</ele>
        <time>2019-08-28T08:10:42Z</time>
      </trkpt>
      <trkpt lat="45.11638" lon="5.53144">
        <ele>968.46</ele>
        <time>2019-08-28T08:10:43Z</time>
      </trkpt>
      <trkpt lat="45.11639" lon="5.53143">
        <ele>968.43</ele>
        <time>2019-08-28T08:10:44Z</time>
      </trkpt>
      <trkpt lat="45.11641" lon="5.53143">
        <ele>968.37</ele>
        <time>2019-08-28T08:10:45Z</time>
      </trkpt>
      <trkpt lat="45.11644" lon="5.53143">
        <ele>968.3</ele>
        <time>2019-08-28T08:10:46Z</time>
      </trkpt>
      <trkpt lat="45.11646" lon="5.53142">
        <ele>968.21</ele>
        <time>2019-08-28T08:10:47Z</time>
      </trkpt>
      <trkpt lat="45.11649" lon="5.53142">
        <ele>968.14</ele>
        <time>2019-08-28T08:10:48Z</time>
      </trkpt>
      <trkpt lat="45.11668" lon="5.53139">
        <ele>967.49</ele>
        <time>2019-08-28T08:10:54Z</time>
      </trkpt>
      <trkpt lat="45.11672" lon="5.53136">
        <ele>967.32</ele>
        <time>2019-08-28T08:10:55Z</time>
      </trkpt>
      <trkpt lat="45.11675" lon="5.53134">
        <ele>967.14</ele>
        <time>2019-08-28T08:10:56Z</time>
      </trkpt>
      <trkpt lat="45.1168" lon="5.53132">
        <ele>966.99</ele>
        <time>2019-08-28T08:10:57Z</time>
      </trkpt>
      <trkpt lat="45.11684" lon="5.5313">
        <ele>966.87</ele>
        <time>2019-08-28T08:10:58Z</time>
      </trkpt>
      <trkpt lat="45.11715" lon="5.53111">
        <ele>966.94</ele>
        <time>2019-08-28T08:11:10Z</time>
      </trkpt>
      <trkpt lat="45.11747" lon="5.53103">
        <ele>968.57</ele>
        <time>2019-08-28T08:11:23Z</time>
      </trkpt>
      <trkpt lat="45.11777" lon="5.53107">
        <ele>968.83</ele>
        <time>2019-08-28T08:11:35Z</time>
      </trkpt>
      <trkpt lat="45.11807" lon="5.53108">
        <ele>968.78</ele>
        <time>2019-08-28T08:11:47Z</time>
      </trkpt>
      <trkpt lat="45.11838" lon="5.53104">
        <ele>968.62</ele>
        <time>2019-08-28T08:11:58Z</time>
      </trkpt>
      <trkpt lat="45.11874" lon="5.531">
        <ele>968.75</ele>
        <time>2019-08-28T08:12:11Z</time>
      </trkpt>
      <trkpt lat="45.11911" lon="5.5309">
        <ele>969.63</ele>
        <time>2019-08-28T08:12:26Z</time>
      </trkpt>
      <trkpt lat="45.11934" lon="5.53056">
        <ele>970.85</ele>
        <time>2019-08-28T08:12:40Z</time>
      </trkpt>
      <trkpt lat="45.11967" lon="5.53031">
        <ele>972.7</ele>
        <time>2019-08-28T08:12:56Z</time>
      </trkpt>
      <trkpt lat="45.12006" lon="5.53033">
        <ele>974.41</ele>
        <time>2019-08-28T08:13:10Z</time>
      </trkpt>
      <trkpt lat="45.12074" lon="5.53023">
        <ele>972.09</ele>
        <time>2019-08-28T08:13:24Z</time>
      </trkpt>
      <trkpt lat="45.12079" lon="5.53022">
        <ele>971.82</ele>
        <time>2019-08-28T08:13:25Z</time>
      </trkpt>
      <trkpt lat="45.12117" lon="5.53027">
        <ele>971.82</ele>
        <time>2019-08-28T08:13:36Z</time>
      </trkpt>
      <trkpt lat="45.12155" lon="5.53025">
        <ele>971.82</ele>
        <time>2019-08-28T08:13:48Z</time>
      </trkpt>
      <trkpt lat="45.12189" lon="5.53033">
        <ele>973.04</ele>
        <time>2019-08-28T08:14:02Z</time>
      </trkpt>
      <trkpt lat="45.12228" lon="5.53039">
        <ele>974.6</ele>
        <time>2019-08-28T08:14:16Z</time>
      </trkpt>
      <trkpt lat="45.12265" lon="5.53029">
        <ele>973.47</ele>
        <time>2019-08-28T08:14:28Z</time>
      </trkpt>
      <trkpt lat="45.12292" lon="5.53012">
        <ele>975.68</ele>
        <time>2019-08-28T08:14:42Z</time>
      </trkpt>
      <trkpt lat="45.12297" lon="5.53005">
        <ele>977.21</ele>
        <time>2019-08-28T08:15:00Z</time>
      </trkpt>
      <trkpt lat="45.12295" lon="5.53001">
        <ele>977.35</ele>
        <time>2019-08-28T08:15:04Z</time>
      </trkpt>
      <trkpt lat="45.12293" lon="5.52993">
        <ele>977.53</ele>
        <time>2019-08-28T08:15:09Z</time>
      </trkpt>
      <trkpt lat="45.12292" lon="5.52992">
        <ele>977.61</ele>
        <time>2019-08-28T08:15:10Z</time>
      </trkpt>
      <trkpt lat="45.12291" lon="5.5299">
        <ele>977.7</ele>
        <time>2019-08-28T08:15:11Z</time>
      </trkpt>
      <trkpt lat="45.1229" lon="5.52988">
        <ele>977.83</ele>
        <time>2019-08-28T08:15:12Z</time>
      </trkpt>
      <trkpt lat="45.1229" lon="5.52987">
        <ele>977.98</ele>
        <time>2019-08-28T08:15:13Z</time>
      </trkpt>
      <trkpt lat="45.12289" lon="5.52985">
        <ele>978.13</ele>
        <time>2019-08-28T08:15:14Z</time>
      </trkpt>
      <trkpt lat="45.12288" lon="5.52984">
        <ele>978.27</ele>
        <time>2019-08-28T08:15:15Z</time>
      </trkpt>
      <trkpt lat="45.12287" lon="5.52983">
        <ele>978.4</ele>
        <time>2019-08-28T08:15:16Z</time>
      </trkpt>
      <trkpt lat="45.12286" lon="5.52982">
        <ele>978.52</ele>
        <time>2019-08-28T08:15:17Z</time>
      </trkpt>
      <trkpt lat="45.12285" lon="5.5298">
        <ele>978.64</ele>
        <time>2019-08-28T08:15:18Z</time>
      </trkpt>
      <trkpt lat="45.12284" lon="5.52978">
        <ele>978.75</ele>
        <time>2019-08-28T08:15:19Z</time>
      </trkpt>
      <trkpt lat="45.12283" lon="5.52977">
        <ele>978.85</ele>
        <time>2019-08-28T08:15:20Z</time>
      </trkpt>
      <trkpt lat="45.12282" lon="5.52976">
        <ele>978.94</ele>
        <time>2019-08-28T08:15:21Z</time>
      </trkpt>
      <trkpt lat="45.12281" lon="5.52975">
        <ele>979.05</ele>
        <time>2019-08-28T08:15:22Z</time>
      </trkpt>
      <trkpt lat="45.12281" lon="5.52973">
        <ele>979.16</ele>
        <time>2019-08-28T08:15:23Z</time>
      </trkpt>
      <trkpt lat="45.1228" lon="5.52972">
        <ele>979.28</ele>
        <time>2019-08-28T08:15:24Z</time>
      </trkpt>
      <trkpt lat="45.12274" lon="5.52954">
        <ele>981.22</ele>
        <time>2019-08-28T08:15:37Z</time>
      </trkpt>
      <trkpt lat="45.12271" lon="5.52924">
        <ele>983.23</ele>
        <time>2019-08-28T08:15:54Z</time>
      </trkpt>
      <trkpt lat="45.1227" lon="5.52919">
        <ele>983.68</ele>
        <time>2019-08-28T08:15:57Z</time>
      </trkpt>
      <trkpt lat="45.12269" lon="5.52888">
        <ele>986.02</ele>
        <time>2019-08-28T08:16:14Z</time>
      </trkpt>
      <trkpt lat="45.12266" lon="5.52859">
        <ele>989.1</ele>
        <time>2019-08-28T08:16:32Z</time>
      </trkpt>
      <trkpt lat="45.12264" lon="5.52836">
        <ele>992.21</ele>
        <time>2019-08-28T08:16:51Z</time>
      </trkpt>
      <trkpt lat="45.12261" lon="5.52813">
        <ele>994.29</ele>
        <time>2019-08-28T08:17:09Z</time>
      </trkpt>
      <trkpt lat="45.12259" lon="5.52789">
        <ele>997.11</ele>
        <time>2019-08-28T08:17:31Z</time>
      </trkpt>
      <trkpt lat="45.12259" lon="5.5276">
        <ele>999.18</ele>
        <time>2019-08-28T08:17:53Z</time>
      </trkpt>
      <trkpt lat="45.12259" lon="5.52729">
        <ele>1002.28</ele>
        <time>2019-08-28T08:18:14Z</time>
      </trkpt>
      <trkpt lat="45.12262" lon="5.52708">
        <ele>1005.33</ele>
        <time>2019-08-28T08:18:31Z</time>
      </trkpt>
      <trkpt lat="45.12266" lon="5.52685">
        <ele>1008.36</ele>
        <time>2019-08-28T08:18:49Z</time>
      </trkpt>
      <trkpt lat="45.12268" lon="5.52663">
        <ele>1011.09</ele>
        <time>2019-08-28T08:19:07Z</time>
      </trkpt>
      <trkpt lat="45.12269" lon="5.5264">
        <ele>1013.58</ele>
        <time>2019-08-28T08:19:25Z</time>
      </trkpt>
      <trkpt lat="45.12268" lon="5.52611">
        <ele>1016.73</ele>
        <time>2019-08-28T08:19:44Z</time>
      </trkpt>
      <trkpt lat="45.12267" lon="5.52597">
        <ele>1018.68</ele>
        <time>2019-08-28T08:19:59Z</time>
      </trkpt>
      <trkpt lat="45.12267" lon="5.52595">
        <ele>1018.56</ele>
        <time>2019-08-28T08:20:30Z</time>
      </trkpt>
      <trkpt lat="45.12268" lon="5.52594">
        <ele>1018.66</ele>
        <time>2019-08-28T08:21:04Z</time>
      </trkpt>
      <trkpt lat="45.12269" lon="5.52596">
        <ele>1018.52</ele>
        <time>2019-08-28T08:21:40Z</time>
      </trkpt>
      <trkpt lat="45.12266" lon="5.52585">
        <ele>1018.53</ele>
        <time>2019-08-28T08:22:03Z</time>
      </trkpt>
      <trkpt lat="45.12266" lon="5.52577">
        <ele>1018.61</ele>
        <time>2019-08-28T08:22:23Z</time>
      </trkpt>
      <trkpt lat="45.12269" lon="5.52573">
        <ele>1018.45</ele>
        <time>2019-08-28T08:22:51Z</time>
      </trkpt>
      <trkpt lat="45.12269" lon="5.52571">
        <ele>1018.46</ele>
        <time>2019-08-28T08:22:52Z</time>
      </trkpt>
      <trkpt lat="45.1227" lon="5.52565">
        <ele>1018.59</ele>
        <time>2019-08-28T08:22:56Z</time>
      </trkpt>
      <trkpt lat="45.12277" lon="5.52551">
        <ele>1019.73</ele>
        <time>2019-08-28T08:23:11Z</time>
      </trkpt>
      <trkpt lat="45.1228" lon="5.52547">
        <ele>1020.31</ele>
        <time>2019-08-28T08:23:16Z</time>
      </trkpt>
      <trkpt lat="45.12295" lon="5.52533">
        <ele>1023.25</ele>
        <time>2019-08-28T08:23:33Z</time>
      </trkpt>
      <trkpt lat="45.123" lon="5.52528">
        <ele>1023.63</ele>
        <time>2019-08-28T08:23:38Z</time>
      </trkpt>
      <trkpt lat="45.12312" lon="5.52509">
        <ele>1023.78</ele>
        <time>2019-08-28T08:23:47Z</time>
      </trkpt>
      <trkpt lat="45.12313" lon="5.52504">
        <ele>1023.65</ele>
        <time>2019-08-28T08:23:48Z</time>
      </trkpt>
      <trkpt lat="45.12311" lon="5.52452">
        <ele>1021.61</ele>
        <time>2019-08-28T08:24:01Z</time>
      </trkpt>
      <trkpt lat="45.12311" lon="5.52444">
        <ele>1022.77</ele>
        <time>2019-08-28T08:24:14Z</time>
      </trkpt>
      <trkpt lat="45.12313" lon="5.52447">
        <ele>1022.82</ele>
        <time>2019-08-28T08:24:46Z</time>
      </trkpt>
      <trkpt lat="45.1231" lon="5.52441">
        <ele>1022.9</ele>
        <time>2019-08-28T08:25:14Z</time>
      </trkpt>
      <trkpt lat="45.1231" lon="5.52439">
        <ele>1023.14</ele>
        <time>2019-08-28T08:25:37Z</time>
      </trkpt>
      <trkpt lat="45.12317" lon="5.52447">
        <ele>1023.12</ele>
        <time>2019-08-28T08:26:04Z</time>
      </trkpt>
      <trkpt lat="45.12314" lon="5.52441">
        <ele>1022.98</ele>
        <time>2019-08-28T08:26:30Z</time>
      </trkpt>
      <trkpt lat="45.12324" lon="5.52441">
        <ele>1022.75</ele>
        <time>2019-08-28T08:26:58Z</time>
      </trkpt>
      <trkpt lat="45.12319" lon="5.52441">
        <ele>1023.1</ele>
        <time>2019-08-28T08:27:26Z</time>
      </trkpt>
      <trkpt lat="45.12313" lon="5.52448">
        <ele>1023.12</ele>
        <time>2019-08-28T08:28:01Z</time>
      </trkpt>
      <trkpt lat="45.12314" lon="5.52444">
        <ele>1023.25</ele>
        <time>2019-08-28T08:28:30Z</time>
      </trkpt>
      <trkpt lat="45.12315" lon="5.52442">
        <ele>1023.27</ele>
        <time>2019-08-28T08:28:31Z</time>
      </trkpt>
      <trkpt lat="45.12317" lon="5.52441">
        <ele>1023.28</ele>
        <time>2019-08-28T08:28:32Z</time>
      </trkpt>
      <trkpt lat="45.12319" lon="5.52439">
        <ele>1023.27</ele>
        <time>2019-08-28T08:28:33Z</time>
      </trkpt>
      <trkpt lat="45.12321" lon="5.52438">
        <ele>1023.25</ele>
        <time>2019-08-28T08:28:34Z</time>
      </trkpt>
      <trkpt lat="45.12325" lon="5.52436">
        <ele>1023.21</ele>
        <time>2019-08-28T08:28:35Z</time>
      </trkpt>
      <trkpt lat="45.12328" lon="5.52434">
        <ele>1023.13</ele>
        <time>2019-08-28T08:28:36Z</time>
      </trkpt>
      <trkpt lat="45.12345" lon="5.52432">
        <ele>1022.48</ele>
        <time>2019-08-28T08:28:40Z</time>
      </trkpt>
      <trkpt lat="45.12349" lon="5.52434">
        <ele>1022.29</ele>
        <time>2019-08-28T08:28:41Z</time>
      </trkpt>
      <trkpt lat="45.12406" lon="5.5247">
        <ele>1018.4</ele>
        <time>2019-08-28T08:28:51Z</time>
      </trkpt>
      <trkpt lat="45.1242" lon="5.52477">
        <ele>1017.26</ele>
        <time>2019-08-28T08:28:53Z</time>
      </trkpt>
      <trkpt lat="45.12426" lon="5.52481">
        <ele>1016.71</ele>
        <time>2019-08-28T08:28:54Z</time>
      </trkpt>
      <trkpt lat="45.12453" lon="5.52494">
        <ele>1014.51</ele>
        <time>2019-08-28T08:28:58Z</time>
      </trkpt>
      <trkpt lat="45.12504" lon="5.5252">
        <ele>1011.25</ele>
        <time>2019-08-28T08:29:05Z</time>
      </trkpt>
      <trkpt lat="45.12567" lon="5.52535">
        <ele>1008.17</ele>
        <time>2019-08-28T08:29:12Z</time>
      </trkpt>
      <trkpt lat="45.12593" lon="5.52542">
        <ele>1005.44</ele>
        <time>2019-08-28T08:29:16Z</time>
      </trkpt>
      <trkpt lat="45.12597" lon="5.52544">
        <ele>1004.93</ele>
        <time>2019-08-28T08:29:17Z</time>
      </trkpt>
      <trkpt lat="45.12601" lon="5.52545">
        <ele>1004.42</ele>
        <time>2019-08-28T08:29:18Z</time>
      </trkpt>
      <trkpt lat="45.1263" lon="5.52553">
        <ele>1001.39</ele>
        <time>2019-08-28T08:29:26Z</time>
      </trkpt>
      <trkpt lat="45.12686" lon="5.52568">
        <ele>998.92</ele>
        <time>2019-08-28T08:29:40Z</time>
      </trkpt>
      <trkpt lat="45.12743" lon="5.52584">
        <ele>995.93</ele>
        <time>2019-08-28T08:29:53Z</time>
      </trkpt>
      <trkpt lat="45.12747" lon="5.52587">
        <ele>995.56</ele>
        <time>2019-08-28T08:29:54Z</time>
      </trkpt>
      <trkpt lat="45.1275" lon="5.52592">
        <ele>995.19</ele>
        <time>2019-08-28T08:29:55Z</time>
      </trkpt>
      <trkpt lat="45.12753" lon="5.52598">
        <ele>994.82</ele>
        <time>2019-08-28T08:29:56Z</time>
      </trkpt>
      <trkpt lat="45.12754" lon="5.52604">
        <ele>994.47</ele>
        <time>2019-08-28T08:29:57Z</time>
      </trkpt>
      <trkpt lat="45.12754" lon="5.5261">
        <ele>994.09</ele>
        <time>2019-08-28T08:29:58Z</time>
      </trkpt>
      <trkpt lat="45.12753" lon="5.52616">
        <ele>993.68</ele>
        <time>2019-08-28T08:29:59Z</time>
      </trkpt>
      <trkpt lat="45.12752" lon="5.52621">
        <ele>993.29</ele>
        <time>2019-08-28T08:30:00Z</time>
      </trkpt>
      <trkpt lat="45.12748" lon="5.52644">
        <ele>992.22</ele>
        <time>2019-08-28T08:30:04Z</time>
      </trkpt>
      <trkpt lat="45.12747" lon="5.5265">
        <ele>991.66</ele>
        <time>2019-08-28T08:30:05Z</time>
      </trkpt>
      <trkpt lat="45.12746" lon="5.52655">
        <ele>991.4</ele>
        <time>2019-08-28T08:30:06Z</time>
      </trkpt>
      <trkpt lat="45.12738" lon="5.52693">
        <ele>989.63</ele>
        <time>2019-08-28T08:30:17Z</time>
      </trkpt>
      <trkpt lat="45.12737" lon="5.527">
        <ele>989.13</ele>
        <time>2019-08-28T08:30:37Z</time>
      </trkpt>
      <trkpt lat="45.12738" lon="5.52718">
        <ele>988.74</ele>
        <time>2019-08-28T08:30:55Z</time>
      </trkpt>
      <trkpt lat="45.12738" lon="5.52722">
        <ele>988.68</ele>
        <time>2019-08-28T08:30:56Z</time>
      </trkpt>
      <trkpt lat="45.1274" lon="5.52726">
        <ele>988.64</ele>
        <time>2019-08-28T08:30:57Z</time>
      </trkpt>
      <trkpt lat="45.12742" lon="5.5273">
        <ele>988.58</ele>
        <time>2019-08-28T08:30:58Z</time>
      </trkpt>
      <trkpt lat="45.12745" lon="5.52732">
        <ele>988.53</ele>
        <time>2019-08-28T08:30:59Z</time>
      </trkpt>
      <trkpt lat="45.12747" lon="5.52735">
        <ele>988.48</ele>
        <time>2019-08-28T08:31:00Z</time>
      </trkpt>
      <trkpt lat="45.12778" lon="5.52757">
        <ele>988.28</ele>
        <time>2019-08-28T08:31:13Z</time>
      </trkpt>
      <trkpt lat="45.128" lon="5.52767">
        <ele>988.49</ele>
        <time>2019-08-28T08:31:23Z</time>
      </trkpt>
      <trkpt lat="45.12837" lon="5.5278">
        <ele>988.75</ele>
        <time>2019-08-28T08:31:34Z</time>
      </trkpt>
      <trkpt lat="45.1289" lon="5.52792">
        <ele>987.79</ele>
        <time>2019-08-28T08:31:46Z</time>
      </trkpt>
      <trkpt lat="45.12894" lon="5.52791">
        <ele>987.68</ele>
        <time>2019-08-28T08:31:47Z</time>
      </trkpt>
      <trkpt lat="45.12903" lon="5.52791">
        <ele>987.45</ele>
        <time>2019-08-28T08:31:49Z</time>
      </trkpt>
      <trkpt lat="45.12944" lon="5.52793">
        <ele>986.25</ele>
        <time>2019-08-28T08:31:57Z</time>
      </trkpt>
      <trkpt lat="45.12956" lon="5.52794">
        <ele>985.89</ele>
        <time>2019-08-28T08:31:59Z</time>
      </trkpt>
      <trkpt lat="45.12962" lon="5.52795">
        <ele>985.72</ele>
        <time>2019-08-28T08:32:00Z</time>
      </trkpt>
      <trkpt lat="45.13039" lon="5.52806">
        <ele>982.55</ele>
        <time>2019-08-28T08:32:12Z</time>
      </trkpt>
      <trkpt lat="45.1308" lon="5.52817">
        <ele>979.49</ele>
        <time>2019-08-28T08:32:21Z</time>
      </trkpt>
      <trkpt lat="45.1308" lon="5.52818">
        <ele>978.1</ele>
        <time>2019-08-28T08:32:33Z</time>
      </trkpt>
      <trkpt lat="45.13083" lon="5.5282">
        <ele>978.02</ele>
        <time>2019-08-28T08:32:44Z</time>
      </trkpt>
      <trkpt lat="45.13084" lon="5.5282">
        <ele>978.01</ele>
        <time>2019-08-28T08:32:45Z</time>
      </trkpt>
      <trkpt lat="45.13087" lon="5.52821">
        <ele>977.99</ele>
        <time>2019-08-28T08:32:46Z</time>
      </trkpt>
      <trkpt lat="45.13089" lon="5.5282">
        <ele>977.95</ele>
        <time>2019-08-28T08:32:47Z</time>
      </trkpt>
      <trkpt lat="45.13092" lon="5.52819">
        <ele>977.91</ele>
        <time>2019-08-28T08:32:48Z</time>
      </trkpt>
      <trkpt lat="45.13118" lon="5.52796">
        <ele>977.57</ele>
        <time>2019-08-28T08:33:00Z</time>
      </trkpt>
      <trkpt lat="45.13124" lon="5.52789">
        <ele>977.51</ele>
        <time>2019-08-28T08:33:03Z</time>
      </trkpt>
      <trkpt lat="45.13125" lon="5.52787">
        <ele>977.46</ele>
        <time>2019-08-28T08:33:04Z</time>
      </trkpt>
      <trkpt lat="45.13126" lon="5.52785">
        <ele>977.41</ele>
        <time>2019-08-28T08:33:05Z</time>
      </trkpt>
      <trkpt lat="45.13127" lon="5.52784">
        <ele>977.35</ele>
        <time>2019-08-28T08:33:06Z</time>
      </trkpt>
      <trkpt lat="45.13128" lon="5.52784">
        <ele>977.25</ele>
        <time>2019-08-28T08:33:07Z</time>
      </trkpt>
      <trkpt lat="45.1313" lon="5.52783">
        <ele>977.14</ele>
        <time>2019-08-28T08:33:08Z</time>
      </trkpt>
      <trkpt lat="45.13148" lon="5.52777">
        <ele>976.54</ele>
        <time>2019-08-28T08:33:19Z</time>
      </trkpt>
      <trkpt lat="45.13149" lon="5.52773">
        <ele>976.47</ele>
        <time>2019-08-28T08:33:23Z</time>
      </trkpt>
      <trkpt lat="45.1315" lon="5.52771">
        <ele>976.49</ele>
        <time>2019-08-28T08:33:24Z</time>
      </trkpt>
      <trkpt lat="45.13151" lon="5.52768">
        <ele>976.52</ele>
        <time>2019-08-28T08:33:25Z</time>
      </trkpt>
      <trkpt lat="45.13152" lon="5.52764">
        <ele>976.55</ele>
        <time>2019-08-28T08:33:26Z</time>
      </trkpt>
      <trkpt lat="45.13152" lon="5.5276">
        <ele>976.59</ele>
        <time>2019-08-28T08:33:27Z</time>
      </trkpt>
      <trkpt lat="45.13153" lon="5.52757">
        <ele>976.64</ele>
        <time>2019-08-28T08:33:28Z</time>
      </trkpt>
      <trkpt lat="45.13155" lon="5.52754">
        <ele>976.69</ele>
        <time>2019-08-28T08:33:29Z</time>
      </trkpt>
      <trkpt lat="45.13156" lon="5.52751">
        <ele>976.73</ele>
        <time>2019-08-28T08:33:30Z</time>
      </trkpt>
      <trkpt lat="45.13157" lon="5.52747">
        <ele>976.8</ele>
        <time>2019-08-28T08:33:31Z</time>
      </trkpt>
      <trkpt lat="45.1317" lon="5.52696">
        <ele>977.67</ele>
        <time>2019-08-28T08:33:45Z</time>
      </trkpt>
      <trkpt lat="45.13188" lon="5.52631">
        <ele>978.7</ele>
        <time>2019-08-28T08:34:01Z</time>
      </trkpt>
      <trkpt lat="45.13216" lon="5.52605">
        <ele>979.3</ele>
        <time>2019-08-28T08:34:12Z</time>
      </trkpt>
      <trkpt lat="45.13248" lon="5.52585">
        <ele>980.04</ele>
        <time>2019-08-28T08:34:25Z</time>
      </trkpt>
      <trkpt lat="45.13278" lon="5.52556">
        <ele>980.64</ele>
        <time>2019-08-28T08:34:38Z</time>
      </trkpt>
      <trkpt lat="45.13308" lon="5.52525">
        <ele>980.61</ele>
        <time>2019-08-28T08:34:52Z</time>
      </trkpt>
      <trkpt lat="45.13352" lon="5.52478">
        <ele>980.41</ele>
        <time>2019-08-28T08:35:09Z</time>
      </trkpt>
      <trkpt lat="45.134" lon="5.52434">
        <ele>980.77</ele>
        <time>2019-08-28T08:35:25Z</time>
      </trkpt>
      <trkpt lat="45.13441" lon="5.524">
        <ele>981.28</ele>
        <time>2019-08-28T08:35:38Z</time>
      </trkpt>
      <trkpt lat="45.13495" lon="5.52383">
        <ele>982.23</ele>
        <time>2019-08-28T08:35:55Z</time>
      </trkpt>
      <trkpt lat="45.13538" lon="5.52355">
        <ele>982.57</ele>
        <time>2019-08-28T08:36:10Z</time>
      </trkpt>
      <trkpt lat="45.13599" lon="5.5233">
        <ele>983.23</ele>
        <time>2019-08-28T08:36:29Z</time>
      </trkpt>
      <trkpt lat="45.13665" lon="5.52319">
        <ele>984.4</ele>
        <time>2019-08-28T08:36:50Z</time>
      </trkpt>
      <trkpt lat="45.13718" lon="5.52306">
        <ele>985.33</ele>
        <time>2019-08-28T08:37:07Z</time>
      </trkpt>
      <trkpt lat="45.1377" lon="5.52279">
        <ele>985.95</ele>
        <time>2019-08-28T08:37:23Z</time>
      </trkpt>
      <trkpt lat="45.13805" lon="5.52275">
        <ele>986.56</ele>
        <time>2019-08-28T08:37:38Z</time>
      </trkpt>
      <trkpt lat="45.13831" lon="5.52273">
        <ele>986.73</ele>
        <time>2019-08-28T08:37:52Z</time>
      </trkpt>
      <trkpt lat="45.13835" lon="5.52273">
        <ele>986.78</ele>
        <time>2019-08-28T08:37:54Z</time>
      </trkpt>
      <trkpt lat="45.13837" lon="5.52273">
        <ele>986.84</ele>
        <time>2019-08-28T08:37:55Z</time>
      </trkpt>
      <trkpt lat="45.13839" lon="5.52272">
        <ele>986.86</ele>
        <time>2019-08-28T08:37:56Z</time>
      </trkpt>
      <trkpt lat="45.13842" lon="5.52272">
        <ele>986.87</ele>
        <time>2019-08-28T08:37:57Z</time>
      </trkpt>
      <trkpt lat="45.13844" lon="5.52272">
        <ele>986.89</ele>
        <time>2019-08-28T08:37:58Z</time>
      </trkpt>
      <trkpt lat="45.13896" lon="5.52265">
        <ele>987.24</ele>
        <time>2019-08-28T08:38:16Z</time>
      </trkpt>
      <trkpt lat="45.13934" lon="5.52259">
        <ele>987.57</ele>
        <time>2019-08-28T08:38:28Z</time>
      </trkpt>
      <trkpt lat="45.13958" lon="5.52247">
        <ele>987.53</ele>
        <time>2019-08-28T08:38:41Z</time>
      </trkpt>
      <trkpt lat="45.13955" lon="5.52241">
        <ele>987.72</ele>
        <time>2019-08-28T08:38:52Z</time>
      </trkpt>
      <trkpt lat="45.13956" lon="5.52239">
        <ele>987.74</ele>
        <time>2019-08-28T08:38:53Z</time>
      </trkpt>
      <trkpt lat="45.13956" lon="5.52236">
        <ele>987.79</ele>
        <time>2019-08-28T08:38:54Z</time>
      </trkpt>
      <trkpt lat="45.13962" lon="5.52177">
        <ele>989.06</ele>
        <time>2019-08-28T08:39:09Z</time>
      </trkpt>
      <trkpt lat="45.1397" lon="5.5212">
        <ele>990.16</ele>
        <time>2019-08-28T08:39:22Z</time>
      </trkpt>
      <trkpt lat="45.13974" lon="5.5206">
        <ele>991.54</ele>
        <time>2019-08-28T08:39:38Z</time>
      </trkpt>
      <trkpt lat="45.13976" lon="5.52048">
        <ele>992.46</ele>
        <time>2019-08-28T08:39:50Z</time>
      </trkpt>
      <trkpt lat="45.13975" lon="5.52052">
        <ele>992.8</ele>
        <time>2019-08-28T08:40:27Z</time>
      </trkpt>
      <trkpt lat="45.13975" lon="5.5205">
        <ele>993.96</ele>
        <time>2019-08-28T08:43:18Z</time>
      </trkpt>
      <trkpt lat="45.13974" lon="5.5204">
        <ele>993.97</ele>
        <time>2019-08-28T08:43:40Z</time>
      </trkpt>
      <trkpt lat="45.13976" lon="5.52027">
        <ele>994.48</ele>
        <time>2019-08-28T08:43:56Z</time>
      </trkpt>
      <trkpt lat="45.13977" lon="5.52024">
        <ele>994.88</ele>
        <time>2019-08-28T08:44:18Z</time>
      </trkpt>
      <trkpt lat="45.13978" lon="5.52023">
        <ele>995.22</ele>
        <time>2019-08-28T08:45:12Z</time>
      </trkpt>
      <trkpt lat="45.13978" lon="5.52025">
        <ele>995.17</ele>
        <time>2019-08-28T08:45:47Z</time>
      </trkpt>
      <trkpt lat="45.13978" lon="5.52023">
        <ele>995.27</ele>
        <time>2019-08-28T08:46:15Z</time>
      </trkpt>
      <trkpt lat="45.13978" lon="5.52023">
        <ele>995.55</ele>
        <time>2019-08-28T08:46:53Z</time>
      </trkpt>
      <trkpt lat="45.13978" lon="5.52016">
        <ele>995.86</ele>
        <time>2019-08-28T08:47:22Z</time>
      </trkpt>
      <trkpt lat="45.1398" lon="5.51989">
        <ele>996.06</ele>
        <time>2019-08-28T08:47:40Z</time>
      </trkpt>
      <trkpt lat="45.13983" lon="5.51966">
        <ele>996.56</ele>
        <time>2019-08-28T08:47:59Z</time>
      </trkpt>
      <trkpt lat="45.13982" lon="5.51963">
        <ele>996.9</ele>
        <time>2019-08-28T08:48:22Z</time>
      </trkpt>
      <trkpt lat="45.13984" lon="5.5195">
        <ele>997.2</ele>
        <time>2019-08-28T08:48:39Z</time>
      </trkpt>
      <trkpt lat="45.13987" lon="5.51936">
        <ele>997.19</ele>
        <time>2019-08-28T08:48:55Z</time>
      </trkpt>
      <trkpt lat="45.13988" lon="5.51929">
        <ele>997.09</ele>
        <time>2019-08-28T08:50:20Z</time>
      </trkpt>
      <trkpt lat="45.13991" lon="5.51899">
        <ele>998.1</ele>
        <time>2019-08-28T08:50:39Z</time>
      </trkpt>
      <trkpt lat="45.13993" lon="5.51884">
        <ele>998.57</ele>
        <time>2019-08-28T08:50:52Z</time>
      </trkpt>
      <trkpt lat="45.13995" lon="5.51868">
        <ele>999.11</ele>
        <time>2019-08-28T08:51:03Z</time>
      </trkpt>
      <trkpt lat="45.13998" lon="5.51852">
        <ele>999.85</ele>
        <time>2019-08-28T08:51:18Z</time>
      </trkpt>
      <trkpt lat="45.13997" lon="5.5185">
        <ele>999.91</ele>
        <time>2019-08-28T08:51:45Z</time>
      </trkpt>
      <trkpt lat="45.13999" lon="5.51843">
        <ele>999.93</ele>
        <time>2019-08-28T08:51:52Z</time>
      </trkpt>
      <trkpt lat="45.14005" lon="5.51818">
        <ele>1001.25</ele>
        <time>2019-08-28T08:52:08Z</time>
      </trkpt>
      <trkpt lat="45.14007" lon="5.518">
        <ele>1002.19</ele>
        <time>2019-08-28T08:52:17Z</time>
      </trkpt>
      <trkpt lat="45.14009" lon="5.51791">
        <ele>1003.08</ele>
        <time>2019-08-28T08:52:23Z</time>
      </trkpt>
      <trkpt lat="45.1401" lon="5.51785">
        <ele>1003.76</ele>
        <time>2019-08-28T08:52:27Z</time>
      </trkpt>
      <trkpt lat="45.14011" lon="5.51761">
        <ele>1007.19</ele>
        <time>2019-08-28T08:52:44Z</time>
      </trkpt>
      <trkpt lat="45.14014" lon="5.51747">
        <ele>1010.27</ele>
        <time>2019-08-28T08:53:01Z</time>
      </trkpt>
      <trkpt lat="45.14016" lon="5.51742">
        <ele>1012.54</ele>
        <time>2019-08-28T08:53:20Z</time>
      </trkpt>
      <trkpt lat="45.14017" lon="5.5174">
        <ele>1012.5</ele>
        <time>2019-08-28T08:53:46Z</time>
      </trkpt>
      <trkpt lat="45.14018" lon="5.5174">
        <ele>1012.88</ele>
        <time>2019-08-28T08:54:14Z</time>
      </trkpt>
      <trkpt lat="45.14022" lon="5.51735">
        <ele>1013.07</ele>
        <time>2019-08-28T08:54:23Z</time>
      </trkpt>
      <trkpt lat="45.14029" lon="5.51724">
        <ele>1013.41</ele>
        <time>2019-08-28T08:54:32Z</time>
      </trkpt>
      <trkpt lat="45.14037" lon="5.51713">
        <ele>1014.18</ele>
        <time>2019-08-28T08:54:45Z</time>
      </trkpt>
      <trkpt lat="45.14047" lon="5.51689">
        <ele>1014.83</ele>
        <time>2019-08-28T08:54:57Z</time>
      </trkpt>
      <trkpt lat="45.14063" lon="5.51646">
        <ele>1016.81</ele>
        <time>2019-08-28T08:55:14Z</time>
      </trkpt>
      <trkpt lat="45.14068" lon="5.51625">
        <ele>1018.09</ele>
        <time>2019-08-28T08:55:26Z</time>
      </trkpt>
      <trkpt lat="45.14082" lon="5.51619">
        <ele>1019.31</ele>
        <time>2019-08-28T08:55:39Z</time>
      </trkpt>
      <trkpt lat="45.14086" lon="5.51618">
        <ele>1019.46</ele>
        <time>2019-08-28T08:55:41Z</time>
      </trkpt>
      <trkpt lat="45.14088" lon="5.51617">
        <ele>1019.5</ele>
        <time>2019-08-28T08:55:42Z</time>
      </trkpt>
      <trkpt lat="45.1409" lon="5.51617">
        <ele>1019.54</ele>
        <time>2019-08-28T08:55:43Z</time>
      </trkpt>
      <trkpt lat="45.14091" lon="5.51616">
        <ele>1019.58</ele>
        <time>2019-08-28T08:55:44Z</time>
      </trkpt>
      <trkpt lat="45.14093" lon="5.51615">
        <ele>1019.62</ele>
        <time>2019-08-28T08:55:45Z</time>
      </trkpt>
      <trkpt lat="45.14095" lon="5.51614">
        <ele>1019.64</ele>
        <time>2019-08-28T08:55:46Z</time>
      </trkpt>
      <trkpt lat="45.14097" lon="5.51614">
        <ele>1019.67</ele>
        <time>2019-08-28T08:55:47Z</time>
      </trkpt>
      <trkpt lat="45.14099" lon="5.51613">
        <ele>1019.71</ele>
        <time>2019-08-28T08:55:48Z</time>
      </trkpt>
      <trkpt lat="45.14101" lon="5.51612">
        <ele>1019.75</ele>
        <time>2019-08-28T08:55:49Z</time>
      </trkpt>
      <trkpt lat="45.14103" lon="5.51611">
        <ele>1019.78</ele>
        <time>2019-08-28T08:55:50Z</time>
      </trkpt>
      <trkpt lat="45.14105" lon="5.51611">
        <ele>1019.79</ele>
        <time>2019-08-28T08:55:51Z</time>
      </trkpt>
      <trkpt lat="45.14107" lon="5.5161">
        <ele>1019.8</ele>
        <time>2019-08-28T08:55:52Z</time>
      </trkpt>
      <trkpt lat="45.1411" lon="5.51609">
        <ele>1019.81</ele>
        <time>2019-08-28T08:55:53Z</time>
      </trkpt>
      <trkpt lat="45.14135" lon="5.51595">
        <ele>1020.15</ele>
        <time>2019-08-28T08:56:04Z</time>
      </trkpt>
      <trkpt lat="45.14158" lon="5.51582">
        <ele>1020.6</ele>
        <time>2019-08-28T08:56:13Z</time>
      </trkpt>
      <trkpt lat="45.14161" lon="5.51582">
        <ele>1020.62</ele>
        <time>2019-08-28T08:56:14Z</time>
      </trkpt>
      <trkpt lat="45.14163" lon="5.5158">
        <ele>1020.66</ele>
        <time>2019-08-28T08:56:15Z</time>
      </trkpt>
      <trkpt lat="45.14165" lon="5.51579">
        <ele>1020.71</ele>
        <time>2019-08-28T08:56:16Z</time>
      </trkpt>
      <trkpt lat="45.14168" lon="5.51579">
        <ele>1020.77</ele>
        <time>2019-08-28T08:56:17Z</time>
      </trkpt>
      <trkpt lat="45.1417" lon="5.51577">
        <ele>1020.85</ele>
        <time>2019-08-28T08:56:18Z</time>
      </trkpt>
      <trkpt lat="45.14173" lon="5.51576">
        <ele>1020.9</ele>
        <time>2019-08-28T08:56:19Z</time>
      </trkpt>
      <trkpt lat="45.14202" lon="5.51564">
        <ele>1021.97</ele>
        <time>2019-08-28T08:56:31Z</time>
      </trkpt>
      <trkpt lat="45.14227" lon="5.51554">
        <ele>1023.28</ele>
        <time>2019-08-28T08:56:42Z</time>
      </trkpt>
      <trkpt lat="45.14256" lon="5.51545">
        <ele>1024.66</ele>
        <time>2019-08-28T08:56:54Z</time>
      </trkpt>
      <trkpt lat="45.14286" lon="5.51542">
        <ele>1025.82</ele>
        <time>2019-08-28T08:57:06Z</time>
      </trkpt>
      <trkpt lat="45.14305" lon="5.51535">
        <ele>1027.47</ele>
        <time>2019-08-28T08:57:18Z</time>
      </trkpt>
      <trkpt lat="45.14335" lon="5.51528">
        <ele>1027.82</ele>
        <time>2019-08-28T08:57:32Z</time>
      </trkpt>
      <trkpt lat="45.14336" lon="5.51529">
        <ele>1027.77</ele>
        <time>2019-08-28T08:57:33Z</time>
      </trkpt>
      <trkpt lat="45.1434" lon="5.51535">
        <ele>1027.22</ele>
        <time>2019-08-28T08:57:46Z</time>
      </trkpt>
      <trkpt lat="45.14337" lon="5.51531">
        <ele>1027.36</ele>
        <time>2019-08-28T08:58:07Z</time>
      </trkpt>
      <trkpt lat="45.14336" lon="5.51531">
        <ele>1027.41</ele>
        <time>2019-08-28T08:58:08Z</time>
      </trkpt>
      <trkpt lat="45.14334" lon="5.51531">
        <ele>1027.45</ele>
        <time>2019-08-28T08:58:09Z</time>
      </trkpt>
      <trkpt lat="45.14332" lon="5.51532">
        <ele>1027.49</ele>
        <time>2019-08-28T08:58:10Z</time>
      </trkpt>
      <trkpt lat="45.1433" lon="5.51532">
        <ele>1027.52</ele>
        <time>2019-08-28T08:58:11Z</time>
      </trkpt>
      <trkpt lat="45.14327" lon="5.51532">
        <ele>1027.53</ele>
        <time>2019-08-28T08:58:12Z</time>
      </trkpt>
      <trkpt lat="45.14308" lon="5.51525">
        <ele>1028.27</ele>
        <time>2019-08-28T08:58:26Z</time>
      </trkpt>
      <trkpt lat="45.14308" lon="5.51523">
        <ele>1028.37</ele>
        <time>2019-08-28T08:58:27Z</time>
      </trkpt>
      <trkpt lat="45.14311" lon="5.5152">
        <ele>1028.5</ele>
        <time>2019-08-28T08:58:31Z</time>
      </trkpt>
      <trkpt lat="45.14312" lon="5.5152">
        <ele>1028.53</ele>
        <time>2019-08-28T08:58:32Z</time>
      </trkpt>
      <trkpt lat="45.14313" lon="5.51519">
        <ele>1028.57</ele>
        <time>2019-08-28T08:58:33Z</time>
      </trkpt>
      <trkpt lat="45.14315" lon="5.51519">
        <ele>1028.61</ele>
        <time>2019-08-28T08:58:34Z</time>
      </trkpt>
      <trkpt lat="45.14316" lon="5.51518">
        <ele>1028.64</ele>
        <time>2019-08-28T08:58:35Z</time>
      </trkpt>
      <trkpt lat="45.14318" lon="5.51518">
        <ele>1028.68</ele>
        <time>2019-08-28T08:58:36Z</time>
      </trkpt>
      <trkpt lat="45.1432" lon="5.51518">
        <ele>1028.73</ele>
        <time>2019-08-28T08:58:37Z</time>
      </trkpt>
      <trkpt lat="45.14322" lon="5.51518">
        <ele>1028.81</ele>
        <time>2019-08-28T08:58:38Z</time>
      </trkpt>
      <trkpt lat="45.14356" lon="5.51508">
        <ele>1030.62</ele>
        <time>2019-08-28T08:58:54Z</time>
      </trkpt>
      <trkpt lat="45.14388" lon="5.51506">
        <ele>1032.31</ele>
        <time>2019-08-28T08:59:08Z</time>
      </trkpt>
      <trkpt lat="45.14411" lon="5.51494">
        <ele>1034.16</ele>
        <time>2019-08-28T08:59:20Z</time>
      </trkpt>
      <trkpt lat="45.14423" lon="5.51479">
        <ele>1035.12</ele>
        <time>2019-08-28T08:59:27Z</time>
      </trkpt>
      <trkpt lat="45.14426" lon="5.51478">
        <ele>1035.26</ele>
        <time>2019-08-28T08:59:28Z</time>
      </trkpt>
      <trkpt lat="45.14429" lon="5.51478">
        <ele>1035.4</ele>
        <time>2019-08-28T08:59:29Z</time>
      </trkpt>
      <trkpt lat="45.14432" lon="5.51479">
        <ele>1035.53</ele>
        <time>2019-08-28T08:59:30Z</time>
      </trkpt>
      <trkpt lat="45.14434" lon="5.51479">
        <ele>1035.65</ele>
        <time>2019-08-28T08:59:31Z</time>
      </trkpt>
      <trkpt lat="45.14436" lon="5.5148">
        <ele>1035.78</ele>
        <time>2019-08-28T08:59:32Z</time>
      </trkpt>
      <trkpt lat="45.14438" lon="5.51481">
        <ele>1035.95</ele>
        <time>2019-08-28T08:59:33Z</time>
      </trkpt>
      <trkpt lat="45.1444" lon="5.51483">
        <ele>1036.15</ele>
        <time>2019-08-28T08:59:34Z</time>
      </trkpt>
      <trkpt lat="45.14442" lon="5.51484">
        <ele>1036.32</ele>
        <time>2019-08-28T08:59:35Z</time>
      </trkpt>
      <trkpt lat="45.14444" lon="5.51486">
        <ele>1036.47</ele>
        <time>2019-08-28T08:59:36Z</time>
      </trkpt>
      <trkpt lat="45.14446" lon="5.51487">
        <ele>1036.62</ele>
        <time>2019-08-28T08:59:37Z</time>
      </trkpt>
      <trkpt lat="45.14448" lon="5.51489">
        <ele>1036.77</ele>
        <time>2019-08-28T08:59:38Z</time>
      </trkpt>
      <trkpt lat="45.1445" lon="5.51491">
        <ele>1036.93</ele>
        <time>2019-08-28T08:59:39Z</time>
      </trkpt>
      <trkpt lat="45.14452" lon="5.51493">
        <ele>1037.09</ele>
        <time>2019-08-28T08:59:40Z</time>
      </trkpt>
      <trkpt lat="45.14454" lon="5.51494">
        <ele>1037.23</ele>
        <time>2019-08-28T08:59:41Z</time>
      </trkpt>
      <trkpt lat="45.14457" lon="5.51496">
        <ele>1037.36</ele>
        <time>2019-08-28T08:59:42Z</time>
      </trkpt>
      <trkpt lat="45.14459" lon="5.51497">
        <ele>1037.47</ele>
        <time>2019-08-28T08:59:43Z</time>
      </trkpt>
      <trkpt lat="45.14483" lon="5.51504">
        <ele>1039.16</ele>
        <time>2019-08-28T08:59:54Z</time>
      </trkpt>
      <trkpt lat="45.14508" lon="5.51512">
        <ele>1040.9</ele>
        <time>2019-08-28T09:00:06Z</time>
      </trkpt>
      <trkpt lat="45.14537" lon="5.51522">
        <ele>1042.75</ele>
        <time>2019-08-28T09:00:20Z</time>
      </trkpt>
      <trkpt lat="45.14559" lon="5.51532">
        <ele>1044.23</ele>
        <time>2019-08-28T09:00:31Z</time>
      </trkpt>
      <trkpt lat="45.14564" lon="5.51533">
        <ele>1044.85</ele>
        <time>2019-08-28T09:00:34Z</time>
      </trkpt>
      <trkpt lat="45.14574" lon="5.51534">
        <ele>1045.56</ele>
        <time>2019-08-28T09:00:39Z</time>
      </trkpt>
      <trkpt lat="45.14576" lon="5.51534">
        <ele>1045.69</ele>
        <time>2019-08-28T09:00:40Z</time>
      </trkpt>
      <trkpt lat="45.14585" lon="5.51538">
        <ele>1046.09</ele>
        <time>2019-08-28T09:00:44Z</time>
      </trkpt>
      <trkpt lat="45.14587" lon="5.51539">
        <ele>1046.18</ele>
        <time>2019-08-28T09:00:45Z</time>
      </trkpt>
      <trkpt lat="45.14611" lon="5.51548">
        <ele>1048.35</ele>
        <time>2019-08-28T09:00:59Z</time>
      </trkpt>
      <trkpt lat="45.14613" lon="5.51548">
        <ele>1048.49</ele>
        <time>2019-08-28T09:01:00Z</time>
      </trkpt>
      <trkpt lat="45.14614" lon="5.51548">
        <ele>1048.62</ele>
        <time>2019-08-28T09:01:01Z</time>
      </trkpt>
      <trkpt lat="45.14616" lon="5.51549">
        <ele>1048.76</ele>
        <time>2019-08-28T09:01:02Z</time>
      </trkpt>
      <trkpt lat="45.14619" lon="5.5155">
        <ele>1048.91</ele>
        <time>2019-08-28T09:01:03Z</time>
      </trkpt>
      <trkpt lat="45.14621" lon="5.51551">
        <ele>1049.08</ele>
        <time>2019-08-28T09:01:04Z</time>
      </trkpt>
      <trkpt lat="45.14642" lon="5.51564">
        <ele>1050.02</ele>
        <time>2019-08-28T09:01:13Z</time>
      </trkpt>
      <trkpt lat="45.14663" lon="5.51582">
        <ele>1051.39</ele>
        <time>2019-08-28T09:01:23Z</time>
      </trkpt>
      <trkpt lat="45.14665" lon="5.51583">
        <ele>1051.53</ele>
        <time>2019-08-28T09:01:24Z</time>
      </trkpt>
      <trkpt lat="45.14666" lon="5.51585">
        <ele>1051.66</ele>
        <time>2019-08-28T09:01:25Z</time>
      </trkpt>
      <trkpt lat="45.14668" lon="5.51587">
        <ele>1051.8</ele>
        <time>2019-08-28T09:01:26Z</time>
      </trkpt>
      <trkpt lat="45.14669" lon="5.51589">
        <ele>1051.96</ele>
        <time>2019-08-28T09:01:27Z</time>
      </trkpt>
      <trkpt lat="45.14671" lon="5.51591">
        <ele>1052.12</ele>
        <time>2019-08-28T09:01:28Z</time>
      </trkpt>
      <trkpt lat="45.14673" lon="5.51593">
        <ele>1052.28</ele>
        <time>2019-08-28T09:01:29Z</time>
      </trkpt>
      <trkpt lat="45.14675" lon="5.51595">
        <ele>1052.4</ele>
        <time>2019-08-28T09:01:30Z</time>
      </trkpt>
      <trkpt lat="45.14677" lon="5.51597">
        <ele>1052.51</ele>
        <time>2019-08-28T09:01:31Z</time>
      </trkpt>
      <trkpt lat="45.14679" lon="5.51598">
        <ele>1052.61</ele>
        <time>2019-08-28T09:01:32Z</time>
      </trkpt>
      <trkpt lat="45.14681" lon="5.51599">
        <ele>1052.72</ele>
        <time>2019-08-28T09:01:33Z</time>
      </trkpt>
      <trkpt lat="45.14683" lon="5.51601">
        <ele>1052.83</ele>
        <time>2019-08-28T09:01:34Z</time>
      </trkpt>
      <trkpt lat="45.14684" lon="5.51603">
        <ele>1052.99</ele>
        <time>2019-08-28T09:01:35Z</time>
      </trkpt>
      <trkpt lat="45.14686" lon="5.51605">
        <ele>1053.16</ele>
        <time>2019-08-28T09:01:36Z</time>
      </trkpt>
      <trkpt lat="45.14704" lon="5.51625">
        <ele>1055</ele>
        <time>2019-08-28T09:01:47Z</time>
      </trkpt>
      <trkpt lat="45.14706" lon="5.51627">
        <ele>1055.16</ele>
        <time>2019-08-28T09:01:48Z</time>
      </trkpt>
      <trkpt lat="45.14707" lon="5.51629">
        <ele>1055.31</ele>
        <time>2019-08-28T09:01:49Z</time>
      </trkpt>
      <trkpt lat="45.14709" lon="5.51631">
        <ele>1055.47</ele>
        <time>2019-08-28T09:01:50Z</time>
      </trkpt>
      <trkpt lat="45.14714" lon="5.51636">
        <ele>1055.81</ele>
        <time>2019-08-28T09:01:53Z</time>
      </trkpt>
      <trkpt lat="45.14716" lon="5.51638">
        <ele>1055.91</ele>
        <time>2019-08-28T09:01:54Z</time>
      </trkpt>
      <trkpt lat="45.14717" lon="5.5164">
        <ele>1056.06</ele>
        <time>2019-08-28T09:01:55Z</time>
      </trkpt>
      <trkpt lat="45.14719" lon="5.51642">
        <ele>1056.23</ele>
        <time>2019-08-28T09:01:56Z</time>
      </trkpt>
      <trkpt lat="45.1472" lon="5.51644">
        <ele>1056.39</ele>
        <time>2019-08-28T09:01:57Z</time>
      </trkpt>
      <trkpt lat="45.14722" lon="5.51646">
        <ele>1056.54</ele>
        <time>2019-08-28T09:01:58Z</time>
      </trkpt>
      <trkpt lat="45.14723" lon="5.51648">
        <ele>1056.68</ele>
        <time>2019-08-28T09:01:59Z</time>
      </trkpt>
      <trkpt lat="45.14725" lon="5.51651">
        <ele>1056.8</ele>
        <time>2019-08-28T09:02:00Z</time>
      </trkpt>
      <trkpt lat="45.14744" lon="5.51671">
        <ele>1057.9</ele>
        <time>2019-08-28T09:02:11Z</time>
      </trkpt>
      <trkpt lat="45.14756" lon="5.51688">
        <ele>1058.48</ele>
        <time>2019-08-28T09:02:18Z</time>
      </trkpt>
      <trkpt lat="45.14757" lon="5.5169">
        <ele>1058.54</ele>
        <time>2019-08-28T09:02:19Z</time>
      </trkpt>
      <trkpt lat="45.14759" lon="5.51692">
        <ele>1058.61</ele>
        <time>2019-08-28T09:02:20Z</time>
      </trkpt>
      <trkpt lat="45.14761" lon="5.51694">
        <ele>1058.66</ele>
        <time>2019-08-28T09:02:21Z</time>
      </trkpt>
      <trkpt lat="45.14762" lon="5.51696">
        <ele>1058.7</ele>
        <time>2019-08-28T09:02:22Z</time>
      </trkpt>
      <trkpt lat="45.14764" lon="5.51697">
        <ele>1058.76</ele>
        <time>2019-08-28T09:02:23Z</time>
      </trkpt>
      <trkpt lat="45.14766" lon="5.517">
        <ele>1058.84</ele>
        <time>2019-08-28T09:02:24Z</time>
      </trkpt>
      <trkpt lat="45.14768" lon="5.51702">
        <ele>1058.95</ele>
        <time>2019-08-28T09:02:25Z</time>
      </trkpt>
      <trkpt lat="45.1477" lon="5.51704">
        <ele>1059.08</ele>
        <time>2019-08-28T09:02:26Z</time>
      </trkpt>
      <trkpt lat="45.14771" lon="5.51706">
        <ele>1059.22</ele>
        <time>2019-08-28T09:02:27Z</time>
      </trkpt>
      <trkpt lat="45.14773" lon="5.51708">
        <ele>1059.36</ele>
        <time>2019-08-28T09:02:28Z</time>
      </trkpt>
      <trkpt lat="45.14774" lon="5.5171">
        <ele>1059.5</ele>
        <time>2019-08-28T09:02:29Z</time>
      </trkpt>
      <trkpt lat="45.14775" lon="5.51712">
        <ele>1059.67</ele>
        <time>2019-08-28T09:02:30Z</time>
      </trkpt>
      <trkpt lat="45.14777" lon="5.51714">
        <ele>1059.84</ele>
        <time>2019-08-28T09:02:31Z</time>
      </trkpt>
      <trkpt lat="45.14778" lon="5.51716">
        <ele>1060.02</ele>
        <time>2019-08-28T09:02:32Z</time>
      </trkpt>
      <trkpt lat="45.1478" lon="5.51718">
        <ele>1060.19</ele>
        <time>2019-08-28T09:02:33Z</time>
      </trkpt>
      <trkpt lat="45.14782" lon="5.51719">
        <ele>1060.33</ele>
        <time>2019-08-28T09:02:34Z</time>
      </trkpt>
      <trkpt lat="45.14783" lon="5.51721">
        <ele>1060.61</ele>
        <time>2019-08-28T09:02:35Z</time>
      </trkpt>
      <trkpt lat="45.1479" lon="5.51726">
        <ele>1061.18</ele>
        <time>2019-08-28T09:02:39Z</time>
      </trkpt>
      <trkpt lat="45.14791" lon="5.51727">
        <ele>1061.39</ele>
        <time>2019-08-28T09:02:40Z</time>
      </trkpt>
      <trkpt lat="45.14803" lon="5.51737">
        <ele>1062.74</ele>
        <time>2019-08-28T09:02:49Z</time>
      </trkpt>
      <trkpt lat="45.14806" lon="5.51741">
        <ele>1063</ele>
        <time>2019-08-28T09:02:51Z</time>
      </trkpt>
      <trkpt lat="45.14808" lon="5.51743">
        <ele>1063.13</ele>
        <time>2019-08-28T09:02:52Z</time>
      </trkpt>
      <trkpt lat="45.14809" lon="5.51744">
        <ele>1063.26</ele>
        <time>2019-08-28T09:02:53Z</time>
      </trkpt>
      <trkpt lat="45.14811" lon="5.51745">
        <ele>1063.37</ele>
        <time>2019-08-28T09:02:54Z</time>
      </trkpt>
      <trkpt lat="45.14812" lon="5.51746">
        <ele>1063.49</ele>
        <time>2019-08-28T09:02:55Z</time>
      </trkpt>
      <trkpt lat="45.14831" lon="5.51758">
        <ele>1065.02</ele>
        <time>2019-08-28T09:03:06Z</time>
      </trkpt>
      <trkpt lat="45.1484" lon="5.51765">
        <ele>1065.49</ele>
        <time>2019-08-28T09:03:11Z</time>
      </trkpt>
      <trkpt lat="45.14842" lon="5.51766">
        <ele>1065.6</ele>
        <time>2019-08-28T09:03:12Z</time>
      </trkpt>
      <trkpt lat="45.14845" lon="5.51768">
        <ele>1065.86</ele>
        <time>2019-08-28T09:03:14Z</time>
      </trkpt>
      <trkpt lat="45.14846" lon="5.51769">
        <ele>1065.99</ele>
        <time>2019-08-28T09:03:15Z</time>
      </trkpt>
      <trkpt lat="45.14848" lon="5.51769">
        <ele>1066.11</ele>
        <time>2019-08-28T09:03:16Z</time>
      </trkpt>
      <trkpt lat="45.14868" lon="5.51778">
        <ele>1067.87</ele>
        <time>2019-08-28T09:03:26Z</time>
      </trkpt>
      <trkpt lat="45.14872" lon="5.51778">
        <ele>1068.14</ele>
        <time>2019-08-28T09:03:28Z</time>
      </trkpt>
      <trkpt lat="45.14874" lon="5.51779">
        <ele>1068.26</ele>
        <time>2019-08-28T09:03:29Z</time>
      </trkpt>
      <trkpt lat="45.14876" lon="5.51781">
        <ele>1068.39</ele>
        <time>2019-08-28T09:03:30Z</time>
      </trkpt>
      <trkpt lat="45.14878" lon="5.51781">
        <ele>1068.52</ele>
        <time>2019-08-28T09:03:31Z</time>
      </trkpt>
      <trkpt lat="45.1488" lon="5.51782">
        <ele>1068.64</ele>
        <time>2019-08-28T09:03:32Z</time>
      </trkpt>
      <trkpt lat="45.14882" lon="5.51783">
        <ele>1068.79</ele>
        <time>2019-08-28T09:03:33Z</time>
      </trkpt>
      <trkpt lat="45.14885" lon="5.51783">
        <ele>1068.98</ele>
        <time>2019-08-28T09:03:34Z</time>
      </trkpt>
      <trkpt lat="45.14887" lon="5.51783">
        <ele>1069.17</ele>
        <time>2019-08-28T09:03:35Z</time>
      </trkpt>
      <trkpt lat="45.1489" lon="5.51783">
        <ele>1069.33</ele>
        <time>2019-08-28T09:03:36Z</time>
      </trkpt>
      <trkpt lat="45.14893" lon="5.51783">
        <ele>1069.47</ele>
        <time>2019-08-28T09:03:37Z</time>
      </trkpt>
      <trkpt lat="45.14895" lon="5.51782">
        <ele>1069.6</ele>
        <time>2019-08-28T09:03:38Z</time>
      </trkpt>
      <trkpt lat="45.14897" lon="5.51781">
        <ele>1069.73</ele>
        <time>2019-08-28T09:03:39Z</time>
      </trkpt>
      <trkpt lat="45.14922" lon="5.51761">
        <ele>1071.29</ele>
        <time>2019-08-28T09:03:51Z</time>
      </trkpt>
      <trkpt lat="45.14923" lon="5.51758">
        <ele>1071.36</ele>
        <time>2019-08-28T09:03:52Z</time>
      </trkpt>
      <trkpt lat="45.14925" lon="5.51755">
        <ele>1071.43</ele>
        <time>2019-08-28T09:03:53Z</time>
      </trkpt>
      <trkpt lat="45.14936" lon="5.51731">
        <ele>1072.8</ele>
        <time>2019-08-28T09:04:04Z</time>
      </trkpt>
      <trkpt lat="45.14948" lon="5.51707">
        <ele>1074.59</ele>
        <time>2019-08-28T09:04:15Z</time>
      </trkpt>
      <trkpt lat="45.14949" lon="5.51705">
        <ele>1074.76</ele>
        <time>2019-08-28T09:04:16Z</time>
      </trkpt>
      <trkpt lat="45.1495" lon="5.51703">
        <ele>1074.94</ele>
        <time>2019-08-28T09:04:17Z</time>
      </trkpt>
      <trkpt lat="45.14951" lon="5.517">
        <ele>1075.1</ele>
        <time>2019-08-28T09:04:18Z</time>
      </trkpt>
      <trkpt lat="45.14952" lon="5.51698">
        <ele>1075.24</ele>
        <time>2019-08-28T09:04:19Z</time>
      </trkpt>
      <trkpt lat="45.14953" lon="5.51697">
        <ele>1075.36</ele>
        <time>2019-08-28T09:04:20Z</time>
      </trkpt>
      <trkpt lat="45.14955" lon="5.51695">
        <ele>1075.48</ele>
        <time>2019-08-28T09:04:21Z</time>
      </trkpt>
      <trkpt lat="45.14957" lon="5.51693">
        <ele>1075.6</ele>
        <time>2019-08-28T09:04:22Z</time>
      </trkpt>
      <trkpt lat="45.14959" lon="5.51691">
        <ele>1075.72</ele>
        <time>2019-08-28T09:04:23Z</time>
      </trkpt>
      <trkpt lat="45.14961" lon="5.51689">
        <ele>1075.82</ele>
        <time>2019-08-28T09:04:24Z</time>
      </trkpt>
      <trkpt lat="45.14963" lon="5.51687">
        <ele>1075.93</ele>
        <time>2019-08-28T09:04:25Z</time>
      </trkpt>
      <trkpt lat="45.14964" lon="5.51685">
        <ele>1076.02</ele>
        <time>2019-08-28T09:04:26Z</time>
      </trkpt>
      <trkpt lat="45.14966" lon="5.51684">
        <ele>1076.1</ele>
        <time>2019-08-28T09:04:27Z</time>
      </trkpt>
      <trkpt lat="45.14968" lon="5.51682">
        <ele>1076.19</ele>
        <time>2019-08-28T09:04:28Z</time>
      </trkpt>
      <trkpt lat="45.14971" lon="5.51682">
        <ele>1076.28</ele>
        <time>2019-08-28T09:04:29Z</time>
      </trkpt>
      <trkpt lat="45.14973" lon="5.51681">
        <ele>1076.38</ele>
        <time>2019-08-28T09:04:30Z</time>
      </trkpt>
      <trkpt lat="45.14976" lon="5.51682">
        <ele>1076.48</ele>
        <time>2019-08-28T09:04:31Z</time>
      </trkpt>
      <trkpt lat="45.14978" lon="5.51682">
        <ele>1076.55</ele>
        <time>2019-08-28T09:04:32Z</time>
      </trkpt>
      <trkpt lat="45.1498" lon="5.51683">
        <ele>1076.62</ele>
        <time>2019-08-28T09:04:33Z</time>
      </trkpt>
      <trkpt lat="45.14993" lon="5.51692">
        <ele>1077.9</ele>
        <time>2019-08-28T09:04:43Z</time>
      </trkpt>
      <trkpt lat="45.14997" lon="5.51699">
        <ele>1079.13</ele>
        <time>2019-08-28T09:04:59Z</time>
      </trkpt>
      <trkpt lat="45.14997" lon="5.51703">
        <ele>1079.19</ele>
        <time>2019-08-28T09:05:28Z</time>
      </trkpt>
      <trkpt lat="45.14997" lon="5.51697">
        <ele>1079.71</ele>
        <time>2019-08-28T09:05:59Z</time>
      </trkpt>
      <trkpt lat="45.15002" lon="5.51696">
        <ele>1079.55</ele>
        <time>2019-08-28T09:06:17Z</time>
      </trkpt>
      <trkpt lat="45.14999" lon="5.51693">
        <ele>1079.98</ele>
        <time>2019-08-28T09:06:45Z</time>
      </trkpt>
      <trkpt lat="45.14997" lon="5.51698">
        <ele>1080.15</ele>
        <time>2019-08-28T09:07:15Z</time>
      </trkpt>
      <trkpt lat="45.14996" lon="5.51695">
        <ele>1080.15</ele>
        <time>2019-08-28T09:07:18Z</time>
      </trkpt>
      <trkpt lat="45.14994" lon="5.51694">
        <ele>1080.13</ele>
        <time>2019-08-28T09:07:19Z</time>
      </trkpt>
      <trkpt lat="45.14987" lon="5.51686">
        <ele>1079.95</ele>
        <time>2019-08-28T09:07:24Z</time>
      </trkpt>
      <trkpt lat="45.14986" lon="5.51687">
        <ele>1079.44</ele>
        <time>2019-08-28T09:07:40Z</time>
      </trkpt>
      <trkpt lat="45.14977" lon="5.51686">
        <ele>1079.3</ele>
        <time>2019-08-28T09:07:53Z</time>
      </trkpt>
      <trkpt lat="45.14967" lon="5.51689">
        <ele>1078.65</ele>
        <time>2019-08-28T09:08:13Z</time>
      </trkpt>
      <trkpt lat="45.14964" lon="5.51686">
        <ele>1078.75</ele>
        <time>2019-08-28T09:08:30Z</time>
      </trkpt>
      <trkpt lat="45.14965" lon="5.5169">
        <ele>1078.93</ele>
        <time>2019-08-28T09:08:51Z</time>
      </trkpt>
      <trkpt lat="45.1495" lon="5.51728">
        <ele>1078.33</ele>
        <time>2019-08-28T09:09:04Z</time>
      </trkpt>
      <trkpt lat="45.14939" lon="5.51756">
        <ele>1076.9</ele>
        <time>2019-08-28T09:09:10Z</time>
      </trkpt>
      <trkpt lat="45.14935" lon="5.51762">
        <ele>1076.63</ele>
        <time>2019-08-28T09:09:11Z</time>
      </trkpt>
      <trkpt lat="45.14921" lon="5.51775">
        <ele>1075.43</ele>
        <time>2019-08-28T09:09:14Z</time>
      </trkpt>
      <trkpt lat="45.14915" lon="5.51777">
        <ele>1075.15</ele>
        <time>2019-08-28T09:09:15Z</time>
      </trkpt>
      <trkpt lat="45.14908" lon="5.51777">
        <ele>1074.85</ele>
        <time>2019-08-28T09:09:16Z</time>
      </trkpt>
      <trkpt lat="45.14902" lon="5.51776">
        <ele>1074.55</ele>
        <time>2019-08-28T09:09:17Z</time>
      </trkpt>
      <trkpt lat="45.14895" lon="5.51776">
        <ele>1074.25</ele>
        <time>2019-08-28T09:09:18Z</time>
      </trkpt>
      <trkpt lat="45.14888" lon="5.51774">
        <ele>1073.95</ele>
        <time>2019-08-28T09:09:19Z</time>
      </trkpt>
      <trkpt lat="45.14841" lon="5.51753">
        <ele>1071.72</ele>
        <time>2019-08-28T09:09:26Z</time>
      </trkpt>
      <trkpt lat="45.14822" lon="5.51737">
        <ele>1070.52</ele>
        <time>2019-08-28T09:09:29Z</time>
      </trkpt>
      <trkpt lat="45.14816" lon="5.51731">
        <ele>1070.14</ele>
        <time>2019-08-28T09:09:30Z</time>
      </trkpt>
      <trkpt lat="45.14804" lon="5.51719">
        <ele>1069.32</ele>
        <time>2019-08-28T09:09:32Z</time>
      </trkpt>
      <trkpt lat="45.14785" lon="5.5169">
        <ele>1067.3</ele>
        <time>2019-08-28T09:09:36Z</time>
      </trkpt>
      <trkpt lat="45.14772" lon="5.51673">
        <ele>1065.77</ele>
        <time>2019-08-28T09:09:38Z</time>
      </trkpt>
      <trkpt lat="45.14719" lon="5.51619">
        <ele>1062.37</ele>
        <time>2019-08-28T09:09:45Z</time>
      </trkpt>
      <trkpt lat="45.14711" lon="5.51611">
        <ele>1061.96</ele>
        <time>2019-08-28T09:09:46Z</time>
      </trkpt>
      <trkpt lat="45.14697" lon="5.51595">
        <ele>1061.14</ele>
        <time>2019-08-28T09:09:48Z</time>
      </trkpt>
      <trkpt lat="45.1469" lon="5.51587">
        <ele>1060.7</ele>
        <time>2019-08-28T09:09:49Z</time>
      </trkpt>
      <trkpt lat="45.14682" lon="5.51579">
        <ele>1060.22</ele>
        <time>2019-08-28T09:09:50Z</time>
      </trkpt>
      <trkpt lat="45.14674" lon="5.51572">
        <ele>1059.75</ele>
        <time>2019-08-28T09:09:51Z</time>
      </trkpt>
      <trkpt lat="45.14665" lon="5.51565">
        <ele>1059.27</ele>
        <time>2019-08-28T09:09:52Z</time>
      </trkpt>
      <trkpt lat="45.14656" lon="5.51558">
        <ele>1058.76</ele>
        <time>2019-08-28T09:09:53Z</time>
      </trkpt>
      <trkpt lat="45.14646" lon="5.51553">
        <ele>1058.23</ele>
        <time>2019-08-28T09:09:54Z</time>
      </trkpt>
      <trkpt lat="45.14636" lon="5.51549">
        <ele>1057.67</ele>
        <time>2019-08-28T09:09:55Z</time>
      </trkpt>
      <trkpt lat="45.14627" lon="5.51545">
        <ele>1057.09</ele>
        <time>2019-08-28T09:09:56Z</time>
      </trkpt>
      <trkpt lat="45.14618" lon="5.51542">
        <ele>1056.55</ele>
        <time>2019-08-28T09:09:57Z</time>
      </trkpt>
      <trkpt lat="45.14571" lon="5.51527">
        <ele>1053.45</ele>
        <time>2019-08-28T09:10:02Z</time>
      </trkpt>
      <trkpt lat="45.14512" lon="5.51506">
        <ele>1049.98</ele>
        <time>2019-08-28T09:10:08Z</time>
      </trkpt>
      <trkpt lat="45.14484" lon="5.51496">
        <ele>1048.46</ele>
        <time>2019-08-28T09:10:11Z</time>
      </trkpt>
      <trkpt lat="45.14466" lon="5.5149">
        <ele>1047.44</ele>
        <time>2019-08-28T09:10:13Z</time>
      </trkpt>
      <trkpt lat="45.14459" lon="5.51485">
        <ele>1046.94</ele>
        <time>2019-08-28T09:10:14Z</time>
      </trkpt>
      <trkpt lat="45.14445" lon="5.51476">
        <ele>1045.87</ele>
        <time>2019-08-28T09:10:16Z</time>
      </trkpt>
      <trkpt lat="45.14438" lon="5.51473">
        <ele>1045.38</ele>
        <time>2019-08-28T09:10:17Z</time>
      </trkpt>
      <trkpt lat="45.14431" lon="5.51474">
        <ele>1044.91</ele>
        <time>2019-08-28T09:10:18Z</time>
      </trkpt>
      <trkpt lat="45.14424" lon="5.51478">
        <ele>1044.44</ele>
        <time>2019-08-28T09:10:19Z</time>
      </trkpt>
      <trkpt lat="45.14418" lon="5.51484">
        <ele>1043.99</ele>
        <time>2019-08-28T09:10:20Z</time>
      </trkpt>
      <trkpt lat="45.14412" lon="5.5149">
        <ele>1043.56</ele>
        <time>2019-08-28T09:10:21Z</time>
      </trkpt>
      <trkpt lat="45.14406" lon="5.51496">
        <ele>1043.12</ele>
        <time>2019-08-28T09:10:22Z</time>
      </trkpt>
      <trkpt lat="45.14399" lon="5.515">
        <ele>1042.65</ele>
        <time>2019-08-28T09:10:23Z</time>
      </trkpt>
      <trkpt lat="45.14392" lon="5.51502">
        <ele>1042.22</ele>
        <time>2019-08-28T09:10:24Z</time>
      </trkpt>
      <trkpt lat="45.14384" lon="5.51504">
        <ele>1041.83</ele>
        <time>2019-08-28T09:10:25Z</time>
      </trkpt>
      <trkpt lat="45.14376" lon="5.51505">
        <ele>1041.39</ele>
        <time>2019-08-28T09:10:26Z</time>
      </trkpt>
      <trkpt lat="45.1433" lon="5.5151">
        <ele>1038.1</ele>
        <time>2019-08-28T09:10:32Z</time>
      </trkpt>
      <trkpt lat="45.14319" lon="5.51513">
        <ele>1037.21</ele>
        <time>2019-08-28T09:10:34Z</time>
      </trkpt>
      <trkpt lat="45.14315" lon="5.51515">
        <ele>1036.83</ele>
        <time>2019-08-28T09:10:35Z</time>
      </trkpt>
      <trkpt lat="45.14312" lon="5.51518">
        <ele>1036.48</ele>
        <time>2019-08-28T09:10:36Z</time>
      </trkpt>
      <trkpt lat="45.14311" lon="5.51521">
        <ele>1036.14</ele>
        <time>2019-08-28T09:10:37Z</time>
      </trkpt>
      <trkpt lat="45.14312" lon="5.51524">
        <ele>1035.85</ele>
        <time>2019-08-28T09:10:38Z</time>
      </trkpt>
      <trkpt lat="45.14314" lon="5.51526">
        <ele>1035.6</ele>
        <time>2019-08-28T09:10:39Z</time>
      </trkpt>
      <trkpt lat="45.14317" lon="5.51526">
        <ele>1035.37</ele>
        <time>2019-08-28T09:10:40Z</time>
      </trkpt>
      <trkpt lat="45.1432" lon="5.51526">
        <ele>1035.16</ele>
        <time>2019-08-28T09:10:41Z</time>
      </trkpt>
      <trkpt lat="45.14329" lon="5.51527">
        <ele>1034.1</ele>
        <time>2019-08-28T09:10:50Z</time>
      </trkpt>
      <trkpt lat="45.14332" lon="5.51528">
        <ele>1033.88</ele>
        <time>2019-08-28T09:10:54Z</time>
      </trkpt>
      <trkpt lat="45.14333" lon="5.51529">
        <ele>1033.82</ele>
        <time>2019-08-28T09:10:55Z</time>
      </trkpt>
      <trkpt lat="45.14335" lon="5.51529">
        <ele>1033.76</ele>
        <time>2019-08-28T09:10:56Z</time>
      </trkpt>
      <trkpt lat="45.14337" lon="5.5153">
        <ele>1033.71</ele>
        <time>2019-08-28T09:10:57Z</time>
      </trkpt>
      <trkpt lat="45.14339" lon="5.51531">
        <ele>1033.68</ele>
        <time>2019-08-28T09:10:58Z</time>
      </trkpt>
      <trkpt lat="45.14386" lon="5.51535">
        <ele>1032.98</ele>
        <time>2019-08-28T09:11:11Z</time>
      </trkpt>
      <trkpt lat="45.14411" lon="5.51535">
        <ele>1032.18</ele>
        <time>2019-08-28T09:11:16Z</time>
      </trkpt>
      <trkpt lat="45.14417" lon="5.51536">
        <ele>1032.07</ele>
        <time>2019-08-28T09:11:17Z</time>
      </trkpt>
      <trkpt lat="45.14422" lon="5.51536">
        <ele>1031.93</ele>
        <time>2019-08-28T09:11:18Z</time>
      </trkpt>
      <trkpt lat="45.14428" lon="5.51538">
        <ele>1031.75</ele>
        <time>2019-08-28T09:11:19Z</time>
      </trkpt>
      <trkpt lat="45.14433" lon="5.51541">
        <ele>1031.55</ele>
        <time>2019-08-28T09:11:20Z</time>
      </trkpt>
      <trkpt lat="45.14438" lon="5.51544">
        <ele>1031.34</ele>
        <time>2019-08-28T09:11:21Z</time>
      </trkpt>
      <trkpt lat="45.14442" lon="5.51548">
        <ele>1031.18</ele>
        <time>2019-08-28T09:11:22Z</time>
      </trkpt>
      <trkpt lat="45.14446" lon="5.51553">
        <ele>1031.01</ele>
        <time>2019-08-28T09:11:23Z</time>
      </trkpt>
      <trkpt lat="45.1445" lon="5.51558">
        <ele>1030.86</ele>
        <time>2019-08-28T09:11:24Z</time>
      </trkpt>
      <trkpt lat="45.14453" lon="5.51563">
        <ele>1030.72</ele>
        <time>2019-08-28T09:11:25Z</time>
      </trkpt>
      <trkpt lat="45.14464" lon="5.51582">
        <ele>1030.28</ele>
        <time>2019-08-28T09:11:29Z</time>
      </trkpt>
      <trkpt lat="45.14487" lon="5.51633">
        <ele>1029.38</ele>
        <time>2019-08-28T09:11:42Z</time>
      </trkpt>
      <trkpt lat="45.14491" lon="5.51639">
        <ele>1029.15</ele>
        <time>2019-08-28T09:11:52Z</time>
      </trkpt>
      <trkpt lat="45.14492" lon="5.51642">
        <ele>1029.15</ele>
        <time>2019-08-28T09:11:53Z</time>
      </trkpt>
      <trkpt lat="45.14494" lon="5.51646">
        <ele>1029.16</ele>
        <time>2019-08-28T09:11:54Z</time>
      </trkpt>
      <trkpt lat="45.14496" lon="5.5165">
        <ele>1029.17</ele>
        <time>2019-08-28T09:11:55Z</time>
      </trkpt>
      <trkpt lat="45.14498" lon="5.51655">
        <ele>1029.15</ele>
        <time>2019-08-28T09:11:56Z</time>
      </trkpt>
      <trkpt lat="45.14501" lon="5.51659">
        <ele>1029.12</ele>
        <time>2019-08-28T09:11:57Z</time>
      </trkpt>
      <trkpt lat="45.14537" lon="5.51733">
        <ele>1027.29</ele>
        <time>2019-08-28T09:12:08Z</time>
      </trkpt>
      <trkpt lat="45.14565" lon="5.51797">
        <ele>1023.89</ele>
        <time>2019-08-28T09:12:14Z</time>
      </trkpt>
      <trkpt lat="45.14592" lon="5.51849">
        <ele>1020.26</ele>
        <time>2019-08-28T09:12:19Z</time>
      </trkpt>
      <trkpt lat="45.14627" lon="5.51898">
        <ele>1016.71</ele>
        <time>2019-08-28T09:12:24Z</time>
      </trkpt>
      <trkpt lat="45.14656" lon="5.51937">
        <ele>1014.2</ele>
        <time>2019-08-28T09:12:28Z</time>
      </trkpt>
      <trkpt lat="45.14698" lon="5.51991">
        <ele>1010.92</ele>
        <time>2019-08-28T09:12:34Z</time>
      </trkpt>
      <trkpt lat="45.14771" lon="5.52076">
        <ele>1007.81</ele>
        <time>2019-08-28T09:12:45Z</time>
      </trkpt>
      <trkpt lat="45.1485" lon="5.52157">
        <ele>1005.42</ele>
        <time>2019-08-28T09:12:59Z</time>
      </trkpt>
      <trkpt lat="45.14924" lon="5.52208">
        <ele>1005.55</ele>
        <time>2019-08-28T09:13:15Z</time>
      </trkpt>
      <trkpt lat="45.14967" lon="5.52232">
        <ele>1005.84</ele>
        <time>2019-08-28T09:13:25Z</time>
      </trkpt>
      <trkpt lat="45.14971" lon="5.52235">
        <ele>1005.88</ele>
        <time>2019-08-28T09:13:26Z</time>
      </trkpt>
      <trkpt lat="45.15046" lon="5.52281">
        <ele>1006.83</ele>
        <time>2019-08-28T09:13:46Z</time>
      </trkpt>
      <trkpt lat="45.15076" lon="5.523">
        <ele>1007.09</ele>
        <time>2019-08-28T09:13:57Z</time>
      </trkpt>
      <trkpt lat="45.15092" lon="5.52342">
        <ele>1007.1</ele>
        <time>2019-08-28T09:14:08Z</time>
      </trkpt>
      <trkpt lat="45.15072" lon="5.52397">
        <ele>1007.5</ele>
        <time>2019-08-28T09:14:21Z</time>
      </trkpt>
      <trkpt lat="45.15043" lon="5.52488">
        <ele>1007.78</ele>
        <time>2019-08-28T09:14:39Z</time>
      </trkpt>
      <trkpt lat="45.15023" lon="5.52548">
        <ele>1009.06</ele>
        <time>2019-08-28T09:14:56Z</time>
      </trkpt>
      <trkpt lat="45.15008" lon="5.5259">
        <ele>1009.87</ele>
        <time>2019-08-28T09:15:11Z</time>
      </trkpt>
      <trkpt lat="45.14998" lon="5.52625">
        <ele>1011.54</ele>
        <time>2019-08-28T09:15:23Z</time>
      </trkpt>
      <trkpt lat="45.14999" lon="5.52627">
        <ele>1011.76</ele>
        <time>2019-08-28T09:15:24Z</time>
      </trkpt>
      <trkpt lat="45.14999" lon="5.52629">
        <ele>1012</ele>
        <time>2019-08-28T09:15:25Z</time>
      </trkpt>
      <trkpt lat="45.15" lon="5.5263">
        <ele>1012.22</ele>
        <time>2019-08-28T09:15:26Z</time>
      </trkpt>
      <trkpt lat="45.15002" lon="5.5263">
        <ele>1012.41</ele>
        <time>2019-08-28T09:15:27Z</time>
      </trkpt>
      <trkpt lat="45.15003" lon="5.52631">
        <ele>1012.59</ele>
        <time>2019-08-28T09:15:28Z</time>
      </trkpt>
      <trkpt lat="45.15005" lon="5.52632">
        <ele>1012.75</ele>
        <time>2019-08-28T09:15:29Z</time>
      </trkpt>
      <trkpt lat="45.15007" lon="5.52632">
        <ele>1012.9</ele>
        <time>2019-08-28T09:15:30Z</time>
      </trkpt>
      <trkpt lat="45.15009" lon="5.52633">
        <ele>1013.05</ele>
        <time>2019-08-28T09:15:31Z</time>
      </trkpt>
      <trkpt lat="45.15011" lon="5.52633">
        <ele>1013.19</ele>
        <time>2019-08-28T09:15:32Z</time>
      </trkpt>
      <trkpt lat="45.15013" lon="5.52634">
        <ele>1013.39</ele>
        <time>2019-08-28T09:15:33Z</time>
      </trkpt>
      <trkpt lat="45.1505" lon="5.52647">
        <ele>1014.25</ele>
        <time>2019-08-28T09:15:49Z</time>
      </trkpt>
      <trkpt lat="45.15083" lon="5.52654">
        <ele>1015.06</ele>
        <time>2019-08-28T09:16:02Z</time>
      </trkpt>
      <trkpt lat="45.15131" lon="5.52669">
        <ele>1015.98</ele>
        <time>2019-08-28T09:16:20Z</time>
      </trkpt>
      <trkpt lat="45.15193" lon="5.52688">
        <ele>1015.96</ele>
        <time>2019-08-28T09:16:39Z</time>
      </trkpt>
      <trkpt lat="45.15253" lon="5.52701">
        <ele>1016.69</ele>
        <time>2019-08-28T09:16:57Z</time>
      </trkpt>
      <trkpt lat="45.15321" lon="5.52734">
        <ele>1016.38</ele>
        <time>2019-08-28T09:17:16Z</time>
      </trkpt>
      <trkpt lat="45.15388" lon="5.52766">
        <ele>1016.91</ele>
        <time>2019-08-28T09:17:36Z</time>
      </trkpt>
      <trkpt lat="45.15448" lon="5.528">
        <ele>1018.13</ele>
        <time>2019-08-28T09:17:56Z</time>
      </trkpt>
      <trkpt lat="45.15506" lon="5.5284">
        <ele>1020.06</ele>
        <time>2019-08-28T09:18:16Z</time>
      </trkpt>
      <trkpt lat="45.15568" lon="5.52869">
        <ele>1021.22</ele>
        <time>2019-08-28T09:18:36Z</time>
      </trkpt>
      <trkpt lat="45.15618" lon="5.5289">
        <ele>1024.27</ele>
        <time>2019-08-28T09:18:55Z</time>
      </trkpt>
      <trkpt lat="45.15661" lon="5.52904">
        <ele>1025.28</ele>
        <time>2019-08-28T09:19:11Z</time>
      </trkpt>
      <trkpt lat="45.15703" lon="5.52929">
        <ele>1026.3</ele>
        <time>2019-08-28T09:19:27Z</time>
      </trkpt>
      <trkpt lat="45.15742" lon="5.52959">
        <ele>1028.61</ele>
        <time>2019-08-28T09:19:45Z</time>
      </trkpt>
      <trkpt lat="45.15761" lon="5.53">
        <ele>1030.04</ele>
        <time>2019-08-28T09:20:01Z</time>
      </trkpt>
      <trkpt lat="45.15774" lon="5.53037">
        <ele>1031.06</ele>
        <time>2019-08-28T09:20:12Z</time>
      </trkpt>
      <trkpt lat="45.15791" lon="5.53089">
        <ele>1031.66</ele>
        <time>2019-08-28T09:20:28Z</time>
      </trkpt>
      <trkpt lat="45.15827" lon="5.53143">
        <ele>1032.66</ele>
        <time>2019-08-28T09:20:48Z</time>
      </trkpt>
      <trkpt lat="45.15868" lon="5.53192">
        <ele>1034.73</ele>
        <time>2019-08-28T09:21:10Z</time>
      </trkpt>
      <trkpt lat="45.15902" lon="5.53234">
        <ele>1037.19</ele>
        <time>2019-08-28T09:21:29Z</time>
      </trkpt>
      <trkpt lat="45.15936" lon="5.53293">
        <ele>1038.38</ele>
        <time>2019-08-28T09:21:49Z</time>
      </trkpt>
      <trkpt lat="45.1595" lon="5.53335">
        <ele>1040.12</ele>
        <time>2019-08-28T09:22:03Z</time>
      </trkpt>
      <trkpt lat="45.15963" lon="5.53392">
        <ele>1041.92</ele>
        <time>2019-08-28T09:22:21Z</time>
      </trkpt>
      <trkpt lat="45.15986" lon="5.53441">
        <ele>1042.46</ele>
        <time>2019-08-28T09:22:36Z</time>
      </trkpt>
      <trkpt lat="45.1603" lon="5.53496">
        <ele>1043.19</ele>
        <time>2019-08-28T09:22:56Z</time>
      </trkpt>
      <trkpt lat="45.16084" lon="5.5354">
        <ele>1043.94</ele>
        <time>2019-08-28T09:23:16Z</time>
      </trkpt>
      <trkpt lat="45.16145" lon="5.53577">
        <ele>1042.69</ele>
        <time>2019-08-28T09:23:33Z</time>
      </trkpt>
      <trkpt lat="45.16195" lon="5.53594">
        <ele>1043.3</ele>
        <time>2019-08-28T09:23:49Z</time>
      </trkpt>
      <trkpt lat="45.16231" lon="5.53592">
        <ele>1045.94</ele>
        <time>2019-08-28T09:24:04Z</time>
      </trkpt>
      <trkpt lat="45.16274" lon="5.53593">
        <ele>1048.87</ele>
        <time>2019-08-28T09:24:23Z</time>
      </trkpt>
      <trkpt lat="45.16311" lon="5.53605">
        <ele>1051.47</ele>
        <time>2019-08-28T09:24:41Z</time>
      </trkpt>
      <trkpt lat="45.16345" lon="5.53633">
        <ele>1053.55</ele>
        <time>2019-08-28T09:25:03Z</time>
      </trkpt>
      <trkpt lat="45.16345" lon="5.53632">
        <ele>1053.29</ele>
        <time>2019-08-28T09:25:25Z</time>
      </trkpt>
      <trkpt lat="45.16343" lon="5.53629">
        <ele>1053.07</ele>
        <time>2019-08-28T09:25:57Z</time>
      </trkpt>
      <trkpt lat="45.16345" lon="5.5363">
        <ele>1053.1</ele>
        <time>2019-08-28T09:26:23Z</time>
      </trkpt>
      <trkpt lat="45.16345" lon="5.53632">
        <ele>1052.57</ele>
        <time>2019-08-28T09:26:52Z</time>
      </trkpt>
      <trkpt lat="45.16344" lon="5.53631">
        <ele>1052.68</ele>
        <time>2019-08-28T09:27:26Z</time>
      </trkpt>
      <trkpt lat="45.16343" lon="5.53633">
        <ele>1052.41</ele>
        <time>2019-08-28T09:28:59Z</time>
      </trkpt>
      <trkpt lat="45.16343" lon="5.53633">
        <ele>1051.51</ele>
        <time>2019-08-28T09:31:32Z</time>
      </trkpt>
      <trkpt lat="45.16345" lon="5.53632">
        <ele>1050.57</ele>
        <time>2019-08-28T09:33:57Z</time>
      </trkpt>
      <trkpt lat="45.16348" lon="5.53634">
        <ele>1050.65</ele>
        <time>2019-08-28T09:36:41Z</time>
      </trkpt>
      <trkpt lat="45.16374" lon="5.53665">
        <ele>1049.95</ele>
        <time>2019-08-28T09:36:50Z</time>
      </trkpt>
      <trkpt lat="45.16383" lon="5.53671">
        <ele>1049.42</ele>
        <time>2019-08-28T09:36:52Z</time>
      </trkpt>
      <trkpt lat="45.16387" lon="5.53673">
        <ele>1049.17</ele>
        <time>2019-08-28T09:36:53Z</time>
      </trkpt>
      <trkpt lat="45.16392" lon="5.53674">
        <ele>1048.92</ele>
        <time>2019-08-28T09:36:54Z</time>
      </trkpt>
      <trkpt lat="45.164" lon="5.53675">
        <ele>1048.51</ele>
        <time>2019-08-28T09:36:56Z</time>
      </trkpt>
      <trkpt lat="45.16404" lon="5.53674">
        <ele>1048.34</ele>
        <time>2019-08-28T09:36:57Z</time>
      </trkpt>
      <trkpt lat="45.16408" lon="5.53674">
        <ele>1048.2</ele>
        <time>2019-08-28T09:36:58Z</time>
      </trkpt>
      <trkpt lat="45.16452" lon="5.53688">
        <ele>1047.22</ele>
        <time>2019-08-28T09:37:11Z</time>
      </trkpt>
      <trkpt lat="45.16497" lon="5.53738">
        <ele>1046.03</ele>
        <time>2019-08-28T09:37:25Z</time>
      </trkpt>
      <trkpt lat="45.16525" lon="5.53763">
        <ele>1047.66</ele>
        <time>2019-08-28T09:37:39Z</time>
      </trkpt>
      <trkpt lat="45.16557" lon="5.5378">
        <ele>1049.5</ele>
        <time>2019-08-28T09:37:53Z</time>
      </trkpt>
      <trkpt lat="45.16594" lon="5.5379">
        <ele>1049.89</ele>
        <time>2019-08-28T09:38:07Z</time>
      </trkpt>
      <trkpt lat="45.16626" lon="5.53801">
        <ele>1051.31</ele>
        <time>2019-08-28T09:38:19Z</time>
      </trkpt>
      <trkpt lat="45.16668" lon="5.53831">
        <ele>1052.17</ele>
        <time>2019-08-28T09:38:35Z</time>
      </trkpt>
      <trkpt lat="45.16733" lon="5.53895">
        <ele>1050.43</ele>
        <time>2019-08-28T09:38:52Z</time>
      </trkpt>
      <trkpt lat="45.16759" lon="5.53908">
        <ele>1049.87</ele>
        <time>2019-08-28T09:38:58Z</time>
      </trkpt>
      <trkpt lat="45.16834" lon="5.53895">
        <ele>1049.83</ele>
        <time>2019-08-28T09:39:15Z</time>
      </trkpt>
      <trkpt lat="45.16868" lon="5.53895">
        <ele>1049.99</ele>
        <time>2019-08-28T09:39:23Z</time>
      </trkpt>
      <trkpt lat="45.16942" lon="5.53931">
        <ele>1049.09</ele>
        <time>2019-08-28T09:39:40Z</time>
      </trkpt>
      <trkpt lat="45.17005" lon="5.53951">
        <ele>1047.78</ele>
        <time>2019-08-28T09:39:54Z</time>
      </trkpt>
      <trkpt lat="45.17009" lon="5.53954">
        <ele>1047.65</ele>
        <time>2019-08-28T09:39:55Z</time>
      </trkpt>
      <trkpt lat="45.17013" lon="5.53956">
        <ele>1047.51</ele>
        <time>2019-08-28T09:39:56Z</time>
      </trkpt>
      <trkpt lat="45.17017" lon="5.5396">
        <ele>1047.22</ele>
        <time>2019-08-28T09:39:57Z</time>
      </trkpt>
      <trkpt lat="45.17022" lon="5.53963">
        <ele>1047.22</ele>
        <time>2019-08-28T09:39:58Z</time>
      </trkpt>
      <trkpt lat="45.17074" lon="5.54027">
        <ele>1044.72</ele>
        <time>2019-08-28T09:40:10Z</time>
      </trkpt>
      <trkpt lat="45.17113" lon="5.54066">
        <ele>1043.98</ele>
        <time>2019-08-28T09:40:19Z</time>
      </trkpt>
      <trkpt lat="45.17183" lon="5.54132">
        <ele>1042.84</ele>
        <time>2019-08-28T09:40:35Z</time>
      </trkpt>
      <trkpt lat="45.17263" lon="5.54193">
        <ele>1042.22</ele>
        <time>2019-08-28T09:40:55Z</time>
      </trkpt>
      <trkpt lat="45.17304" lon="5.5421">
        <ele>1041.81</ele>
        <time>2019-08-28T09:41:09Z</time>
      </trkpt>
      <trkpt lat="45.17338" lon="5.54213">
        <ele>1041.53</ele>
        <time>2019-08-28T09:41:23Z</time>
      </trkpt>
      <trkpt lat="45.17369" lon="5.54215">
        <ele>1041.38</ele>
        <time>2019-08-28T09:41:38Z</time>
      </trkpt>
      <trkpt lat="45.1739" lon="5.54217">
        <ele>1041.12</ele>
        <time>2019-08-28T09:41:51Z</time>
      </trkpt>
      <trkpt lat="45.17392" lon="5.54217">
        <ele>1041.28</ele>
        <time>2019-08-28T09:42:15Z</time>
      </trkpt>
      <trkpt lat="45.17393" lon="5.54215">
        <ele>1041.27</ele>
        <time>2019-08-28T09:42:16Z</time>
      </trkpt>
      <trkpt lat="45.17393" lon="5.54214">
        <ele>1041.25</ele>
        <time>2019-08-28T09:42:17Z</time>
      </trkpt>
      <trkpt lat="45.17394" lon="5.54211">
        <ele>1041.24</ele>
        <time>2019-08-28T09:42:18Z</time>
      </trkpt>
      <trkpt lat="45.17394" lon="5.54209">
        <ele>1041.23</ele>
        <time>2019-08-28T09:42:19Z</time>
      </trkpt>
      <trkpt lat="45.17395" lon="5.54207">
        <ele>1041.22</ele>
        <time>2019-08-28T09:42:20Z</time>
      </trkpt>
      <trkpt lat="45.17395" lon="5.54204">
        <ele>1041.19</ele>
        <time>2019-08-28T09:42:21Z</time>
      </trkpt>
      <trkpt lat="45.1741" lon="5.54162">
        <ele>1041.09</ele>
        <time>2019-08-28T09:42:34Z</time>
      </trkpt>
      <trkpt lat="45.17414" lon="5.54155">
        <ele>1041.39</ele>
        <time>2019-08-28T09:42:37Z</time>
      </trkpt>
      <trkpt lat="45.17416" lon="5.54153">
        <ele>1041.51</ele>
        <time>2019-08-28T09:42:38Z</time>
      </trkpt>
      <trkpt lat="45.17418" lon="5.54151">
        <ele>1041.64</ele>
        <time>2019-08-28T09:42:39Z</time>
      </trkpt>
      <trkpt lat="45.1742" lon="5.5415">
        <ele>1041.74</ele>
        <time>2019-08-28T09:42:40Z</time>
      </trkpt>
      <trkpt lat="45.17423" lon="5.54149">
        <ele>1041.83</ele>
        <time>2019-08-28T09:42:41Z</time>
      </trkpt>
      <trkpt lat="45.17425" lon="5.54147">
        <ele>1041.93</ele>
        <time>2019-08-28T09:42:42Z</time>
      </trkpt>
      <trkpt lat="45.17427" lon="5.54145">
        <ele>1042.03</ele>
        <time>2019-08-28T09:42:43Z</time>
      </trkpt>
      <trkpt lat="45.17429" lon="5.54142">
        <ele>1042.12</ele>
        <time>2019-08-28T09:42:44Z</time>
      </trkpt>
      <trkpt lat="45.17443" lon="5.54129">
        <ele>1042.63</ele>
        <time>2019-08-28T09:42:51Z</time>
      </trkpt>
      <trkpt lat="45.17446" lon="5.54128">
        <ele>1042.63</ele>
        <time>2019-08-28T09:42:52Z</time>
      </trkpt>
      <trkpt lat="45.17462" lon="5.54136">
        <ele>1044.12</ele>
        <time>2019-08-28T09:43:02Z</time>
      </trkpt>
      <trkpt lat="45.17474" lon="5.54157">
        <ele>1045.8</ele>
        <time>2019-08-28T09:43:12Z</time>
      </trkpt>
      <trkpt lat="45.17478" lon="5.54165">
        <ele>1046.25</ele>
        <time>2019-08-28T09:43:15Z</time>
      </trkpt>
      <trkpt lat="45.17483" lon="5.54177">
        <ele>1047.25</ele>
        <time>2019-08-28T09:43:25Z</time>
      </trkpt>
      <trkpt lat="45.17486" lon="5.54184">
        <ele>1047.82</ele>
        <time>2019-08-28T09:43:48Z</time>
      </trkpt>
      <trkpt lat="45.17488" lon="5.54184">
        <ele>1047.5</ele>
        <time>2019-08-28T09:45:15Z</time>
      </trkpt>
      <trkpt lat="45.17488" lon="5.54183">
        <ele>1047.16</ele>
        <time>2019-08-28T09:47:26Z</time>
      </trkpt>
      <trkpt lat="45.17487" lon="5.54183">
        <ele>1047.06</ele>
        <time>2019-08-28T09:49:32Z</time>
      </trkpt>
      <trkpt lat="45.17484" lon="5.54185">
        <ele>1046.38</ele>
        <time>2019-08-28T09:52:30Z</time>
      </trkpt>
      <trkpt lat="45.17484" lon="5.54185">
        <ele>1045.86</ele>
        <time>2019-08-28T09:54:55Z</time>
      </trkpt>
      <trkpt lat="45.17486" lon="5.54186">
        <ele>1045.79</ele>
        <time>2019-08-28T09:56:12Z</time>
      </trkpt>
      <trkpt lat="45.17486" lon="5.54186">
        <ele>1045.53</ele>
        <time>2019-08-28T09:56:59Z</time>
      </trkpt>
      <trkpt lat="45.17486" lon="5.54187">
        <ele>1045.44</ele>
        <time>2019-08-28T09:57:36Z</time>
      </trkpt>
      <trkpt lat="45.17485" lon="5.54186">
        <ele>1045.47</ele>
        <time>2019-08-28T09:58:24Z</time>
      </trkpt>
      <trkpt lat="45.17485" lon="5.54183">
        <ele>1045.18</ele>
        <time>2019-08-28T09:58:44Z</time>
      </trkpt>
      <trkpt lat="45.17484" lon="5.54182">
        <ele>1044.99</ele>
        <time>2019-08-28T09:59:11Z</time>
      </trkpt>
      <trkpt lat="45.17482" lon="5.54182">
        <ele>1045.12</ele>
        <time>2019-08-28T09:59:41Z</time>
      </trkpt>
      <trkpt lat="45.17479" lon="5.54176">
        <ele>1045.03</ele>
        <time>2019-08-28T09:59:50Z</time>
      </trkpt>
      <trkpt lat="45.17478" lon="5.54175">
        <ele>1045.03</ele>
        <time>2019-08-28T09:59:51Z</time>
      </trkpt>
      <trkpt lat="45.17477" lon="5.54175">
        <ele>1045.03</ele>
        <time>2019-08-28T09:59:52Z</time>
      </trkpt>
      <trkpt lat="45.17475" lon="5.54175">
        <ele>1045.05</ele>
        <time>2019-08-28T09:59:53Z</time>
      </trkpt>
      <trkpt lat="45.17474" lon="5.54175">
        <ele>1045.09</ele>
        <time>2019-08-28T09:59:54Z</time>
      </trkpt>
      <trkpt lat="45.17463" lon="5.54175">
        <ele>1046.07</ele>
        <time>2019-08-28T10:00:02Z</time>
      </trkpt>
      <trkpt lat="45.17462" lon="5.54175">
        <ele>1046.22</ele>
        <time>2019-08-28T10:00:03Z</time>
      </trkpt>
      <trkpt lat="45.17461" lon="5.54176">
        <ele>1046.34</ele>
        <time>2019-08-28T10:00:04Z</time>
      </trkpt>
      <trkpt lat="45.1746" lon="5.54177">
        <ele>1046.44</ele>
        <time>2019-08-28T10:00:05Z</time>
      </trkpt>
      <trkpt lat="45.17458" lon="5.54177">
        <ele>1046.53</ele>
        <time>2019-08-28T10:00:06Z</time>
      </trkpt>
      <trkpt lat="45.17457" lon="5.54178">
        <ele>1046.65</ele>
        <time>2019-08-28T10:00:07Z</time>
      </trkpt>
      <trkpt lat="45.17456" lon="5.54179">
        <ele>1046.7</ele>
        <time>2019-08-28T10:00:08Z</time>
      </trkpt>
      <trkpt lat="45.17455" lon="5.5418">
        <ele>1046.74</ele>
        <time>2019-08-28T10:00:09Z</time>
      </trkpt>
      <trkpt lat="45.17455" lon="5.54182">
        <ele>1046.79</ele>
        <time>2019-08-28T10:00:10Z</time>
      </trkpt>
      <trkpt lat="45.17454" lon="5.54185">
        <ele>1046.82</ele>
        <time>2019-08-28T10:00:11Z</time>
      </trkpt>
      <trkpt lat="45.17452" lon="5.54198">
        <ele>1046.97</ele>
        <time>2019-08-28T10:00:17Z</time>
      </trkpt>
      <trkpt lat="45.17451" lon="5.542">
        <ele>1046.95</ele>
        <time>2019-08-28T10:00:18Z</time>
      </trkpt>
      <trkpt lat="45.17449" lon="5.54201">
        <ele>1046.91</ele>
        <time>2019-08-28T10:00:19Z</time>
      </trkpt>
      <trkpt lat="45.17447" lon="5.54202">
        <ele>1046.87</ele>
        <time>2019-08-28T10:00:20Z</time>
      </trkpt>
      <trkpt lat="45.17446" lon="5.54203">
        <ele>1046.81</ele>
        <time>2019-08-28T10:00:21Z</time>
      </trkpt>
      <trkpt lat="45.17444" lon="5.54203">
        <ele>1046.72</ele>
        <time>2019-08-28T10:00:22Z</time>
      </trkpt>
      <trkpt lat="45.17443" lon="5.54204">
        <ele>1046.59</ele>
        <time>2019-08-28T10:00:23Z</time>
      </trkpt>
      <trkpt lat="45.17441" lon="5.54204">
        <ele>1046.45</ele>
        <time>2019-08-28T10:00:24Z</time>
      </trkpt>
      <trkpt lat="45.17439" lon="5.54205">
        <ele>1046.31</ele>
        <time>2019-08-28T10:00:25Z</time>
      </trkpt>
      <trkpt lat="45.17418" lon="5.54206">
        <ele>1043.01</ele>
        <time>2019-08-28T10:00:35Z</time>
      </trkpt>
      <trkpt lat="45.17415" lon="5.54206">
        <ele>1042.53</ele>
        <time>2019-08-28T10:00:36Z</time>
      </trkpt>
      <trkpt lat="45.17412" lon="5.54207">
        <ele>1042.09</ele>
        <time>2019-08-28T10:00:37Z</time>
      </trkpt>
      <trkpt lat="45.1741" lon="5.54207">
        <ele>1041.67</ele>
        <time>2019-08-28T10:00:38Z</time>
      </trkpt>
      <trkpt lat="45.17408" lon="5.54208">
        <ele>1041.25</ele>
        <time>2019-08-28T10:00:39Z</time>
      </trkpt>
      <trkpt lat="45.17402" lon="5.54213">
        <ele>1039.73</ele>
        <time>2019-08-28T10:00:44Z</time>
      </trkpt>
      <trkpt lat="45.17397" lon="5.54243">
        <ele>1038.88</ele>
        <time>2019-08-28T10:00:56Z</time>
      </trkpt>
      <trkpt lat="45.17395" lon="5.54275">
        <ele>1039.27</ele>
        <time>2019-08-28T10:01:11Z</time>
      </trkpt>
      <trkpt lat="45.17399" lon="5.54301">
        <ele>1039.65</ele>
        <time>2019-08-28T10:01:23Z</time>
      </trkpt>
      <trkpt lat="45.17417" lon="5.5434">
        <ele>1040.54</ele>
        <time>2019-08-28T10:01:40Z</time>
      </trkpt>
      <trkpt lat="45.1742" lon="5.54367">
        <ele>1042</ele>
        <time>2019-08-28T10:01:52Z</time>
      </trkpt>
      <trkpt lat="45.17417" lon="5.54376">
        <ele>1042.29</ele>
        <time>2019-08-28T10:01:56Z</time>
      </trkpt>
      <trkpt lat="45.17405" lon="5.54407">
        <ele>1043.02</ele>
        <time>2019-08-28T10:02:08Z</time>
      </trkpt>
      <trkpt lat="45.17387" lon="5.54445">
        <ele>1043.96</ele>
        <time>2019-08-28T10:02:21Z</time>
      </trkpt>
      <trkpt lat="45.17377" lon="5.54465">
        <ele>1044.38</ele>
        <time>2019-08-28T10:02:30Z</time>
      </trkpt>
      <trkpt lat="45.17373" lon="5.54468">
        <ele>1045.32</ele>
        <time>2019-08-28T10:02:47Z</time>
      </trkpt>
      <trkpt lat="45.17373" lon="5.54471">
        <ele>1045.46</ele>
        <time>2019-08-28T10:03:14Z</time>
      </trkpt>
      <trkpt lat="45.17375" lon="5.54485">
        <ele>1045.46</ele>
        <time>2019-08-28T10:03:34Z</time>
      </trkpt>
      <trkpt lat="45.17377" lon="5.54496">
        <ele>1045.71</ele>
        <time>2019-08-28T10:03:49Z</time>
      </trkpt>
      <trkpt lat="45.17379" lon="5.54499">
        <ele>1045.56</ele>
        <time>2019-08-28T10:04:02Z</time>
      </trkpt>
      <trkpt lat="45.17382" lon="5.54513">
        <ele>1045.6</ele>
        <time>2019-08-28T10:04:08Z</time>
      </trkpt>
      <trkpt lat="45.17384" lon="5.54515">
        <ele>1045.62</ele>
        <time>2019-08-28T10:04:09Z</time>
      </trkpt>
      <trkpt lat="45.174" lon="5.54539">
        <ele>1045.37</ele>
        <time>2019-08-28T10:04:22Z</time>
      </trkpt>
      <trkpt lat="45.17423" lon="5.54571">
        <ele>1046.01</ele>
        <time>2019-08-28T10:04:36Z</time>
      </trkpt>
      <trkpt lat="45.17432" lon="5.54583">
        <ele>1046.76</ele>
        <time>2019-08-28T10:04:48Z</time>
      </trkpt>
      <trkpt lat="45.17433" lon="5.54584">
        <ele>1046.78</ele>
        <time>2019-08-28T10:04:49Z</time>
      </trkpt>
      <trkpt lat="45.17436" lon="5.54586">
        <ele>1046.83</ele>
        <time>2019-08-28T10:04:51Z</time>
      </trkpt>
      <trkpt lat="45.17437" lon="5.54588">
        <ele>1046.87</ele>
        <time>2019-08-28T10:04:52Z</time>
      </trkpt>
      <trkpt lat="45.17473" lon="5.54637">
        <ele>1048.35</ele>
        <time>2019-08-28T10:05:11Z</time>
      </trkpt>
      <trkpt lat="45.17514" lon="5.54694">
        <ele>1049.97</ele>
        <time>2019-08-28T10:05:33Z</time>
      </trkpt>
      <trkpt lat="45.17517" lon="5.5475">
        <ele>1051.44</ele>
        <time>2019-08-28T10:05:51Z</time>
      </trkpt>
      <trkpt lat="45.17511" lon="5.548">
        <ele>1052.25</ele>
        <time>2019-08-28T10:06:06Z</time>
      </trkpt>
      <trkpt lat="45.17508" lon="5.54834">
        <ele>1052.86</ele>
        <time>2019-08-28T10:06:17Z</time>
      </trkpt>
      <trkpt lat="45.17504" lon="5.54883">
        <ele>1053.88</ele>
        <time>2019-08-28T10:06:31Z</time>
      </trkpt>
      <trkpt lat="45.17525" lon="5.54933">
        <ele>1055.39</ele>
        <time>2019-08-28T10:06:46Z</time>
      </trkpt>
      <trkpt lat="45.17555" lon="5.54983">
        <ele>1057.39</ele>
        <time>2019-08-28T10:07:07Z</time>
      </trkpt>
      <trkpt lat="45.17572" lon="5.55031">
        <ele>1059.87</ele>
        <time>2019-08-28T10:07:27Z</time>
      </trkpt>
      <trkpt lat="45.17563" lon="5.5507">
        <ele>1062.13</ele>
        <time>2019-08-28T10:07:44Z</time>
      </trkpt>
      <trkpt lat="45.17541" lon="5.55115">
        <ele>1064.43</ele>
        <time>2019-08-28T10:08:03Z</time>
      </trkpt>
      <trkpt lat="45.17523" lon="5.5516">
        <ele>1066.59</ele>
        <time>2019-08-28T10:08:21Z</time>
      </trkpt>
      <trkpt lat="45.1751" lon="5.55219">
        <ele>1068.34</ele>
        <time>2019-08-28T10:08:41Z</time>
      </trkpt>
      <trkpt lat="45.17504" lon="5.55292">
        <ele>1068.54</ele>
        <time>2019-08-28T10:08:59Z</time>
      </trkpt>
      <trkpt lat="45.17511" lon="5.55359">
        <ele>1068.25</ele>
        <time>2019-08-28T10:09:16Z</time>
      </trkpt>
      <trkpt lat="45.17509" lon="5.55442">
        <ele>1068.84</ele>
        <time>2019-08-28T10:09:36Z</time>
      </trkpt>
      <trkpt lat="45.17492" lon="5.55495">
        <ele>1070.74</ele>
        <time>2019-08-28T10:09:53Z</time>
      </trkpt>
      <trkpt lat="45.17463" lon="5.55541">
        <ele>1073.25</ele>
        <time>2019-08-28T10:10:13Z</time>
      </trkpt>
      <trkpt lat="45.17445" lon="5.55567">
        <ele>1075.83</ele>
        <time>2019-08-28T10:10:29Z</time>
      </trkpt>
      <trkpt lat="45.17428" lon="5.55591">
        <ele>1078.3</ele>
        <time>2019-08-28T10:10:46Z</time>
      </trkpt>
      <trkpt lat="45.17404" lon="5.55618">
        <ele>1081.39</ele>
        <time>2019-08-28T10:11:07Z</time>
      </trkpt>
      <trkpt lat="45.17389" lon="5.55642">
        <ele>1084.4</ele>
        <time>2019-08-28T10:11:22Z</time>
      </trkpt>
      <trkpt lat="45.17384" lon="5.55662">
        <ele>1086.91</ele>
        <time>2019-08-28T10:11:34Z</time>
      </trkpt>
      <trkpt lat="45.17384" lon="5.55664">
        <ele>1087.4</ele>
        <time>2019-08-28T10:11:35Z</time>
      </trkpt>
      <trkpt lat="45.17384" lon="5.55666">
        <ele>1087.63</ele>
        <time>2019-08-28T10:11:36Z</time>
      </trkpt>
      <trkpt lat="45.17384" lon="5.55668">
        <ele>1087.83</ele>
        <time>2019-08-28T10:11:37Z</time>
      </trkpt>
      <trkpt lat="45.17384" lon="5.5567">
        <ele>1088.02</ele>
        <time>2019-08-28T10:11:38Z</time>
      </trkpt>
      <trkpt lat="45.17384" lon="5.55671">
        <ele>1088.18</ele>
        <time>2019-08-28T10:11:39Z</time>
      </trkpt>
      <trkpt lat="45.17386" lon="5.55682">
        <ele>1089.46</ele>
        <time>2019-08-28T10:11:45Z</time>
      </trkpt>
      <trkpt lat="45.17386" lon="5.55684">
        <ele>1089.64</ele>
        <time>2019-08-28T10:11:46Z</time>
      </trkpt>
      <trkpt lat="45.17387" lon="5.55685">
        <ele>1089.83</ele>
        <time>2019-08-28T10:11:47Z</time>
      </trkpt>
      <trkpt lat="45.17387" lon="5.55687">
        <ele>1090.01</ele>
        <time>2019-08-28T10:11:48Z</time>
      </trkpt>
      <trkpt lat="45.17387" lon="5.55689">
        <ele>1090.17</ele>
        <time>2019-08-28T10:11:49Z</time>
      </trkpt>
      <trkpt lat="45.17387" lon="5.55691">
        <ele>1090.33</ele>
        <time>2019-08-28T10:11:50Z</time>
      </trkpt>
      <trkpt lat="45.17387" lon="5.55694">
        <ele>1090.49</ele>
        <time>2019-08-28T10:11:51Z</time>
      </trkpt>
      <trkpt lat="45.17387" lon="5.55696">
        <ele>1090.66</ele>
        <time>2019-08-28T10:11:52Z</time>
      </trkpt>
      <trkpt lat="45.17387" lon="5.55698">
        <ele>1090.84</ele>
        <time>2019-08-28T10:11:53Z</time>
      </trkpt>
      <trkpt lat="45.17386" lon="5.557">
        <ele>1091.04</ele>
        <time>2019-08-28T10:11:54Z</time>
      </trkpt>
      <trkpt lat="45.17386" lon="5.55702">
        <ele>1091.27</ele>
        <time>2019-08-28T10:11:55Z</time>
      </trkpt>
      <trkpt lat="45.17386" lon="5.55704">
        <ele>1091.49</ele>
        <time>2019-08-28T10:11:56Z</time>
      </trkpt>
      <trkpt lat="45.17386" lon="5.55706">
        <ele>1091.7</ele>
        <time>2019-08-28T10:11:57Z</time>
      </trkpt>
      <trkpt lat="45.17385" lon="5.55708">
        <ele>1091.88</ele>
        <time>2019-08-28T10:11:58Z</time>
      </trkpt>
      <trkpt lat="45.17385" lon="5.5571">
        <ele>1092.26</ele>
        <time>2019-08-28T10:11:59Z</time>
      </trkpt>
      <trkpt lat="45.17368" lon="5.55736">
        <ele>1094.63</ele>
        <time>2019-08-28T10:12:15Z</time>
      </trkpt>
      <trkpt lat="45.17364" lon="5.55741">
        <ele>1094.49</ele>
        <time>2019-08-28T10:12:30Z</time>
      </trkpt>
      <trkpt lat="45.1736" lon="5.5573">
        <ele>1095.26</ele>
        <time>2019-08-28T10:12:44Z</time>
      </trkpt>
      <trkpt lat="45.17359" lon="5.55729">
        <ele>1095.32</ele>
        <time>2019-08-28T10:12:45Z</time>
      </trkpt>
      <trkpt lat="45.17359" lon="5.55727">
        <ele>1095.36</ele>
        <time>2019-08-28T10:12:46Z</time>
      </trkpt>
      <trkpt lat="45.17358" lon="5.55726">
        <ele>1095.43</ele>
        <time>2019-08-28T10:12:47Z</time>
      </trkpt>
      <trkpt lat="45.17354" lon="5.55713">
        <ele>1095.83</ele>
        <time>2019-08-28T10:12:58Z</time>
      </trkpt>
      <trkpt lat="45.17355" lon="5.55711">
        <ele>1095.85</ele>
        <time>2019-08-28T10:13:13Z</time>
      </trkpt>
      <trkpt lat="45.17355" lon="5.55712">
        <ele>1095.67</ele>
        <time>2019-08-28T10:14:02Z</time>
      </trkpt>
      <trkpt lat="45.17354" lon="5.55713">
        <ele>1095.86</ele>
        <time>2019-08-28T10:15:30Z</time>
      </trkpt>
      <trkpt lat="45.17354" lon="5.55713">
        <ele>1096.09</ele>
        <time>2019-08-28T10:17:38Z</time>
      </trkpt>
      <trkpt lat="45.17351" lon="5.55713">
        <ele>1096.18</ele>
        <time>2019-08-28T10:21:25Z</time>
      </trkpt>
      <trkpt lat="45.17354" lon="5.55712">
        <ele>1096.27</ele>
        <time>2019-08-28T10:23:55Z</time>
      </trkpt>
      <trkpt lat="45.17354" lon="5.55713">
        <ele>1096.4</ele>
        <time>2019-08-28T10:25:35Z</time>
      </trkpt>
      <trkpt lat="45.17354" lon="5.55712">
        <ele>1096.13</ele>
        <time>2019-08-28T10:27:07Z</time>
      </trkpt>
      <trkpt lat="45.17354" lon="5.55714">
        <ele>1096.49</ele>
        <time>2019-08-28T10:28:36Z</time>
      </trkpt>
      <trkpt lat="45.17354" lon="5.55712">
        <ele>1096.42</ele>
        <time>2019-08-28T10:31:13Z</time>
      </trkpt>
      <trkpt lat="45.17352" lon="5.55716">
        <ele>1096.02</ele>
        <time>2019-08-28T10:34:41Z</time>
      </trkpt>
      <trkpt lat="45.17355" lon="5.55713">
        <ele>1095.8</ele>
        <time>2019-08-28T10:36:35Z</time>
      </trkpt>
      <trkpt lat="45.17353" lon="5.55712">
        <ele>1096.07</ele>
        <time>2019-08-28T10:39:02Z</time>
      </trkpt>
      <trkpt lat="45.17354" lon="5.55712">
        <ele>1096.04</ele>
        <time>2019-08-28T10:40:59Z</time>
      </trkpt>
      <trkpt lat="45.17352" lon="5.55712">
        <ele>1096.2</ele>
        <time>2019-08-28T10:48:47Z</time>
      </trkpt>
      <trkpt lat="45.17352" lon="5.55712">
        <ele>1096.16</ele>
        <time>2019-08-28T10:52:43Z</time>
      </trkpt>
      <trkpt lat="45.17351" lon="5.55713">
        <ele>1095.65</ele>
        <time>2019-08-28T10:56:26Z</time>
      </trkpt>
      <trkpt lat="45.17353" lon="5.55713">
        <ele>1095.78</ele>
        <time>2019-08-28T10:57:59Z</time>
      </trkpt>
      <trkpt lat="45.17353" lon="5.55713">
        <ele>1095.79</ele>
        <time>2019-08-28T10:59:42Z</time>
      </trkpt>
      <trkpt lat="45.17353" lon="5.55715">
        <ele>1095.9</ele>
        <time>2019-08-28T10:59:57Z</time>
      </trkpt>
      <trkpt lat="45.17353" lon="5.55715">
        <ele>1095.95</ele>
        <time>2019-08-28T11:00:15Z</time>
      </trkpt>
      <trkpt lat="45.17353" lon="5.55718">
        <ele>1096.03</ele>
        <time>2019-08-28T11:00:38Z</time>
      </trkpt>
      <trkpt lat="45.17356" lon="5.55721">
        <ele>1095.74</ele>
        <time>2019-08-28T11:01:14Z</time>
      </trkpt>
      <trkpt lat="45.17357" lon="5.55724">
        <ele>1095.51</ele>
        <time>2019-08-28T11:01:33Z</time>
      </trkpt>
      <trkpt lat="45.17359" lon="5.55728">
        <ele>1095.58</ele>
        <time>2019-08-28T11:01:56Z</time>
      </trkpt>
      <trkpt lat="45.17359" lon="5.5573">
        <ele>1095.55</ele>
        <time>2019-08-28T11:01:57Z</time>
      </trkpt>
      <trkpt lat="45.17359" lon="5.55732">
        <ele>1095.51</ele>
        <time>2019-08-28T11:01:58Z</time>
      </trkpt>
      <trkpt lat="45.17349" lon="5.5577">
        <ele>1094.22</ele>
        <time>2019-08-28T11:02:10Z</time>
      </trkpt>
      <trkpt lat="45.17344" lon="5.55788">
        <ele>1093.28</ele>
        <time>2019-08-28T11:02:13Z</time>
      </trkpt>
      <trkpt lat="45.17343" lon="5.55795">
        <ele>1092.9</ele>
        <time>2019-08-28T11:02:14Z</time>
      </trkpt>
      <trkpt lat="45.17343" lon="5.55802">
        <ele>1092.51</ele>
        <time>2019-08-28T11:02:15Z</time>
      </trkpt>
      <trkpt lat="45.17343" lon="5.55808">
        <ele>1092.12</ele>
        <time>2019-08-28T11:02:16Z</time>
      </trkpt>
      <trkpt lat="45.17343" lon="5.55814">
        <ele>1091.74</ele>
        <time>2019-08-28T11:02:17Z</time>
      </trkpt>
      <trkpt lat="45.17344" lon="5.55819">
        <ele>1091.38</ele>
        <time>2019-08-28T11:02:18Z</time>
      </trkpt>
      <trkpt lat="45.17353" lon="5.55876">
        <ele>1089.49</ele>
        <time>2019-08-28T11:02:31Z</time>
      </trkpt>
      <trkpt lat="45.17366" lon="5.55928">
        <ele>1090.26</ele>
        <time>2019-08-28T11:02:49Z</time>
      </trkpt>
      <trkpt lat="45.17375" lon="5.55977">
        <ele>1091.5</ele>
        <time>2019-08-28T11:03:07Z</time>
      </trkpt>
      <trkpt lat="45.17379" lon="5.56029">
        <ele>1093.67</ele>
        <time>2019-08-28T11:03:27Z</time>
      </trkpt>
      <trkpt lat="45.17374" lon="5.56046">
        <ele>1094.36</ele>
        <time>2019-08-28T11:03:38Z</time>
      </trkpt>
      <trkpt lat="45.1737" lon="5.5605">
        <ele>1094.84</ele>
        <time>2019-08-28T11:03:54Z</time>
      </trkpt>
      <trkpt lat="45.17367" lon="5.56049">
        <ele>1095.14</ele>
        <time>2019-08-28T11:04:16Z</time>
      </trkpt>
      <trkpt lat="45.17364" lon="5.56048">
        <ele>1095.29</ele>
        <time>2019-08-28T11:04:20Z</time>
      </trkpt>
      <trkpt lat="45.17356" lon="5.5604">
        <ele>1095.72</ele>
        <time>2019-08-28T11:04:33Z</time>
      </trkpt>
      <trkpt lat="45.17346" lon="5.56022">
        <ele>1096.83</ele>
        <time>2019-08-28T11:04:50Z</time>
      </trkpt>
      <trkpt lat="45.17337" lon="5.55997">
        <ele>1098.37</ele>
        <time>2019-08-28T11:05:10Z</time>
      </trkpt>
      <trkpt lat="45.1733" lon="5.55986">
        <ele>1099.47</ele>
        <time>2019-08-28T11:05:27Z</time>
      </trkpt>
      <trkpt lat="45.17309" lon="5.55975">
        <ele>1100.06</ele>
        <time>2019-08-28T11:05:44Z</time>
      </trkpt>
      <trkpt lat="45.17283" lon="5.55986">
        <ele>1101.55</ele>
        <time>2019-08-28T11:05:59Z</time>
      </trkpt>
      <trkpt lat="45.17256" lon="5.56001">
        <ele>1103.77</ele>
        <time>2019-08-28T11:06:16Z</time>
      </trkpt>
      <trkpt lat="45.17245" lon="5.56007">
        <ele>1105.22</ele>
        <time>2019-08-28T11:06:24Z</time>
      </trkpt>
      <trkpt lat="45.17228" lon="5.5602">
        <ele>1107.29</ele>
        <time>2019-08-28T11:06:39Z</time>
      </trkpt>
      <trkpt lat="45.17227" lon="5.56019">
        <ele>1107.29</ele>
        <time>2019-08-28T11:06:40Z</time>
      </trkpt>
      <trkpt lat="45.17226" lon="5.56019">
        <ele>1107.46</ele>
        <time>2019-08-28T11:06:41Z</time>
      </trkpt>
      <trkpt lat="45.17224" lon="5.56019">
        <ele>1107.55</ele>
        <time>2019-08-28T11:06:42Z</time>
      </trkpt>
      <trkpt lat="45.17223" lon="5.5602">
        <ele>1107.65</ele>
        <time>2019-08-28T11:06:43Z</time>
      </trkpt>
      <trkpt lat="45.17222" lon="5.56021">
        <ele>1107.75</ele>
        <time>2019-08-28T11:06:44Z</time>
      </trkpt>
      <trkpt lat="45.17202" lon="5.56032">
        <ele>1109.2</ele>
        <time>2019-08-28T11:06:58Z</time>
      </trkpt>
      <trkpt lat="45.17174" lon="5.56044">
        <ele>1110.52</ele>
        <time>2019-08-28T11:07:15Z</time>
      </trkpt>
      <trkpt lat="45.17161" lon="5.56053">
        <ele>1111.08</ele>
        <time>2019-08-28T11:07:29Z</time>
      </trkpt>
      <trkpt lat="45.17132" lon="5.56071">
        <ele>1111.95</ele>
        <time>2019-08-28T11:07:45Z</time>
      </trkpt>
      <trkpt lat="45.17108" lon="5.56089">
        <ele>1113.4</ele>
        <time>2019-08-28T11:08:02Z</time>
      </trkpt>
      <trkpt lat="45.17099" lon="5.56102">
        <ele>1114.26</ele>
        <time>2019-08-28T11:08:11Z</time>
      </trkpt>
      <trkpt lat="45.17098" lon="5.56104">
        <ele>1114.32</ele>
        <time>2019-08-28T11:08:12Z</time>
      </trkpt>
      <trkpt lat="45.17096" lon="5.56105">
        <ele>1114.4</ele>
        <time>2019-08-28T11:08:13Z</time>
      </trkpt>
      <trkpt lat="45.17095" lon="5.56106">
        <ele>1114.47</ele>
        <time>2019-08-28T11:08:14Z</time>
      </trkpt>
      <trkpt lat="45.17094" lon="5.56108">
        <ele>1114.54</ele>
        <time>2019-08-28T11:08:15Z</time>
      </trkpt>
      <trkpt lat="45.17093" lon="5.56109">
        <ele>1114.61</ele>
        <time>2019-08-28T11:08:16Z</time>
      </trkpt>
      <trkpt lat="45.17071" lon="5.56133">
        <ele>1115.88</ele>
        <time>2019-08-28T11:08:31Z</time>
      </trkpt>
      <trkpt lat="45.17064" lon="5.56134">
        <ele>1116.36</ele>
        <time>2019-08-28T11:08:37Z</time>
      </trkpt>
      <trkpt lat="45.17059" lon="5.56132">
        <ele>1116.95</ele>
        <time>2019-08-28T11:08:44Z</time>
      </trkpt>
      <trkpt lat="45.17058" lon="5.5613">
        <ele>1116.99</ele>
        <time>2019-08-28T11:08:45Z</time>
      </trkpt>
      <trkpt lat="45.17057" lon="5.56129">
        <ele>1116.99</ele>
        <time>2019-08-28T11:08:46Z</time>
      </trkpt>
      <trkpt lat="45.17057" lon="5.56128">
        <ele>1116.95</ele>
        <time>2019-08-28T11:08:47Z</time>
      </trkpt>
      <trkpt lat="45.17036" lon="5.56103">
        <ele>1116.7</ele>
        <time>2019-08-28T11:09:01Z</time>
      </trkpt>
      <trkpt lat="45.17" lon="5.56068">
        <ele>1115.84</ele>
        <time>2019-08-28T11:09:13Z</time>
      </trkpt>
      <trkpt lat="45.16991" lon="5.56064">
        <ele>1115.59</ele>
        <time>2019-08-28T11:09:15Z</time>
      </trkpt>
      <trkpt lat="45.16947" lon="5.56043">
        <ele>1113.85</ele>
        <time>2019-08-28T11:09:28Z</time>
      </trkpt>
      <trkpt lat="45.16928" lon="5.56041">
        <ele>1113.75</ele>
        <time>2019-08-28T11:09:42Z</time>
      </trkpt>
      <trkpt lat="45.1692" lon="5.56041">
        <ele>1113.91</ele>
        <time>2019-08-28T11:10:09Z</time>
      </trkpt>
      <trkpt lat="45.16883" lon="5.56036">
        <ele>1113.19</ele>
        <time>2019-08-28T11:10:22Z</time>
      </trkpt>
      <trkpt lat="45.16843" lon="5.55995">
        <ele>1112.69</ele>
        <time>2019-08-28T11:10:38Z</time>
      </trkpt>
      <trkpt lat="45.16814" lon="5.55969">
        <ele>1112.77</ele>
        <time>2019-08-28T11:10:49Z</time>
      </trkpt>
      <trkpt lat="45.16802" lon="5.55956">
        <ele>1112.24</ele>
        <time>2019-08-28T11:10:52Z</time>
      </trkpt>
      <trkpt lat="45.16798" lon="5.55952">
        <ele>1111.93</ele>
        <time>2019-08-28T11:10:53Z</time>
      </trkpt>
      <trkpt lat="45.16785" lon="5.55937">
        <ele>1110.76</ele>
        <time>2019-08-28T11:10:56Z</time>
      </trkpt>
      <trkpt lat="45.1678" lon="5.55933">
        <ele>1110.25</ele>
        <time>2019-08-28T11:10:57Z</time>
      </trkpt>
      <trkpt lat="45.16775" lon="5.5593">
        <ele>1109.76</ele>
        <time>2019-08-28T11:10:58Z</time>
      </trkpt>
      <trkpt lat="45.16769" lon="5.55929">
        <ele>1109.32</ele>
        <time>2019-08-28T11:10:59Z</time>
      </trkpt>
      <trkpt lat="45.16764" lon="5.55928">
        <ele>1108.9</ele>
        <time>2019-08-28T11:11:00Z</time>
      </trkpt>
      <trkpt lat="45.16759" lon="5.55928">
        <ele>1108.43</ele>
        <time>2019-08-28T11:11:01Z</time>
      </trkpt>
      <trkpt lat="45.16753" lon="5.5593">
        <ele>1107.94</ele>
        <time>2019-08-28T11:11:02Z</time>
      </trkpt>
      <trkpt lat="45.16748" lon="5.55931">
        <ele>1107.49</ele>
        <time>2019-08-28T11:11:03Z</time>
      </trkpt>
      <trkpt lat="45.16743" lon="5.55934">
        <ele>1107.08</ele>
        <time>2019-08-28T11:11:04Z</time>
      </trkpt>
      <trkpt lat="45.16738" lon="5.55938">
        <ele>1106.7</ele>
        <time>2019-08-28T11:11:05Z</time>
      </trkpt>
      <trkpt lat="45.16734" lon="5.55941">
        <ele>1106.34</ele>
        <time>2019-08-28T11:11:06Z</time>
      </trkpt>
      <trkpt lat="45.16728" lon="5.55944">
        <ele>1106</ele>
        <time>2019-08-28T11:11:07Z</time>
      </trkpt>
      <trkpt lat="45.16723" lon="5.55945">
        <ele>1105.64</ele>
        <time>2019-08-28T11:11:08Z</time>
      </trkpt>
      <trkpt lat="45.16718" lon="5.55947">
        <ele>1105.28</ele>
        <time>2019-08-28T11:11:09Z</time>
      </trkpt>
      <trkpt lat="45.16712" lon="5.55947">
        <ele>1104.88</ele>
        <time>2019-08-28T11:11:10Z</time>
      </trkpt>
      <trkpt lat="45.16706" lon="5.55946">
        <ele>1104.44</ele>
        <time>2019-08-28T11:11:11Z</time>
      </trkpt>
      <trkpt lat="45.16695" lon="5.55944">
        <ele>1103.28</ele>
        <time>2019-08-28T11:11:13Z</time>
      </trkpt>
      <trkpt lat="45.1669" lon="5.55941">
        <ele>1102.92</ele>
        <time>2019-08-28T11:11:14Z</time>
      </trkpt>
      <trkpt lat="45.16684" lon="5.55938">
        <ele>1102.53</ele>
        <time>2019-08-28T11:11:15Z</time>
      </trkpt>
      <trkpt lat="45.16678" lon="5.55933">
        <ele>1102.12</ele>
        <time>2019-08-28T11:11:16Z</time>
      </trkpt>
      <trkpt lat="45.16673" lon="5.55928">
        <ele>1101.7</ele>
        <time>2019-08-28T11:11:17Z</time>
      </trkpt>
      <trkpt lat="45.16668" lon="5.55921">
        <ele>1101.24</ele>
        <time>2019-08-28T11:11:18Z</time>
      </trkpt>
      <trkpt lat="45.16662" lon="5.55915">
        <ele>1100.73</ele>
        <time>2019-08-28T11:11:19Z</time>
      </trkpt>
      <trkpt lat="45.16656" lon="5.55909">
        <ele>1100.18</ele>
        <time>2019-08-28T11:11:20Z</time>
      </trkpt>
      <trkpt lat="45.16648" lon="5.55904">
        <ele>1099.61</ele>
        <time>2019-08-28T11:11:21Z</time>
      </trkpt>
      <trkpt lat="45.16602" lon="5.55883">
        <ele>1096.18</ele>
        <time>2019-08-28T11:11:27Z</time>
      </trkpt>
      <trkpt lat="45.16588" lon="5.55877">
        <ele>1095.44</ele>
        <time>2019-08-28T11:11:29Z</time>
      </trkpt>
      <trkpt lat="45.16581" lon="5.55873">
        <ele>1095.13</ele>
        <time>2019-08-28T11:11:30Z</time>
      </trkpt>
      <trkpt lat="45.16522" lon="5.55843">
        <ele>1092.4</ele>
        <time>2019-08-28T11:11:38Z</time>
      </trkpt>
      <trkpt lat="45.16474" lon="5.55825">
        <ele>1092.31</ele>
        <time>2019-08-28T11:11:49Z</time>
      </trkpt>
      <trkpt lat="45.16423" lon="5.55789">
        <ele>1092.33</ele>
        <time>2019-08-28T11:12:05Z</time>
      </trkpt>
      <trkpt lat="45.16363" lon="5.5578">
        <ele>1091.68</ele>
        <time>2019-08-28T11:12:20Z</time>
      </trkpt>
      <trkpt lat="45.16358" lon="5.55778">
        <ele>1091.56</ele>
        <time>2019-08-28T11:12:21Z</time>
      </trkpt>
      <trkpt lat="45.16353" lon="5.55776">
        <ele>1091.43</ele>
        <time>2019-08-28T11:12:22Z</time>
      </trkpt>
      <trkpt lat="45.16349" lon="5.55772">
        <ele>1091.31</ele>
        <time>2019-08-28T11:12:23Z</time>
      </trkpt>
      <trkpt lat="45.1629" lon="5.55689">
        <ele>1088.22</ele>
        <time>2019-08-28T11:12:37Z</time>
      </trkpt>
      <trkpt lat="45.16285" lon="5.55683">
        <ele>1087.8</ele>
        <time>2019-08-28T11:12:38Z</time>
      </trkpt>
      <trkpt lat="45.1628" lon="5.55678">
        <ele>1087.38</ele>
        <time>2019-08-28T11:12:39Z</time>
      </trkpt>
      <trkpt lat="45.16275" lon="5.55674">
        <ele>1086.99</ele>
        <time>2019-08-28T11:12:40Z</time>
      </trkpt>
      <trkpt lat="45.1627" lon="5.55671">
        <ele>1086.64</ele>
        <time>2019-08-28T11:12:41Z</time>
      </trkpt>
      <trkpt lat="45.16221" lon="5.55638">
        <ele>1083.52</ele>
        <time>2019-08-28T11:12:50Z</time>
      </trkpt>
      <trkpt lat="45.16191" lon="5.55624">
        <ele>1080.12</ele>
        <time>2019-08-28T11:12:54Z</time>
      </trkpt>
      <trkpt lat="45.16154" lon="5.55611">
        <ele>1076.88</ele>
        <time>2019-08-28T11:13:00Z</time>
      </trkpt>
      <trkpt lat="45.16138" lon="5.55606">
        <ele>1075.8</ele>
        <time>2019-08-28T11:13:03Z</time>
      </trkpt>
      <trkpt lat="45.16101" lon="5.55585">
        <ele>1073.67</ele>
        <time>2019-08-28T11:13:09Z</time>
      </trkpt>
      <trkpt lat="45.16096" lon="5.5558">
        <ele>1073.23</ele>
        <time>2019-08-28T11:13:10Z</time>
      </trkpt>
      <trkpt lat="45.16091" lon="5.55574">
        <ele>1072.87</ele>
        <time>2019-08-28T11:13:11Z</time>
      </trkpt>
      <trkpt lat="45.16087" lon="5.55567">
        <ele>1072.55</ele>
        <time>2019-08-28T11:13:12Z</time>
      </trkpt>
      <trkpt lat="45.16084" lon="5.5556">
        <ele>1072.23</ele>
        <time>2019-08-28T11:13:13Z</time>
      </trkpt>
      <trkpt lat="45.16059" lon="5.55505">
        <ele>1068.69</ele>
        <time>2019-08-28T11:13:20Z</time>
      </trkpt>
      <trkpt lat="45.16057" lon="5.55502">
        <ele>1068.07</ele>
        <time>2019-08-28T11:13:21Z</time>
      </trkpt>
      <trkpt lat="45.16055" lon="5.55502">
        <ele>1067.48</ele>
        <time>2019-08-28T11:13:22Z</time>
      </trkpt>
      <trkpt lat="45.16053" lon="5.55502">
        <ele>1066.92</ele>
        <time>2019-08-28T11:13:23Z</time>
      </trkpt>
      <trkpt lat="45.16052" lon="5.55502">
        <ele>1066.41</ele>
        <time>2019-08-28T11:13:24Z</time>
      </trkpt>
      <trkpt lat="45.1605" lon="5.55502">
        <ele>1065.94</ele>
        <time>2019-08-28T11:13:25Z</time>
      </trkpt>
      <trkpt lat="45.16049" lon="5.55502">
        <ele>1065.53</ele>
        <time>2019-08-28T11:13:26Z</time>
      </trkpt>
      <trkpt lat="45.16047" lon="5.55502">
        <ele>1065.19</ele>
        <time>2019-08-28T11:13:27Z</time>
      </trkpt>
      <trkpt lat="45.16016" lon="5.55501">
        <ele>1063.72</ele>
        <time>2019-08-28T11:13:44Z</time>
      </trkpt>
      <trkpt lat="45.15974" lon="5.55494">
        <ele>1062.63</ele>
        <time>2019-08-28T11:13:57Z</time>
      </trkpt>
      <trkpt lat="45.15965" lon="5.55492">
        <ele>1062.34</ele>
        <time>2019-08-28T11:13:59Z</time>
      </trkpt>
      <trkpt lat="45.1596" lon="5.55491">
        <ele>1062.17</ele>
        <time>2019-08-28T11:14:00Z</time>
      </trkpt>
      <trkpt lat="45.15931" lon="5.55488">
        <ele>1061.15</ele>
        <time>2019-08-28T11:14:05Z</time>
      </trkpt>
      <trkpt lat="45.15926" lon="5.55487">
        <ele>1060.89</ele>
        <time>2019-08-28T11:14:06Z</time>
      </trkpt>
      <trkpt lat="45.1592" lon="5.55484">
        <ele>1060.66</ele>
        <time>2019-08-28T11:14:07Z</time>
      </trkpt>
      <trkpt lat="45.15914" lon="5.55481">
        <ele>1060.45</ele>
        <time>2019-08-28T11:14:08Z</time>
      </trkpt>
      <trkpt lat="45.15908" lon="5.55477">
        <ele>1060.05</ele>
        <time>2019-08-28T11:14:09Z</time>
      </trkpt>
      <trkpt lat="45.15902" lon="5.55472">
        <ele>1060.05</ele>
        <time>2019-08-28T11:14:10Z</time>
      </trkpt>
      <trkpt lat="45.15895" lon="5.55466">
        <ele>1059.56</ele>
        <time>2019-08-28T11:14:11Z</time>
      </trkpt>
      <trkpt lat="45.15889" lon="5.55459">
        <ele>1059.25</ele>
        <time>2019-08-28T11:14:12Z</time>
      </trkpt>
      <trkpt lat="45.15819" lon="5.55392">
        <ele>1056.17</ele>
        <time>2019-08-28T11:14:24Z</time>
      </trkpt>
      <trkpt lat="45.15797" lon="5.55372">
        <ele>1055.54</ele>
        <time>2019-08-28T11:14:28Z</time>
      </trkpt>
      <trkpt lat="45.1574" lon="5.55313">
        <ele>1052.25</ele>
        <time>2019-08-28T11:14:41Z</time>
      </trkpt>
      <trkpt lat="45.15725" lon="5.55308">
        <ele>1051.59</ele>
        <time>2019-08-28T11:14:44Z</time>
      </trkpt>
      <trkpt lat="45.15721" lon="5.55308">
        <ele>1051.43</ele>
        <time>2019-08-28T11:14:45Z</time>
      </trkpt>
      <trkpt lat="45.15717" lon="5.55309">
        <ele>1051.31</ele>
        <time>2019-08-28T11:14:46Z</time>
      </trkpt>
      <trkpt lat="45.15686" lon="5.55325">
        <ele>1051.91</ele>
        <time>2019-08-28T11:14:59Z</time>
      </trkpt>
      <trkpt lat="45.15653" lon="5.55353">
        <ele>1054.24</ele>
        <time>2019-08-28T11:15:16Z</time>
      </trkpt>
      <trkpt lat="45.15621" lon="5.55385">
        <ele>1053.92</ele>
        <time>2019-08-28T11:15:30Z</time>
      </trkpt>
      <trkpt lat="45.15611" lon="5.55394">
        <ele>1054.38</ele>
        <time>2019-08-28T11:15:43Z</time>
      </trkpt>
      <trkpt lat="45.15609" lon="5.5539">
        <ele>1054.34</ele>
        <time>2019-08-28T11:15:49Z</time>
      </trkpt>
      <trkpt lat="45.15608" lon="5.55388">
        <ele>1054.35</ele>
        <time>2019-08-28T11:15:50Z</time>
      </trkpt>
      <trkpt lat="45.15607" lon="5.55386">
        <ele>1054.38</ele>
        <time>2019-08-28T11:15:51Z</time>
      </trkpt>
      <trkpt lat="45.1559" lon="5.55336">
        <ele>1053.3</ele>
        <time>2019-08-28T11:16:01Z</time>
      </trkpt>
      <trkpt lat="45.15582" lon="5.55316">
        <ele>1051.95</ele>
        <time>2019-08-28T11:16:04Z</time>
      </trkpt>
      <trkpt lat="45.15579" lon="5.5531">
        <ele>1051.4</ele>
        <time>2019-08-28T11:16:05Z</time>
      </trkpt>
      <trkpt lat="45.15575" lon="5.55305">
        <ele>1050.89</ele>
        <time>2019-08-28T11:16:06Z</time>
      </trkpt>
      <trkpt lat="45.15571" lon="5.55302">
        <ele>1050.48</ele>
        <time>2019-08-28T11:16:07Z</time>
      </trkpt>
      <trkpt lat="45.15567" lon="5.55299">
        <ele>1050.13</ele>
        <time>2019-08-28T11:16:08Z</time>
      </trkpt>
      <trkpt lat="45.15562" lon="5.55297">
        <ele>1049.77</ele>
        <time>2019-08-28T11:16:09Z</time>
      </trkpt>
      <trkpt lat="45.15533" lon="5.55281">
        <ele>1048.38</ele>
        <time>2019-08-28T11:16:17Z</time>
      </trkpt>
      <trkpt lat="45.1553" lon="5.55279">
        <ele>1048.35</ele>
        <time>2019-08-28T11:16:18Z</time>
      </trkpt>
      <trkpt lat="45.15492" lon="5.55256">
        <ele>1048.72</ele>
        <time>2019-08-28T11:16:29Z</time>
      </trkpt>
      <trkpt lat="45.1544" lon="5.55234">
        <ele>1048.24</ele>
        <time>2019-08-28T11:16:41Z</time>
      </trkpt>
      <trkpt lat="45.15347" lon="5.55199">
        <ele>1045.14</ele>
        <time>2019-08-28T11:16:55Z</time>
      </trkpt>
      <trkpt lat="45.15268" lon="5.55175">
        <ele>1042.12</ele>
        <time>2019-08-28T11:17:06Z</time>
      </trkpt>
      <trkpt lat="45.15204" lon="5.55165">
        <ele>1038.59</ele>
        <time>2019-08-28T11:17:15Z</time>
      </trkpt>
      <trkpt lat="45.15197" lon="5.55161">
        <ele>1038.03</ele>
        <time>2019-08-28T11:17:16Z</time>
      </trkpt>
      <trkpt lat="45.15189" lon="5.55157">
        <ele>1037.51</ele>
        <time>2019-08-28T11:17:17Z</time>
      </trkpt>
      <trkpt lat="45.15146" lon="5.55128">
        <ele>1034.38</ele>
        <time>2019-08-28T11:17:22Z</time>
      </trkpt>
      <trkpt lat="45.15109" lon="5.55109">
        <ele>1031.49</ele>
        <time>2019-08-28T11:17:26Z</time>
      </trkpt>
      <trkpt lat="45.15101" lon="5.55103">
        <ele>1030.53</ele>
        <time>2019-08-28T11:17:27Z</time>
      </trkpt>
      <trkpt lat="45.15095" lon="5.55095">
        <ele>1030.53</ele>
        <time>2019-08-28T11:17:28Z</time>
      </trkpt>
      <trkpt lat="45.1509" lon="5.55086">
        <ele>1029.9</ele>
        <time>2019-08-28T11:17:29Z</time>
      </trkpt>
      <trkpt lat="45.15086" lon="5.55078">
        <ele>1029.7</ele>
        <time>2019-08-28T11:17:30Z</time>
      </trkpt>
      <trkpt lat="45.15083" lon="5.5507">
        <ele>1029.64</ele>
        <time>2019-08-28T11:17:31Z</time>
      </trkpt>
      <trkpt lat="45.15079" lon="5.55063">
        <ele>1029.65</ele>
        <time>2019-08-28T11:17:32Z</time>
      </trkpt>
      <trkpt lat="45.15076" lon="5.55057">
        <ele>1029.71</ele>
        <time>2019-08-28T11:17:33Z</time>
      </trkpt>
      <trkpt lat="45.15073" lon="5.55053">
        <ele>1029.85</ele>
        <time>2019-08-28T11:17:34Z</time>
      </trkpt>
      <trkpt lat="45.15069" lon="5.55049">
        <ele>1030.05</ele>
        <time>2019-08-28T11:17:35Z</time>
      </trkpt>
      <trkpt lat="45.15066" lon="5.55046">
        <ele>1030.27</ele>
        <time>2019-08-28T11:17:36Z</time>
      </trkpt>
      <trkpt lat="45.1506" lon="5.55043">
        <ele>1030.74</ele>
        <time>2019-08-28T11:17:38Z</time>
      </trkpt>
      <trkpt lat="45.15057" lon="5.55042">
        <ele>1031.01</ele>
        <time>2019-08-28T11:17:39Z</time>
      </trkpt>
      <trkpt lat="45.15005" lon="5.55003">
        <ele>1032.74</ele>
        <time>2019-08-28T11:17:56Z</time>
      </trkpt>
      <trkpt lat="45.14966" lon="5.54968">
        <ele>1029.22</ele>
        <time>2019-08-28T11:18:03Z</time>
      </trkpt>
      <trkpt lat="45.14938" lon="5.54946">
        <ele>1026.01</ele>
        <time>2019-08-28T11:18:08Z</time>
      </trkpt>
      <trkpt lat="45.14931" lon="5.54942">
        <ele>1025.47</ele>
        <time>2019-08-28T11:18:09Z</time>
      </trkpt>
      <trkpt lat="45.14924" lon="5.5494">
        <ele>1024.97</ele>
        <time>2019-08-28T11:18:10Z</time>
      </trkpt>
      <trkpt lat="45.14881" lon="5.54929">
        <ele>1021.79</ele>
        <time>2019-08-28T11:18:16Z</time>
      </trkpt>
      <trkpt lat="45.14853" lon="5.54919">
        <ele>1018.7</ele>
        <time>2019-08-28T11:18:20Z</time>
      </trkpt>
      <trkpt lat="45.14824" lon="5.54909">
        <ele>1015.47</ele>
        <time>2019-08-28T11:18:27Z</time>
      </trkpt>
      <trkpt lat="45.14823" lon="5.54911">
        <ele>1013.65</ele>
        <time>2019-08-28T11:18:57Z</time>
      </trkpt>
      <trkpt lat="45.14822" lon="5.54908">
        <ele>1013.62</ele>
        <time>2019-08-28T11:18:59Z</time>
      </trkpt>
      <trkpt lat="45.14821" lon="5.54906">
        <ele>1013.6</ele>
        <time>2019-08-28T11:19:00Z</time>
      </trkpt>
      <trkpt lat="45.14821" lon="5.54904">
        <ele>1013.57</ele>
        <time>2019-08-28T11:19:01Z</time>
      </trkpt>
      <trkpt lat="45.1482" lon="5.549">
        <ele>1013.52</ele>
        <time>2019-08-28T11:19:02Z</time>
      </trkpt>
      <trkpt lat="45.1482" lon="5.54897">
        <ele>1013.46</ele>
        <time>2019-08-28T11:19:03Z</time>
      </trkpt>
      <trkpt lat="45.1482" lon="5.54893">
        <ele>1013.36</ele>
        <time>2019-08-28T11:19:04Z</time>
      </trkpt>
      <trkpt lat="45.1482" lon="5.54888">
        <ele>1013.24</ele>
        <time>2019-08-28T11:19:05Z</time>
      </trkpt>
      <trkpt lat="45.14803" lon="5.54822">
        <ele>1011.97</ele>
        <time>2019-08-28T11:19:20Z</time>
      </trkpt>
      <trkpt lat="45.14785" lon="5.54779">
        <ele>1011.81</ele>
        <time>2019-08-28T11:19:32Z</time>
      </trkpt>
      <trkpt lat="45.14739" lon="5.54721">
        <ele>1010.19</ele>
        <time>2019-08-28T11:19:46Z</time>
      </trkpt>
      <trkpt lat="45.14705" lon="5.54677">
        <ele>1009.55</ele>
        <time>2019-08-28T11:19:59Z</time>
      </trkpt>
      <trkpt lat="45.14674" lon="5.54652">
        <ele>1009.19</ele>
        <time>2019-08-28T11:20:09Z</time>
      </trkpt>
      <trkpt lat="45.14637" lon="5.54624">
        <ele>1008.55</ele>
        <time>2019-08-28T11:20:22Z</time>
      </trkpt>
      <trkpt lat="45.14595" lon="5.54597">
        <ele>1008.14</ele>
        <time>2019-08-28T11:20:36Z</time>
      </trkpt>
      <trkpt lat="45.14571" lon="5.54614">
        <ele>1008.74</ele>
        <time>2019-08-28T11:20:46Z</time>
      </trkpt>
      <trkpt lat="45.14554" lon="5.54633">
        <ele>1011.77</ele>
        <time>2019-08-28T11:21:00Z</time>
      </trkpt>
      <trkpt lat="45.14526" lon="5.54656">
        <ele>1014.71</ele>
        <time>2019-08-28T11:21:21Z</time>
      </trkpt>
      <trkpt lat="45.14525" lon="5.54658">
        <ele>1014.84</ele>
        <time>2019-08-28T11:21:22Z</time>
      </trkpt>
      <trkpt lat="45.14524" lon="5.54659">
        <ele>1014.96</ele>
        <time>2019-08-28T11:21:23Z</time>
      </trkpt>
      <trkpt lat="45.14523" lon="5.5466">
        <ele>1015.07</ele>
        <time>2019-08-28T11:21:24Z</time>
      </trkpt>
      <trkpt lat="45.14522" lon="5.54662">
        <ele>1015.19</ele>
        <time>2019-08-28T11:21:25Z</time>
      </trkpt>
      <trkpt lat="45.14521" lon="5.54663">
        <ele>1015.31</ele>
        <time>2019-08-28T11:21:26Z</time>
      </trkpt>
      <trkpt lat="45.14499" lon="5.54677">
        <ele>1017.71</ele>
        <time>2019-08-28T11:21:41Z</time>
      </trkpt>
      <trkpt lat="45.14498" lon="5.54678">
        <ele>1017.81</ele>
        <time>2019-08-28T11:21:42Z</time>
      </trkpt>
      <trkpt lat="45.14496" lon="5.54678">
        <ele>1017.92</ele>
        <time>2019-08-28T11:21:43Z</time>
      </trkpt>
      <trkpt lat="45.14495" lon="5.54678">
        <ele>1018.07</ele>
        <time>2019-08-28T11:21:44Z</time>
      </trkpt>
      <trkpt lat="45.14493" lon="5.54677">
        <ele>1018.24</ele>
        <time>2019-08-28T11:21:45Z</time>
      </trkpt>
      <trkpt lat="45.14491" lon="5.54677">
        <ele>1018.4</ele>
        <time>2019-08-28T11:21:46Z</time>
      </trkpt>
      <trkpt lat="45.14489" lon="5.54676">
        <ele>1018.55</ele>
        <time>2019-08-28T11:21:47Z</time>
      </trkpt>
      <trkpt lat="45.14463" lon="5.54661">
        <ele>1020</ele>
        <time>2019-08-28T11:22:03Z</time>
      </trkpt>
      <trkpt lat="45.14449" lon="5.54657">
        <ele>1019.83</ele>
        <time>2019-08-28T11:22:23Z</time>
      </trkpt>
      <trkpt lat="45.14431" lon="5.54634">
        <ele>1019.19</ele>
        <time>2019-08-28T11:22:30Z</time>
      </trkpt>
      <trkpt lat="45.14428" lon="5.54629">
        <ele>1019.01</ele>
        <time>2019-08-28T11:22:31Z</time>
      </trkpt>
      <trkpt lat="45.14423" lon="5.54617">
        <ele>1018.54</ele>
        <time>2019-08-28T11:22:33Z</time>
      </trkpt>
      <trkpt lat="45.14419" lon="5.5461">
        <ele>1018.31</ele>
        <time>2019-08-28T11:22:34Z</time>
      </trkpt>
      <trkpt lat="45.14414" lon="5.54604">
        <ele>1018.09</ele>
        <time>2019-08-28T11:22:35Z</time>
      </trkpt>
      <trkpt lat="45.14409" lon="5.54597">
        <ele>1017.87</ele>
        <time>2019-08-28T11:22:36Z</time>
      </trkpt>
      <trkpt lat="45.14403" lon="5.54591">
        <ele>1017.6</ele>
        <time>2019-08-28T11:22:37Z</time>
      </trkpt>
      <trkpt lat="45.14382" lon="5.54575">
        <ele>1016.39</ele>
        <time>2019-08-28T11:22:40Z</time>
      </trkpt>
      <trkpt lat="45.14374" lon="5.54572">
        <ele>1015.97</ele>
        <time>2019-08-28T11:22:41Z</time>
      </trkpt>
      <trkpt lat="45.14366" lon="5.54569">
        <ele>1015.54</ele>
        <time>2019-08-28T11:22:42Z</time>
      </trkpt>
      <trkpt lat="45.14339" lon="5.54567">
        <ele>1013.97</ele>
        <time>2019-08-28T11:22:45Z</time>
      </trkpt>
      <trkpt lat="45.14331" lon="5.54571">
        <ele>1013.3</ele>
        <time>2019-08-28T11:22:46Z</time>
      </trkpt>
      <trkpt lat="45.14315" lon="5.54579">
        <ele>1011.85</ele>
        <time>2019-08-28T11:22:48Z</time>
      </trkpt>
      <trkpt lat="45.14309" lon="5.54581">
        <ele>1011.19</ele>
        <time>2019-08-28T11:22:49Z</time>
      </trkpt>
      <trkpt lat="45.14291" lon="5.54583">
        <ele>1009.82</ele>
        <time>2019-08-28T11:22:52Z</time>
      </trkpt>
      <trkpt lat="45.14243" lon="5.54586">
        <ele>1011.54</ele>
        <time>2019-08-28T11:23:06Z</time>
      </trkpt>
      <trkpt lat="45.14193" lon="5.54586">
        <ele>1013.95</ele>
        <time>2019-08-28T11:23:24Z</time>
      </trkpt>
      <trkpt lat="45.14134" lon="5.54585">
        <ele>1016.98</ele>
        <time>2019-08-28T11:23:47Z</time>
      </trkpt>
      <trkpt lat="45.14084" lon="5.54572">
        <ele>1019.51</ele>
        <time>2019-08-28T11:24:07Z</time>
      </trkpt>
      <trkpt lat="45.14035" lon="5.54542">
        <ele>1022.03</ele>
        <time>2019-08-28T11:24:29Z</time>
      </trkpt>
      <trkpt lat="45.13999" lon="5.54518">
        <ele>1024.32</ele>
        <time>2019-08-28T11:24:48Z</time>
      </trkpt>
      <trkpt lat="45.13967" lon="5.54504">
        <ele>1026.54</ele>
        <time>2019-08-28T11:25:05Z</time>
      </trkpt>
      <trkpt lat="45.13937" lon="5.54498">
        <ele>1028.61</ele>
        <time>2019-08-28T11:25:23Z</time>
      </trkpt>
      <trkpt lat="45.13934" lon="5.54498">
        <ele>1028.95</ele>
        <time>2019-08-28T11:25:41Z</time>
      </trkpt>
      <trkpt lat="45.13905" lon="5.54494">
        <ele>1028.48</ele>
        <time>2019-08-28T11:25:53Z</time>
      </trkpt>
      <trkpt lat="45.13835" lon="5.54488">
        <ele>1025.29</ele>
        <time>2019-08-28T11:26:03Z</time>
      </trkpt>
      <trkpt lat="45.13781" lon="5.54481">
        <ele>1022.8</ele>
        <time>2019-08-28T11:26:09Z</time>
      </trkpt>
      <trkpt lat="45.13773" lon="5.54476">
        <ele>1022.39</ele>
        <time>2019-08-28T11:26:10Z</time>
      </trkpt>
      <trkpt lat="45.13764" lon="5.54471">
        <ele>1021.98</ele>
        <time>2019-08-28T11:26:11Z</time>
      </trkpt>
      <trkpt lat="45.13729" lon="5.54452">
        <ele>1020.01</ele>
        <time>2019-08-28T11:26:15Z</time>
      </trkpt>
      <trkpt lat="45.1372" lon="5.5445">
        <ele>1020.01</ele>
        <time>2019-08-28T11:26:16Z</time>
      </trkpt>
      <trkpt lat="45.13685" lon="5.54438">
        <ele>1018.13</ele>
        <time>2019-08-28T11:26:20Z</time>
      </trkpt>
      <trkpt lat="45.13677" lon="5.54433">
        <ele>1017.8</ele>
        <time>2019-08-28T11:26:21Z</time>
      </trkpt>
      <trkpt lat="45.13669" lon="5.54426">
        <ele>1017.44</ele>
        <time>2019-08-28T11:26:22Z</time>
      </trkpt>
      <trkpt lat="45.13576" lon="5.54339">
        <ele>1014.33</ele>
        <time>2019-08-28T11:26:35Z</time>
      </trkpt>
      <trkpt lat="45.13538" lon="5.54307">
        <ele>1013.16</ele>
        <time>2019-08-28T11:26:41Z</time>
      </trkpt>
      <trkpt lat="45.13531" lon="5.54304">
        <ele>1013.03</ele>
        <time>2019-08-28T11:26:42Z</time>
      </trkpt>
      <trkpt lat="45.13525" lon="5.54303">
        <ele>1012.91</ele>
        <time>2019-08-28T11:26:43Z</time>
      </trkpt>
      <trkpt lat="45.13519" lon="5.54304">
        <ele>1012.79</ele>
        <time>2019-08-28T11:26:44Z</time>
      </trkpt>
      <trkpt lat="45.13512" lon="5.54305">
        <ele>1012.69</ele>
        <time>2019-08-28T11:26:45Z</time>
      </trkpt>
      <trkpt lat="45.13506" lon="5.54307">
        <ele>1012.59</ele>
        <time>2019-08-28T11:26:46Z</time>
      </trkpt>
      <trkpt lat="45.13501" lon="5.54308">
        <ele>1012.47</ele>
        <time>2019-08-28T11:26:47Z</time>
      </trkpt>
      <trkpt lat="45.13495" lon="5.54308">
        <ele>1012.35</ele>
        <time>2019-08-28T11:26:48Z</time>
      </trkpt>
      <trkpt lat="45.13489" lon="5.54307">
        <ele>1012.24</ele>
        <time>2019-08-28T11:26:49Z</time>
      </trkpt>
      <trkpt lat="45.13483" lon="5.54304">
        <ele>1012.13</ele>
        <time>2019-08-28T11:26:50Z</time>
      </trkpt>
      <trkpt lat="45.13477" lon="5.54301">
        <ele>1012.04</ele>
        <time>2019-08-28T11:26:51Z</time>
      </trkpt>
      <trkpt lat="45.13472" lon="5.54297">
        <ele>1011.93</ele>
        <time>2019-08-28T11:26:52Z</time>
      </trkpt>
      <trkpt lat="45.13467" lon="5.54293">
        <ele>1011.81</ele>
        <time>2019-08-28T11:26:53Z</time>
      </trkpt>
      <trkpt lat="45.13423" lon="5.54255">
        <ele>1010.39</ele>
        <time>2019-08-28T11:27:01Z</time>
      </trkpt>
      <trkpt lat="45.13353" lon="5.5423">
        <ele>1008.41</ele>
        <time>2019-08-28T11:27:13Z</time>
      </trkpt>
      <trkpt lat="45.13273" lon="5.5423">
        <ele>1006.63</ele>
        <time>2019-08-28T11:27:28Z</time>
      </trkpt>
      <trkpt lat="45.13237" lon="5.54207">
        <ele>1007.29</ele>
        <time>2019-08-28T11:27:40Z</time>
      </trkpt>
      <trkpt lat="45.13219" lon="5.54168">
        <ele>1007.46</ele>
        <time>2019-08-28T11:27:55Z</time>
      </trkpt>
      <trkpt lat="45.13209" lon="5.54144">
        <ele>1006.7</ele>
        <time>2019-08-28T11:28:12Z</time>
      </trkpt>
      <trkpt lat="45.13177" lon="5.5407">
        <ele>1006.37</ele>
        <time>2019-08-28T11:28:27Z</time>
      </trkpt>
      <trkpt lat="45.13155" lon="5.53998">
        <ele>1009.21</ele>
        <time>2019-08-28T11:28:45Z</time>
      </trkpt>
      <trkpt lat="45.13147" lon="5.53935">
        <ele>1012.29</ele>
        <time>2019-08-28T11:29:06Z</time>
      </trkpt>
      <trkpt lat="45.13143" lon="5.53888">
        <ele>1014.23</ele>
        <time>2019-08-28T11:29:23Z</time>
      </trkpt>
      <trkpt lat="45.13139" lon="5.53871">
        <ele>1015.1</ele>
        <time>2019-08-28T11:29:31Z</time>
      </trkpt>
      <trkpt lat="45.13138" lon="5.5387">
        <ele>1015.16</ele>
        <time>2019-08-28T11:29:32Z</time>
      </trkpt>
      <trkpt lat="45.13123" lon="5.53869">
        <ele>1016.51</ele>
        <time>2019-08-28T11:29:43Z</time>
      </trkpt>
      <trkpt lat="45.13117" lon="5.53868">
        <ele>1016.78</ele>
        <time>2019-08-28T11:29:48Z</time>
      </trkpt>
      <trkpt lat="45.13114" lon="5.53871">
        <ele>1016.48</ele>
        <time>2019-08-28T11:30:02Z</time>
      </trkpt>
      <trkpt lat="45.13112" lon="5.5387">
        <ele>1016.48</ele>
        <time>2019-08-28T11:30:27Z</time>
      </trkpt>
      <trkpt lat="45.13109" lon="5.53871">
        <ele>1016.26</ele>
        <time>2019-08-28T11:30:43Z</time>
      </trkpt>
      <trkpt lat="45.13109" lon="5.5387">
        <ele>1015.99</ele>
        <time>2019-08-28T11:31:11Z</time>
      </trkpt>
      <trkpt lat="45.13108" lon="5.53871">
        <ele>1015.58</ele>
        <time>2019-08-28T11:31:31Z</time>
      </trkpt>
      <trkpt lat="45.13074" lon="5.5387">
        <ele>1014.78</ele>
        <time>2019-08-28T11:31:41Z</time>
      </trkpt>
      <trkpt lat="45.13006" lon="5.53831">
        <ele>1011.18</ele>
        <time>2019-08-28T11:31:50Z</time>
      </trkpt>
      <trkpt lat="45.12954" lon="5.53802">
        <ele>1007.59</ele>
        <time>2019-08-28T11:31:55Z</time>
      </trkpt>
      <trkpt lat="45.12912" lon="5.53778">
        <ele>1004.5</ele>
        <time>2019-08-28T11:31:59Z</time>
      </trkpt>
      <trkpt lat="45.12874" lon="5.53756">
        <ele>1001.64</ele>
        <time>2019-08-28T11:32:03Z</time>
      </trkpt>
      <trkpt lat="45.12847" lon="5.53742">
        <ele>1000.03</ele>
        <time>2019-08-28T11:32:06Z</time>
      </trkpt>
      <trkpt lat="45.12803" lon="5.53731">
        <ele>997.65</ele>
        <time>2019-08-28T11:32:11Z</time>
      </trkpt>
      <trkpt lat="45.12782" lon="5.53735">
        <ele>996.86</ele>
        <time>2019-08-28T11:32:14Z</time>
      </trkpt>
      <trkpt lat="45.12753" lon="5.53738">
        <ele>995.81</ele>
        <time>2019-08-28T11:32:18Z</time>
      </trkpt>
      <trkpt lat="45.12711" lon="5.53749">
        <ele>993.06</ele>
        <time>2019-08-28T11:32:23Z</time>
      </trkpt>
      <trkpt lat="45.12661" lon="5.53776">
        <ele>989.23</ele>
        <time>2019-08-28T11:32:30Z</time>
      </trkpt>
      <trkpt lat="45.12595" lon="5.5382">
        <ele>987.32</ele>
        <time>2019-08-28T11:32:44Z</time>
      </trkpt>
      <trkpt lat="45.1254" lon="5.53838">
        <ele>988.39</ele>
        <time>2019-08-28T11:33:01Z</time>
      </trkpt>
      <trkpt lat="45.12496" lon="5.53838">
        <ele>988.91</ele>
        <time>2019-08-28T11:33:16Z</time>
      </trkpt>
      <trkpt lat="45.12454" lon="5.53837">
        <ele>989.86</ele>
        <time>2019-08-28T11:33:31Z</time>
      </trkpt>
      <trkpt lat="45.12451" lon="5.53839">
        <ele>990.12</ele>
        <time>2019-08-28T11:33:46Z</time>
      </trkpt>
      <trkpt lat="45.12451" lon="5.53838">
        <ele>989.95</ele>
        <time>2019-08-28T11:34:24Z</time>
      </trkpt>
      <trkpt lat="45.12432" lon="5.53841">
        <ele>989.95</ele>
        <time>2019-08-28T11:34:44Z</time>
      </trkpt>
      <trkpt lat="45.12377" lon="5.53854">
        <ele>989.91</ele>
        <time>2019-08-28T11:35:01Z</time>
      </trkpt>
      <trkpt lat="45.12327" lon="5.53869">
        <ele>990.22</ele>
        <time>2019-08-28T11:35:16Z</time>
      </trkpt>
      <trkpt lat="45.12287" lon="5.5386">
        <ele>989.09</ele>
        <time>2019-08-28T11:35:22Z</time>
      </trkpt>
      <trkpt lat="45.12254" lon="5.53835">
        <ele>985.84</ele>
        <time>2019-08-28T11:35:26Z</time>
      </trkpt>
      <trkpt lat="45.12194" lon="5.53825">
        <ele>981.83</ele>
        <time>2019-08-28T11:35:33Z</time>
      </trkpt>
      <trkpt lat="45.12127" lon="5.53816">
        <ele>980.82</ele>
        <time>2019-08-28T11:35:45Z</time>
      </trkpt>
      <trkpt lat="45.12096" lon="5.5381">
        <ele>981.18</ele>
        <time>2019-08-28T11:35:52Z</time>
      </trkpt>
      <trkpt lat="45.12041" lon="5.53806">
        <ele>981.67</ele>
        <time>2019-08-28T11:36:06Z</time>
      </trkpt>
      <trkpt lat="45.12036" lon="5.53804">
        <ele>981.64</ele>
        <time>2019-08-28T11:36:07Z</time>
      </trkpt>
      <trkpt lat="45.11974" lon="5.53769">
        <ele>979.62</ele>
        <time>2019-08-28T11:36:20Z</time>
      </trkpt>
      <trkpt lat="45.11968" lon="5.53764">
        <ele>979.39</ele>
        <time>2019-08-28T11:36:21Z</time>
      </trkpt>
      <trkpt lat="45.1195" lon="5.53747">
        <ele>978.12</ele>
        <time>2019-08-28T11:36:25Z</time>
      </trkpt>
      <trkpt lat="45.11925" lon="5.53728">
        <ele>975.87</ele>
        <time>2019-08-28T11:36:30Z</time>
      </trkpt>
      <trkpt lat="45.1191" lon="5.53713">
        <ele>972.65</ele>
        <time>2019-08-28T11:36:38Z</time>
      </trkpt>
      <trkpt lat="45.11889" lon="5.53685">
        <ele>971.23</ele>
        <time>2019-08-28T11:36:48Z</time>
      </trkpt>
      <trkpt lat="45.11853" lon="5.53646">
        <ele>969.51</ele>
        <time>2019-08-28T11:36:56Z</time>
      </trkpt>
      <trkpt lat="45.11784" lon="5.53542">
        <ele>966.38</ele>
        <time>2019-08-28T11:37:11Z</time>
      </trkpt>
      <trkpt lat="45.11735" lon="5.53469">
        <ele>965.01</ele>
        <time>2019-08-28T11:37:23Z</time>
      </trkpt>
      <trkpt lat="45.1173" lon="5.53465">
        <ele>964.91</ele>
        <time>2019-08-28T11:37:24Z</time>
      </trkpt>
      <trkpt lat="45.11725" lon="5.53461">
        <ele>964.83</ele>
        <time>2019-08-28T11:37:25Z</time>
      </trkpt>
      <trkpt lat="45.1172" lon="5.53459">
        <ele>964.75</ele>
        <time>2019-08-28T11:37:26Z</time>
      </trkpt>
      <trkpt lat="45.11715" lon="5.53458">
        <ele>964.61</ele>
        <time>2019-08-28T11:37:27Z</time>
      </trkpt>
      <trkpt lat="45.1171" lon="5.53457">
        <ele>964.53</ele>
        <time>2019-08-28T11:37:28Z</time>
      </trkpt>
      <trkpt lat="45.11705" lon="5.53457">
        <ele>964.44</ele>
        <time>2019-08-28T11:37:29Z</time>
      </trkpt>
      <trkpt lat="45.11676" lon="5.53454">
        <ele>963.96</ele>
        <time>2019-08-28T11:37:35Z</time>
      </trkpt>
      <trkpt lat="45.11671" lon="5.53452">
        <ele>963.91</ele>
        <time>2019-08-28T11:37:36Z</time>
      </trkpt>
      <trkpt lat="45.11667" lon="5.5345">
        <ele>963.86</ele>
        <time>2019-08-28T11:37:37Z</time>
      </trkpt>
      <trkpt lat="45.11615" lon="5.53407">
        <ele>963.68</ele>
        <time>2019-08-28T11:37:53Z</time>
      </trkpt>
      <trkpt lat="45.11608" lon="5.53401">
        <ele>963.72</ele>
        <time>2019-08-28T11:38:03Z</time>
      </trkpt>
      <trkpt lat="45.11608" lon="5.53401">
        <ele>963.4</ele>
        <time>2019-08-28T11:38:29Z</time>
      </trkpt>
      <trkpt lat="45.11604" lon="5.53394">
        <ele>963.52</ele>
        <time>2019-08-28T11:38:50Z</time>
      </trkpt>
      <trkpt lat="45.11603" lon="5.53394">
        <ele>963.3</ele>
        <time>2019-08-28T11:39:26Z</time>
      </trkpt>
      <trkpt lat="45.11599" lon="5.53391">
        <ele>963.11</ele>
        <time>2019-08-28T11:39:33Z</time>
      </trkpt>
      <trkpt lat="45.11599" lon="5.53389">
        <ele>963.09</ele>
        <time>2019-08-28T11:39:34Z</time>
      </trkpt>
      <trkpt lat="45.11598" lon="5.53389">
        <ele>962.37</ele>
        <time>2019-08-28T11:39:50Z</time>
      </trkpt>
      <trkpt lat="45.11594" lon="5.53391">
        <ele>962.33</ele>
        <time>2019-08-28T11:41:48Z</time>
      </trkpt>
      <trkpt lat="45.11593" lon="5.53391">
        <ele>962.41</ele>
        <time>2019-08-28T11:41:49Z</time>
      </trkpt>
      <trkpt lat="45.11591" lon="5.53391">
        <ele>962.48</ele>
        <time>2019-08-28T11:41:50Z</time>
      </trkpt>
      <trkpt lat="45.11589" lon="5.53391">
        <ele>962.64</ele>
        <time>2019-08-28T11:41:51Z</time>
      </trkpt>
      <trkpt lat="45.11588" lon="5.53391">
        <ele>962.71</ele>
        <time>2019-08-28T11:41:52Z</time>
      </trkpt>
      <trkpt lat="45.11586" lon="5.5339">
        <ele>962.75</ele>
        <time>2019-08-28T11:41:53Z</time>
      </trkpt>
      <trkpt lat="45.11541" lon="5.5337">
        <ele>962.68</ele>
        <time>2019-08-28T11:42:12Z</time>
      </trkpt>
      <trkpt lat="45.11507" lon="5.53399">
        <ele>962.5</ele>
        <time>2019-08-28T11:42:26Z</time>
      </trkpt>
      <trkpt lat="45.11465" lon="5.53421">
        <ele>962.36</ele>
        <time>2019-08-28T11:42:41Z</time>
      </trkpt>
      <trkpt lat="45.11415" lon="5.53405">
        <ele>962.19</ele>
        <time>2019-08-28T11:42:57Z</time>
      </trkpt>
      <trkpt lat="45.11367" lon="5.53358">
        <ele>961.67</ele>
        <time>2019-08-28T11:43:14Z</time>
      </trkpt>
      <trkpt lat="45.11351" lon="5.53309">
        <ele>961.72</ele>
        <time>2019-08-28T11:43:26Z</time>
      </trkpt>
      <trkpt lat="45.11318" lon="5.53286">
        <ele>961.83</ele>
        <time>2019-08-28T11:43:40Z</time>
      </trkpt>
      <trkpt lat="45.11294" lon="5.53274">
        <ele>963.61</ele>
        <time>2019-08-28T11:43:54Z</time>
      </trkpt>
      <trkpt lat="45.11269" lon="5.53273">
        <ele>966.82</ele>
        <time>2019-08-28T11:44:10Z</time>
      </trkpt>
      <trkpt lat="45.11246" lon="5.53267">
        <ele>969.94</ele>
        <time>2019-08-28T11:44:28Z</time>
      </trkpt>
      <trkpt lat="45.1124" lon="5.53264">
        <ele>970.87</ele>
        <time>2019-08-28T11:44:45Z</time>
      </trkpt>
      <trkpt lat="45.11236" lon="5.53265">
        <ele>971.26</ele>
        <time>2019-08-28T11:44:57Z</time>
      </trkpt>
      <trkpt lat="45.11235" lon="5.53265">
        <ele>971.35</ele>
        <time>2019-08-28T11:44:59Z</time>
      </trkpt>
      <trkpt lat="45.11226" lon="5.53261">
        <ele>972.64</ele>
        <time>2019-08-28T11:45:12Z</time>
      </trkpt>
      <trkpt lat="45.11225" lon="5.53261">
        <ele>972.72</ele>
        <time>2019-08-28T11:45:13Z</time>
      </trkpt>
      <trkpt lat="45.11223" lon="5.53261">
        <ele>972.79</ele>
        <time>2019-08-28T11:45:14Z</time>
      </trkpt>
      <trkpt lat="45.11222" lon="5.53261">
        <ele>972.95</ele>
        <time>2019-08-28T11:45:15Z</time>
      </trkpt>
      <trkpt lat="45.11206" lon="5.53255">
        <ele>975.23</ele>
        <time>2019-08-28T11:45:33Z</time>
      </trkpt>
      <trkpt lat="45.11189" lon="5.53249">
        <ele>978.25</ele>
        <time>2019-08-28T11:45:54Z</time>
      </trkpt>
      <trkpt lat="45.11176" lon="5.53242">
        <ele>979.98</ele>
        <time>2019-08-28T11:46:08Z</time>
      </trkpt>
      <trkpt lat="45.11175" lon="5.53242">
        <ele>980.09</ele>
        <time>2019-08-28T11:46:09Z</time>
      </trkpt>
      <trkpt lat="45.11161" lon="5.5322">
        <ele>982.73</ele>
        <time>2019-08-28T11:46:29Z</time>
      </trkpt>
      <trkpt lat="45.11148" lon="5.53199">
        <ele>985.8</ele>
        <time>2019-08-28T11:46:49Z</time>
      </trkpt>
      <trkpt lat="45.1113" lon="5.5318">
        <ele>988.12</ele>
        <time>2019-08-28T11:47:09Z</time>
      </trkpt>
      <trkpt lat="45.11109" lon="5.5317">
        <ele>990.67</ele>
        <time>2019-08-28T11:47:30Z</time>
      </trkpt>
      <trkpt lat="45.11093" lon="5.53163">
        <ele>993.69</ele>
        <time>2019-08-28T11:47:48Z</time>
      </trkpt>
      <trkpt lat="45.11077" lon="5.53157">
        <ele>996.72</ele>
        <time>2019-08-28T11:48:07Z</time>
      </trkpt>
      <trkpt lat="45.11059" lon="5.53147">
        <ele>999.89</ele>
        <time>2019-08-28T11:48:27Z</time>
      </trkpt>
      <trkpt lat="45.11047" lon="5.53142">
        <ele>1002.42</ele>
        <time>2019-08-28T11:48:46Z</time>
      </trkpt>
      <trkpt lat="45.11039" lon="5.5314">
        <ele>1003.42</ele>
        <time>2019-08-28T11:49:02Z</time>
      </trkpt>
      <trkpt lat="45.11019" lon="5.53137">
        <ele>1006.41</ele>
        <time>2019-08-28T11:49:22Z</time>
      </trkpt>
      <trkpt lat="45.10997" lon="5.53133">
        <ele>1009.5</ele>
        <time>2019-08-28T11:49:42Z</time>
      </trkpt>
      <trkpt lat="45.10975" lon="5.53123">
        <ele>1011.98</ele>
        <time>2019-08-28T11:50:05Z</time>
      </trkpt>
      <trkpt lat="45.10975" lon="5.53124">
        <ele>1012.71</ele>
        <time>2019-08-28T11:50:38Z</time>
      </trkpt>
      <trkpt lat="45.10973" lon="5.53121">
        <ele>1012.88</ele>
        <time>2019-08-28T11:51:04Z</time>
      </trkpt>
      <trkpt lat="45.10972" lon="5.53122">
        <ele>1012.86</ele>
        <time>2019-08-28T11:51:45Z</time>
      </trkpt>
      <trkpt lat="45.10967" lon="5.53117">
        <ele>1012.86</ele>
        <time>2019-08-28T11:52:04Z</time>
      </trkpt>
      <trkpt lat="45.10937" lon="5.53107">
        <ele>1013.04</ele>
        <time>2019-08-28T11:52:20Z</time>
      </trkpt>
      <trkpt lat="45.10898" lon="5.531">
        <ele>1016.03</ele>
        <time>2019-08-28T11:52:40Z</time>
      </trkpt>
      <trkpt lat="45.10863" lon="5.531">
        <ele>1017.33</ele>
        <time>2019-08-28T11:52:59Z</time>
      </trkpt>
      <trkpt lat="45.1083" lon="5.53106">
        <ele>1020.47</ele>
        <time>2019-08-28T11:53:19Z</time>
      </trkpt>
      <trkpt lat="45.10805" lon="5.53102">
        <ele>1021.01</ele>
        <time>2019-08-28T11:53:31Z</time>
      </trkpt>
      <trkpt lat="45.10779" lon="5.53099">
        <ele>1020.46</ele>
        <time>2019-08-28T11:53:41Z</time>
      </trkpt>
      <trkpt lat="45.10769" lon="5.53099">
        <ele>1020.46</ele>
        <time>2019-08-28T11:53:45Z</time>
      </trkpt>
      <trkpt lat="45.10734" lon="5.53103">
        <ele>1019.9</ele>
        <time>2019-08-28T11:53:56Z</time>
      </trkpt>
      <trkpt lat="45.10728" lon="5.53106">
        <ele>1019.89</ele>
        <time>2019-08-28T11:53:58Z</time>
      </trkpt>
      <trkpt lat="45.1072" lon="5.5311">
        <ele>1020.2</ele>
        <time>2019-08-28T11:54:02Z</time>
      </trkpt>
      <trkpt lat="45.10686" lon="5.53124">
        <ele>1022.04</ele>
        <time>2019-08-28T11:54:16Z</time>
      </trkpt>
      <trkpt lat="45.10658" lon="5.53137">
        <ele>1023.61</ele>
        <time>2019-08-28T11:54:28Z</time>
      </trkpt>
      <trkpt lat="45.10641" lon="5.53151">
        <ele>1024.75</ele>
        <time>2019-08-28T11:54:35Z</time>
      </trkpt>
      <trkpt lat="45.10622" lon="5.53177">
        <ele>1024.67</ele>
        <time>2019-08-28T11:54:40Z</time>
      </trkpt>
      <trkpt lat="45.10603" lon="5.53185">
        <ele>1023.82</ele>
        <time>2019-08-28T11:54:44Z</time>
      </trkpt>
      <trkpt lat="45.10566" lon="5.53167">
        <ele>1022.66</ele>
        <time>2019-08-28T11:54:55Z</time>
      </trkpt>
      <trkpt lat="45.10541" lon="5.53158">
        <ele>1024.05</ele>
        <time>2019-08-28T11:55:04Z</time>
      </trkpt>
      <trkpt lat="45.10511" lon="5.53145">
        <ele>1024.57</ele>
        <time>2019-08-28T11:55:14Z</time>
      </trkpt>
      <trkpt lat="45.10503" lon="5.53142">
        <ele>1024.61</ele>
        <time>2019-08-28T11:55:17Z</time>
      </trkpt>
      <trkpt lat="45.10491" lon="5.53137">
        <ele>1025.02</ele>
        <time>2019-08-28T11:55:22Z</time>
      </trkpt>
      <trkpt lat="45.10466" lon="5.53123">
        <ele>1025.9</ele>
        <time>2019-08-28T11:55:32Z</time>
      </trkpt>
      <trkpt lat="45.1044" lon="5.53111">
        <ele>1027.08</ele>
        <time>2019-08-28T11:55:42Z</time>
      </trkpt>
      <trkpt lat="45.10417" lon="5.53084">
        <ele>1027.98</ele>
        <time>2019-08-28T11:55:53Z</time>
      </trkpt>
      <trkpt lat="45.10398" lon="5.53053">
        <ele>1028.83</ele>
        <time>2019-08-28T11:56:04Z</time>
      </trkpt>
      <trkpt lat="45.10382" lon="5.53019">
        <ele>1029.33</ele>
        <time>2019-08-28T11:56:13Z</time>
      </trkpt>
      <trkpt lat="45.10377" lon="5.53005">
        <ele>1029.8</ele>
        <time>2019-08-28T11:56:18Z</time>
      </trkpt>
      <trkpt lat="45.10358" lon="5.52977">
        <ele>1031.8</ele>
        <time>2019-08-28T11:56:31Z</time>
      </trkpt>
      <trkpt lat="45.10343" lon="5.52952">
        <ele>1033.34</ele>
        <time>2019-08-28T11:56:44Z</time>
      </trkpt>
      <trkpt lat="45.10339" lon="5.52946">
        <ele>1033.75</ele>
        <time>2019-08-28T11:57:01Z</time>
      </trkpt>
      <trkpt lat="45.10342" lon="5.52941">
        <ele>1033.85</ele>
        <time>2019-08-28T11:57:31Z</time>
      </trkpt>
      <trkpt lat="45.10345" lon="5.52945">
        <ele>1033.71</ele>
        <time>2019-08-28T11:58:09Z</time>
      </trkpt>
      <trkpt lat="45.10348" lon="5.52943">
        <ele>1033.68</ele>
        <time>2019-08-28T11:58:47Z</time>
      </trkpt>
      <trkpt lat="45.10347" lon="5.52943">
        <ele>1033.79</ele>
        <time>2019-08-28T11:59:17Z</time>
      </trkpt>
      <trkpt lat="45.1034" lon="5.52945">
        <ele>1034.05</ele>
        <time>2019-08-28T11:59:51Z</time>
      </trkpt>
      <trkpt lat="45.10345" lon="5.52946">
        <ele>1034.2</ele>
        <time>2019-08-28T12:00:30Z</time>
      </trkpt>
      <trkpt lat="45.10343" lon="5.52939">
        <ele>1034.11</ele>
        <time>2019-08-28T12:00:58Z</time>
      </trkpt>
      <trkpt lat="45.1032" lon="5.52907">
        <ele>1033.37</ele>
        <time>2019-08-28T12:01:10Z</time>
      </trkpt>
      <trkpt lat="45.10294" lon="5.52891">
        <ele>1032.98</ele>
        <time>2019-08-28T12:01:20Z</time>
      </trkpt>
      <trkpt lat="45.10283" lon="5.52892">
        <ele>1032.73</ele>
        <time>2019-08-28T12:01:24Z</time>
      </trkpt>
      <trkpt lat="45.1028" lon="5.52893">
        <ele>1032.7</ele>
        <time>2019-08-28T12:01:25Z</time>
      </trkpt>
      <trkpt lat="45.10277" lon="5.52894">
        <ele>1032.67</ele>
        <time>2019-08-28T12:01:26Z</time>
      </trkpt>
      <trkpt lat="45.10274" lon="5.52895">
        <ele>1032.66</ele>
        <time>2019-08-28T12:01:27Z</time>
      </trkpt>
      <trkpt lat="45.10271" lon="5.52896">
        <ele>1032.65</ele>
        <time>2019-08-28T12:01:28Z</time>
      </trkpt>
      <trkpt lat="45.10268" lon="5.52897">
        <ele>1032.62</ele>
        <time>2019-08-28T12:01:29Z</time>
      </trkpt>
      <trkpt lat="45.10265" lon="5.52899">
        <ele>1032.59</ele>
        <time>2019-08-28T12:01:30Z</time>
      </trkpt>
      <trkpt lat="45.10262" lon="5.52901">
        <ele>1032.58</ele>
        <time>2019-08-28T12:01:31Z</time>
      </trkpt>
      <trkpt lat="45.10258" lon="5.52905">
        <ele>1032.51</ele>
        <time>2019-08-28T12:01:32Z</time>
      </trkpt>
      <trkpt lat="45.10253" lon="5.52907">
        <ele>1032.31</ele>
        <time>2019-08-28T12:01:33Z</time>
      </trkpt>
      <trkpt lat="45.10247" lon="5.52909">
        <ele>1031.95</ele>
        <time>2019-08-28T12:01:34Z</time>
      </trkpt>
      <trkpt lat="45.10242" lon="5.5291">
        <ele>1031.53</ele>
        <time>2019-08-28T12:01:35Z</time>
      </trkpt>
      <trkpt lat="45.10237" lon="5.5291">
        <ele>1031.08</ele>
        <time>2019-08-28T12:01:36Z</time>
      </trkpt>
      <trkpt lat="45.10233" lon="5.52911">
        <ele>1030.64</ele>
        <time>2019-08-28T12:01:37Z</time>
      </trkpt>
      <trkpt lat="45.1023" lon="5.52911">
        <ele>1030.24</ele>
        <time>2019-08-28T12:01:38Z</time>
      </trkpt>
      <trkpt lat="45.10226" lon="5.52912">
        <ele>1029.92</ele>
        <time>2019-08-28T12:01:39Z</time>
      </trkpt>
      <trkpt lat="45.10222" lon="5.52913">
        <ele>1029.62</ele>
        <time>2019-08-28T12:01:40Z</time>
      </trkpt>
      <trkpt lat="45.10219" lon="5.52914">
        <ele>1029.29</ele>
        <time>2019-08-28T12:01:41Z</time>
      </trkpt>
      <trkpt lat="45.10216" lon="5.52914">
        <ele>1028.9</ele>
        <time>2019-08-28T12:01:42Z</time>
      </trkpt>
      <trkpt lat="45.10198" lon="5.5293">
        <ele>1026.27</ele>
        <time>2019-08-28T12:01:49Z</time>
      </trkpt>
      <trkpt lat="45.10198" lon="5.52933">
        <ele>1025.87</ele>
        <time>2019-08-28T12:01:50Z</time>
      </trkpt>
      <trkpt lat="45.10198" lon="5.52935">
        <ele>1025.02</ele>
        <time>2019-08-28T12:01:51Z</time>
      </trkpt>
      <trkpt lat="45.10198" lon="5.52938">
        <ele>1025.02</ele>
        <time>2019-08-28T12:01:52Z</time>
      </trkpt>
      <trkpt lat="45.10197" lon="5.52941">
        <ele>1024.25</ele>
        <time>2019-08-28T12:01:53Z</time>
      </trkpt>
      <trkpt lat="45.10197" lon="5.52943">
        <ele>1023.88</ele>
        <time>2019-08-28T12:01:54Z</time>
      </trkpt>
      <trkpt lat="45.10196" lon="5.52946">
        <ele>1023.53</ele>
        <time>2019-08-28T12:01:55Z</time>
      </trkpt>
      <trkpt lat="45.10193" lon="5.52949">
        <ele>1023.22</ele>
        <time>2019-08-28T12:01:56Z</time>
      </trkpt>
      <trkpt lat="45.10188" lon="5.52955">
        <ele>1022.48</ele>
        <time>2019-08-28T12:01:58Z</time>
      </trkpt>
      <trkpt lat="45.1018" lon="5.52972">
        <ele>1019.71</ele>
        <time>2019-08-28T12:02:04Z</time>
      </trkpt>
      <trkpt lat="45.10174" lon="5.52985">
        <ele>1017.63</ele>
        <time>2019-08-28T12:02:08Z</time>
      </trkpt>
      <trkpt lat="45.10168" lon="5.52999">
        <ele>1015.95</ele>
        <time>2019-08-28T12:02:11Z</time>
      </trkpt>
      <trkpt lat="45.10159" lon="5.53012">
        <ele>1014.15</ele>
        <time>2019-08-28T12:02:14Z</time>
      </trkpt>
      <trkpt lat="45.10154" lon="5.53021">
        <ele>1011.62</ele>
        <time>2019-08-28T12:02:26Z</time>
      </trkpt>
      <trkpt lat="45.10153" lon="5.53018">
        <ele>1011.76</ele>
        <time>2019-08-28T12:02:49Z</time>
      </trkpt>
      <trkpt lat="45.10152" lon="5.53017">
        <ele>1011.76</ele>
        <time>2019-08-28T12:02:50Z</time>
      </trkpt>
      <trkpt lat="45.10147" lon="5.53009">
        <ele>1011.67</ele>
        <time>2019-08-28T12:02:54Z</time>
      </trkpt>
      <trkpt lat="45.10126" lon="5.52983">
        <ele>1011.2</ele>
        <time>2019-08-28T12:03:06Z</time>
      </trkpt>
      <trkpt lat="45.10125" lon="5.52982">
        <ele>1011.38</ele>
        <time>2019-08-28T12:03:07Z</time>
      </trkpt>
      <trkpt lat="45.10114" lon="5.52971">
        <ele>1013.1</ele>
        <time>2019-08-28T12:03:17Z</time>
      </trkpt>
      <trkpt lat="45.1011" lon="5.52968">
        <ele>1013.77</ele>
        <time>2019-08-28T12:03:20Z</time>
      </trkpt>
      <trkpt lat="45.1009" lon="5.52947">
        <ele>1016</ele>
        <time>2019-08-28T12:03:33Z</time>
      </trkpt>
      <trkpt lat="45.1007" lon="5.52928">
        <ele>1015.75</ele>
        <time>2019-08-28T12:03:43Z</time>
      </trkpt>
      <trkpt lat="45.10053" lon="5.52914">
        <ele>1015.86</ele>
        <time>2019-08-28T12:03:49Z</time>
      </trkpt>
      <trkpt lat="45.10046" lon="5.52899">
        <ele>1016.1</ele>
        <time>2019-08-28T12:03:55Z</time>
      </trkpt>
      <trkpt lat="45.10045" lon="5.52839">
        <ele>1015.27</ele>
        <time>2019-08-28T12:04:05Z</time>
      </trkpt>
      <trkpt lat="45.10043" lon="5.52808">
        <ele>1015.71</ele>
        <time>2019-08-28T12:04:14Z</time>
      </trkpt>
      <trkpt lat="45.10043" lon="5.52797">
        <ele>1016.52</ele>
        <time>2019-08-28T12:04:36Z</time>
      </trkpt>
      <trkpt lat="45.10039" lon="5.52793">
        <ele>1016.39</ele>
        <time>2019-08-28T12:05:07Z</time>
      </trkpt>
      <trkpt lat="45.10039" lon="5.52785">
        <ele>1016.05</ele>
        <time>2019-08-28T12:05:27Z</time>
      </trkpt>
      <trkpt lat="45.10027" lon="5.52763">
        <ele>1013.48</ele>
        <time>2019-08-28T12:05:37Z</time>
      </trkpt>
      <trkpt lat="45.10025" lon="5.52758">
        <ele>1013.09</ele>
        <time>2019-08-28T12:05:38Z</time>
      </trkpt>
      <trkpt lat="45.10014" lon="5.52726">
        <ele>1009.84</ele>
        <time>2019-08-28T12:05:49Z</time>
      </trkpt>
      <trkpt lat="45.10012" lon="5.52724">
        <ele>1009.06</ele>
        <time>2019-08-28T12:05:50Z</time>
      </trkpt>
      <trkpt lat="45.10003" lon="5.5271">
        <ele>1006.24</ele>
        <time>2019-08-28T12:05:57Z</time>
      </trkpt>
      <trkpt lat="45.09996" lon="5.52695">
        <ele>1002.54</ele>
        <time>2019-08-28T12:06:03Z</time>
      </trkpt>
      <trkpt lat="45.09994" lon="5.52692">
        <ele>1002.02</ele>
        <time>2019-08-28T12:06:04Z</time>
      </trkpt>
      <trkpt lat="45.09989" lon="5.52677">
        <ele>998.91</ele>
        <time>2019-08-28T12:06:10Z</time>
      </trkpt>
      <trkpt lat="45.09986" lon="5.52674">
        <ele>997.66</ele>
        <time>2019-08-28T12:06:12Z</time>
      </trkpt>
      <trkpt lat="45.09984" lon="5.52672">
        <ele>995.68</ele>
        <time>2019-08-28T12:06:15Z</time>
      </trkpt>
      <trkpt lat="45.09976" lon="5.52649">
        <ele>992.09</ele>
        <time>2019-08-28T12:06:33Z</time>
      </trkpt>
      <trkpt lat="45.09971" lon="5.52635">
        <ele>988.91</ele>
        <time>2019-08-28T12:06:46Z</time>
      </trkpt>
      <trkpt lat="45.09964" lon="5.52624">
        <ele>986.46</ele>
        <time>2019-08-28T12:07:03Z</time>
      </trkpt>
      <trkpt lat="45.09957" lon="5.52614">
        <ele>983.93</ele>
        <time>2019-08-28T12:07:20Z</time>
      </trkpt>
      <trkpt lat="45.09949" lon="5.52603">
        <ele>980.79</ele>
        <time>2019-08-28T12:07:34Z</time>
      </trkpt>
      <trkpt lat="45.09941" lon="5.52597">
        <ele>977.7</ele>
        <time>2019-08-28T12:07:51Z</time>
      </trkpt>
      <trkpt lat="45.09934" lon="5.5259">
        <ele>974.59</ele>
        <time>2019-08-28T12:08:05Z</time>
      </trkpt>
      <trkpt lat="45.09921" lon="5.52579">
        <ele>971.79</ele>
        <time>2019-08-28T12:08:21Z</time>
      </trkpt>
      <trkpt lat="45.09914" lon="5.52574">
        <ele>970.64</ele>
        <time>2019-08-28T12:08:25Z</time>
      </trkpt>
      <trkpt lat="45.09901" lon="5.52554">
        <ele>966.78</ele>
        <time>2019-08-28T12:08:33Z</time>
      </trkpt>
      <trkpt lat="45.09896" lon="5.52552">
        <ele>965.7</ele>
        <time>2019-08-28T12:08:35Z</time>
      </trkpt>
      <trkpt lat="45.09894" lon="5.52553">
        <ele>965.1</ele>
        <time>2019-08-28T12:08:36Z</time>
      </trkpt>
      <trkpt lat="45.09893" lon="5.52555">
        <ele>964.51</ele>
        <time>2019-08-28T12:08:37Z</time>
      </trkpt>
      <trkpt lat="45.09893" lon="5.52556">
        <ele>963.97</ele>
        <time>2019-08-28T12:08:38Z</time>
      </trkpt>
      <trkpt lat="45.09893" lon="5.52557">
        <ele>960.98</ele>
        <time>2019-08-28T12:08:54Z</time>
      </trkpt>
      <trkpt lat="45.09893" lon="5.52552">
        <ele>960.54</ele>
        <time>2019-08-28T12:10:14Z</time>
      </trkpt>
      <trkpt lat="45.09892" lon="5.52559">
        <ele>961.22</ele>
        <time>2019-08-28T12:10:41Z</time>
      </trkpt>
      <trkpt lat="45.09892" lon="5.5256">
        <ele>961.34</ele>
        <time>2019-08-28T12:11:32Z</time>
      </trkpt>
      <trkpt lat="45.09894" lon="5.52564">
        <ele>960.84</ele>
        <time>2019-08-28T12:12:42Z</time>
      </trkpt>
      <trkpt lat="45.09897" lon="5.52563">
        <ele>960.51</ele>
        <time>2019-08-28T12:14:29Z</time>
      </trkpt>
      <trkpt lat="45.09895" lon="5.52564">
        <ele>960.65</ele>
        <time>2019-08-28T12:15:56Z</time>
      </trkpt>
      <trkpt lat="45.09895" lon="5.52566">
        <ele>960.76</ele>
        <time>2019-08-28T12:15:59Z</time>
      </trkpt>
      <trkpt lat="45.09895" lon="5.52567">
        <ele>960.78</ele>
        <time>2019-08-28T12:16:00Z</time>
      </trkpt>
      <trkpt lat="45.09894" lon="5.5257">
        <ele>960.8</ele>
        <time>2019-08-28T12:16:01Z</time>
      </trkpt>
      <trkpt lat="45.09894" lon="5.52572">
        <ele>960.83</ele>
        <time>2019-08-28T12:16:02Z</time>
      </trkpt>
      <trkpt lat="45.09893" lon="5.52574">
        <ele>960.85</ele>
        <time>2019-08-28T12:16:03Z</time>
      </trkpt>
      <trkpt lat="45.09893" lon="5.52576">
        <ele>960.85</ele>
        <time>2019-08-28T12:16:04Z</time>
      </trkpt>
      <trkpt lat="45.09892" lon="5.52578">
        <ele>960.82</ele>
        <time>2019-08-28T12:16:05Z</time>
      </trkpt>
      <trkpt lat="45.09891" lon="5.52581">
        <ele>960.8</ele>
        <time>2019-08-28T12:16:06Z</time>
      </trkpt>
      <trkpt lat="45.09889" lon="5.52584">
        <ele>960.76</ele>
        <time>2019-08-28T12:16:07Z</time>
      </trkpt>
      <trkpt lat="45.09881" lon="5.52604">
        <ele>960.41</ele>
        <time>2019-08-28T12:16:11Z</time>
      </trkpt>
      <trkpt lat="45.09878" lon="5.5261">
        <ele>960.22</ele>
        <time>2019-08-28T12:16:12Z</time>
      </trkpt>
      <trkpt lat="45.09875" lon="5.52617">
        <ele>960.01</ele>
        <time>2019-08-28T12:16:13Z</time>
      </trkpt>
      <trkpt lat="45.09872" lon="5.52625">
        <ele>959.72</ele>
        <time>2019-08-28T12:16:14Z</time>
      </trkpt>
      <trkpt lat="45.0987" lon="5.52632">
        <ele>959.3</ele>
        <time>2019-08-28T12:16:15Z</time>
      </trkpt>
      <trkpt lat="45.09867" lon="5.5264">
        <ele>958.88</ele>
        <time>2019-08-28T12:16:16Z</time>
      </trkpt>
      <trkpt lat="45.0986" lon="5.52667">
        <ele>957.74</ele>
        <time>2019-08-28T12:16:20Z</time>
      </trkpt>
      <trkpt lat="45.09853" lon="5.52683">
        <ele>957.24</ele>
        <time>2019-08-28T12:16:23Z</time>
      </trkpt>
      <trkpt lat="45.0985" lon="5.52687">
        <ele>957.24</ele>
        <time>2019-08-28T12:16:24Z</time>
      </trkpt>
      <trkpt lat="45.09821" lon="5.52725">
        <ele>956.87</ele>
        <time>2019-08-28T12:16:35Z</time>
      </trkpt>
      <trkpt lat="45.09791" lon="5.52753">
        <ele>956.64</ele>
        <time>2019-08-28T12:16:45Z</time>
      </trkpt>
      <trkpt lat="45.0977" lon="5.52751">
        <ele>956.52</ele>
        <time>2019-08-28T12:16:52Z</time>
      </trkpt>
      <trkpt lat="45.09767" lon="5.5275">
        <ele>956.48</ele>
        <time>2019-08-28T12:16:53Z</time>
      </trkpt>
      <trkpt lat="45.09765" lon="5.52748">
        <ele>956.47</ele>
        <time>2019-08-28T12:16:54Z</time>
      </trkpt>
      <trkpt lat="45.09745" lon="5.52727">
        <ele>956.41</ele>
        <time>2019-08-28T12:17:04Z</time>
      </trkpt>
      <trkpt lat="45.09733" lon="5.52703">
        <ele>957.54</ele>
        <time>2019-08-28T12:17:16Z</time>
      </trkpt>
      <trkpt lat="45.09728" lon="5.52695">
        <ele>957.93</ele>
        <time>2019-08-28T12:17:21Z</time>
      </trkpt>
      <trkpt lat="45.09727" lon="5.52693">
        <ele>958.07</ele>
        <time>2019-08-28T12:17:22Z</time>
      </trkpt>
      <trkpt lat="45.09726" lon="5.52692">
        <ele>958.24</ele>
        <time>2019-08-28T12:17:23Z</time>
      </trkpt>
      <trkpt lat="45.0971" lon="5.5267">
        <ele>960.52</ele>
        <time>2019-08-28T12:17:38Z</time>
      </trkpt>
      <trkpt lat="45.09686" lon="5.52657">
        <ele>962.21</ele>
        <time>2019-08-28T12:17:53Z</time>
      </trkpt>
      <trkpt lat="45.09661" lon="5.52661">
        <ele>964.31</ele>
        <time>2019-08-28T12:18:09Z</time>
      </trkpt>
      <trkpt lat="45.0963" lon="5.52672">
        <ele>967.48</ele>
        <time>2019-08-28T12:18:29Z</time>
      </trkpt>
      <trkpt lat="45.0962" lon="5.52678">
        <ele>968.46</ele>
        <time>2019-08-28T12:18:37Z</time>
      </trkpt>
      <trkpt lat="45.09619" lon="5.52678">
        <ele>968.59</ele>
        <time>2019-08-28T12:18:38Z</time>
      </trkpt>
      <trkpt lat="45.09617" lon="5.5268">
        <ele>968.72</ele>
        <time>2019-08-28T12:18:39Z</time>
      </trkpt>
      <trkpt lat="45.09616" lon="5.52681">
        <ele>968.85</ele>
        <time>2019-08-28T12:18:40Z</time>
      </trkpt>
      <trkpt lat="45.09615" lon="5.52682">
        <ele>968.95</ele>
        <time>2019-08-28T12:18:41Z</time>
      </trkpt>
      <trkpt lat="45.09593" lon="5.52695">
        <ele>971.26</ele>
        <time>2019-08-28T12:18:56Z</time>
      </trkpt>
      <trkpt lat="45.09576" lon="5.52695">
        <ele>973.54</ele>
        <time>2019-08-28T12:19:11Z</time>
      </trkpt>
      <trkpt lat="45.09571" lon="5.52695">
        <ele>973.44</ele>
        <time>2019-08-28T12:19:14Z</time>
      </trkpt>
      <trkpt lat="45.09536" lon="5.52684">
        <ele>971.47</ele>
        <time>2019-08-28T12:19:27Z</time>
      </trkpt>
      <trkpt lat="45.09529" lon="5.52682">
        <ele>968.72</ele>
        <time>2019-08-28T12:19:39Z</time>
      </trkpt>
      <trkpt lat="45.0951" lon="5.52665">
        <ele>967.18</ele>
        <time>2019-08-28T12:19:50Z</time>
      </trkpt>
      <trkpt lat="45.09502" lon="5.52653">
        <ele>965.92</ele>
        <time>2019-08-28T12:19:53Z</time>
      </trkpt>
      <trkpt lat="45.09499" lon="5.52649">
        <ele>965.38</ele>
        <time>2019-08-28T12:19:54Z</time>
      </trkpt>
      <trkpt lat="45.09495" lon="5.52646">
        <ele>964.81</ele>
        <time>2019-08-28T12:19:55Z</time>
      </trkpt>
      <trkpt lat="45.09491" lon="5.52644">
        <ele>964.23</ele>
        <time>2019-08-28T12:19:56Z</time>
      </trkpt>
      <trkpt lat="45.09488" lon="5.52641">
        <ele>963.63</ele>
        <time>2019-08-28T12:19:57Z</time>
      </trkpt>
      <trkpt lat="45.09485" lon="5.52639">
        <ele>963.01</ele>
        <time>2019-08-28T12:19:58Z</time>
      </trkpt>
      <trkpt lat="45.09482" lon="5.52636">
        <ele>962.4</ele>
        <time>2019-08-28T12:19:59Z</time>
      </trkpt>
      <trkpt lat="45.09479" lon="5.52633">
        <ele>961.84</ele>
        <time>2019-08-28T12:20:00Z</time>
      </trkpt>
      <trkpt lat="45.09477" lon="5.52631">
        <ele>961.34</ele>
        <time>2019-08-28T12:20:01Z</time>
      </trkpt>
      <trkpt lat="45.09459" lon="5.52626">
        <ele>958.02</ele>
        <time>2019-08-28T12:20:08Z</time>
      </trkpt>
      <trkpt lat="45.0944" lon="5.52632">
        <ele>955.75</ele>
        <time>2019-08-28T12:20:14Z</time>
      </trkpt>
      <trkpt lat="45.09436" lon="5.52636">
        <ele>955.46</ele>
        <time>2019-08-28T12:20:15Z</time>
      </trkpt>
      <trkpt lat="45.09401" lon="5.52671">
        <ele>952.34</ele>
        <time>2019-08-28T12:20:22Z</time>
      </trkpt>
      <trkpt lat="45.09389" lon="5.5268">
        <ele>950.76</ele>
        <time>2019-08-28T12:20:29Z</time>
      </trkpt>
      <trkpt lat="45.09388" lon="5.52679">
        <ele>950.67</ele>
        <time>2019-08-28T12:20:30Z</time>
      </trkpt>
      <trkpt lat="45.09386" lon="5.52679">
        <ele>950.58</ele>
        <time>2019-08-28T12:20:31Z</time>
      </trkpt>
      <trkpt lat="45.09385" lon="5.52679">
        <ele>950.48</ele>
        <time>2019-08-28T12:20:32Z</time>
      </trkpt>
      <trkpt lat="45.09383" lon="5.52679">
        <ele>950.31</ele>
        <time>2019-08-28T12:20:33Z</time>
      </trkpt>
      <trkpt lat="45.09384" lon="5.52673">
        <ele>949.95</ele>
        <time>2019-08-28T12:20:41Z</time>
      </trkpt>
      <trkpt lat="45.09383" lon="5.52672">
        <ele>949.76</ele>
        <time>2019-08-28T12:21:07Z</time>
      </trkpt>
      <trkpt lat="45.09375" lon="5.52675">
        <ele>949.64</ele>
        <time>2019-08-28T12:21:14Z</time>
      </trkpt>
      <trkpt lat="45.09367" lon="5.52674">
        <ele>949.32</ele>
        <time>2019-08-28T12:21:21Z</time>
      </trkpt>
      <trkpt lat="45.09332" lon="5.52682">
        <ele>948.19</ele>
        <time>2019-08-28T12:21:35Z</time>
      </trkpt>
      <trkpt lat="45.09323" lon="5.52685">
        <ele>947.51</ele>
        <time>2019-08-28T12:21:37Z</time>
      </trkpt>
      <trkpt lat="45.09318" lon="5.52685">
        <ele>947.09</ele>
        <time>2019-08-28T12:21:38Z</time>
      </trkpt>
      <trkpt lat="45.09312" lon="5.52683">
        <ele>946.61</ele>
        <time>2019-08-28T12:21:39Z</time>
      </trkpt>
      <trkpt lat="45.09303" lon="5.52677">
        <ele>945.49</ele>
        <time>2019-08-28T12:21:41Z</time>
      </trkpt>
      <trkpt lat="45.0929" lon="5.52665">
        <ele>943.68</ele>
        <time>2019-08-28T12:21:45Z</time>
      </trkpt>
      <trkpt lat="45.09252" lon="5.52657">
        <ele>941.79</ele>
        <time>2019-08-28T12:21:53Z</time>
      </trkpt>
      <trkpt lat="45.09234" lon="5.52625">
        <ele>941.28</ele>
        <time>2019-08-28T12:22:00Z</time>
      </trkpt>
      <trkpt lat="45.09236" lon="5.52601">
        <ele>941.18</ele>
        <time>2019-08-28T12:22:04Z</time>
      </trkpt>
      <trkpt lat="45.09231" lon="5.52559">
        <ele>940.99</ele>
        <time>2019-08-28T12:22:12Z</time>
      </trkpt>
      <trkpt lat="45.09222" lon="5.52555">
        <ele>941.23</ele>
        <time>2019-08-28T12:22:16Z</time>
      </trkpt>
      <trkpt lat="45.09201" lon="5.5255">
        <ele>941.51</ele>
        <time>2019-08-28T12:22:22Z</time>
      </trkpt>
      <trkpt lat="45.09198" lon="5.52546">
        <ele>941.48</ele>
        <time>2019-08-28T12:22:23Z</time>
      </trkpt>
      <trkpt lat="45.09196" lon="5.52541">
        <ele>941.42</ele>
        <time>2019-08-28T12:22:24Z</time>
      </trkpt>
      <trkpt lat="45.09175" lon="5.52471">
        <ele>941.21</ele>
        <time>2019-08-28T12:22:37Z</time>
      </trkpt>
      <trkpt lat="45.09168" lon="5.52454">
        <ele>941.15</ele>
        <time>2019-08-28T12:22:40Z</time>
      </trkpt>
      <trkpt lat="45.09166" lon="5.52447">
        <ele>941.11</ele>
        <time>2019-08-28T12:22:41Z</time>
      </trkpt>
      <trkpt lat="45.09163" lon="5.52441">
        <ele>941.01</ele>
        <time>2019-08-28T12:22:42Z</time>
      </trkpt>
      <trkpt lat="45.0916" lon="5.52436">
        <ele>940.88</ele>
        <time>2019-08-28T12:22:43Z</time>
      </trkpt>
      <trkpt lat="45.09156" lon="5.52431">
        <ele>940.75</ele>
        <time>2019-08-28T12:22:44Z</time>
      </trkpt>
      <trkpt lat="45.09153" lon="5.52426">
        <ele>940.61</ele>
        <time>2019-08-28T12:22:45Z</time>
      </trkpt>
      <trkpt lat="45.09149" lon="5.52422">
        <ele>940.47</ele>
        <time>2019-08-28T12:22:46Z</time>
      </trkpt>
      <trkpt lat="45.09137" lon="5.52414">
        <ele>940.19</ele>
        <time>2019-08-28T12:22:49Z</time>
      </trkpt>
      <trkpt lat="45.09133" lon="5.52412">
        <ele>940.14</ele>
        <time>2019-08-28T12:22:50Z</time>
      </trkpt>
      <trkpt lat="45.09121" lon="5.52403">
        <ele>940.02</ele>
        <time>2019-08-28T12:22:54Z</time>
      </trkpt>
      <trkpt lat="45.09119" lon="5.524">
        <ele>940.02</ele>
        <time>2019-08-28T12:22:55Z</time>
      </trkpt>
      <trkpt lat="45.09102" lon="5.52383">
        <ele>939.83</ele>
        <time>2019-08-28T12:23:01Z</time>
      </trkpt>
      <trkpt lat="45.09056" lon="5.52402">
        <ele>939.47</ele>
        <time>2019-08-28T12:23:14Z</time>
      </trkpt>
      <trkpt lat="45.09031" lon="5.5243">
        <ele>939.09</ele>
        <time>2019-08-28T12:23:25Z</time>
      </trkpt>
      <trkpt lat="45.09022" lon="5.52447">
        <ele>939.15</ele>
        <time>2019-08-28T12:23:36Z</time>
      </trkpt>
      <trkpt lat="45.09009" lon="5.52452">
        <ele>939.29</ele>
        <time>2019-08-28T12:23:43Z</time>
      </trkpt>
      <trkpt lat="45.08989" lon="5.52422">
        <ele>939.44</ele>
        <time>2019-08-28T12:23:54Z</time>
      </trkpt>
      <trkpt lat="45.08957" lon="5.52394">
        <ele>939.08</ele>
        <time>2019-08-28T12:24:05Z</time>
      </trkpt>
      <trkpt lat="45.0893" lon="5.52355">
        <ele>940.15</ele>
        <time>2019-08-28T12:24:20Z</time>
      </trkpt>
      <trkpt lat="45.08901" lon="5.5233">
        <ele>940.08</ele>
        <time>2019-08-28T12:24:30Z</time>
      </trkpt>
      <trkpt lat="45.08897" lon="5.52326">
        <ele>939.91</ele>
        <time>2019-08-28T12:24:31Z</time>
      </trkpt>
      <trkpt lat="45.08863" lon="5.52276">
        <ele>939.05</ele>
        <time>2019-08-28T12:24:44Z</time>
      </trkpt>
      <trkpt lat="45.08838" lon="5.52239">
        <ele>940.98</ele>
        <time>2019-08-28T12:24:59Z</time>
      </trkpt>
      <trkpt lat="45.08821" lon="5.52203">
        <ele>943.24</ele>
        <time>2019-08-28T12:25:14Z</time>
      </trkpt>
      <trkpt lat="45.08789" lon="5.52175">
        <ele>944.32</ele>
        <time>2019-08-28T12:25:29Z</time>
      </trkpt>
      <trkpt lat="45.08754" lon="5.52157">
        <ele>943.67</ele>
        <time>2019-08-28T12:25:40Z</time>
      </trkpt>
      <trkpt lat="45.087" lon="5.52141">
        <ele>942.87</ele>
        <time>2019-08-28T12:25:55Z</time>
      </trkpt>
      <trkpt lat="45.08681" lon="5.52145">
        <ele>942.45</ele>
        <time>2019-08-28T12:25:59Z</time>
      </trkpt>
      <trkpt lat="45.08675" lon="5.52147">
        <ele>942.28</ele>
        <time>2019-08-28T12:26:00Z</time>
      </trkpt>
      <trkpt lat="45.0867" lon="5.52151">
        <ele>942.09</ele>
        <time>2019-08-28T12:26:01Z</time>
      </trkpt>
      <trkpt lat="45.08666" lon="5.52157">
        <ele>941.9</ele>
        <time>2019-08-28T12:26:02Z</time>
      </trkpt>
      <trkpt lat="45.08662" lon="5.52164">
        <ele>941.72</ele>
        <time>2019-08-28T12:26:03Z</time>
      </trkpt>
      <trkpt lat="45.08659" lon="5.52172">
        <ele>941.54</ele>
        <time>2019-08-28T12:26:04Z</time>
      </trkpt>
      <trkpt lat="45.08656" lon="5.52181">
        <ele>941.28</ele>
        <time>2019-08-28T12:26:05Z</time>
      </trkpt>
      <trkpt lat="45.08627" lon="5.52269">
        <ele>938.16</ele>
        <time>2019-08-28T12:26:15Z</time>
      </trkpt>
      <trkpt lat="45.08612" lon="5.52286">
        <ele>936.44</ele>
        <time>2019-08-28T12:26:22Z</time>
      </trkpt>
      <trkpt lat="45.08601" lon="5.52324">
        <ele>937.07</ele>
        <time>2019-08-28T12:26:35Z</time>
      </trkpt>
      <trkpt lat="45.08588" lon="5.52386">
        <ele>936.33</ele>
        <time>2019-08-28T12:26:51Z</time>
      </trkpt>
      <trkpt lat="45.08579" lon="5.52424">
        <ele>936.09</ele>
        <time>2019-08-28T12:27:02Z</time>
      </trkpt>
      <trkpt lat="45.0856" lon="5.52463">
        <ele>936.36</ele>
        <time>2019-08-28T12:27:13Z</time>
      </trkpt>
      <trkpt lat="45.08549" lon="5.52504">
        <ele>936.19</ele>
        <time>2019-08-28T12:27:24Z</time>
      </trkpt>
      <trkpt lat="45.08537" lon="5.52521">
        <ele>935.99</ele>
        <time>2019-08-28T12:27:30Z</time>
      </trkpt>
      <trkpt lat="45.08533" lon="5.52521">
        <ele>935.96</ele>
        <time>2019-08-28T12:27:31Z</time>
      </trkpt>
      <trkpt lat="45.08525" lon="5.52521">
        <ele>935.69</ele>
        <time>2019-08-28T12:27:33Z</time>
      </trkpt>
      <trkpt lat="45.08513" lon="5.52536">
        <ele>934.75</ele>
        <time>2019-08-28T12:27:38Z</time>
      </trkpt>
      <trkpt lat="45.08482" lon="5.52602">
        <ele>934.54</ele>
        <time>2019-08-28T12:27:54Z</time>
      </trkpt>
      <trkpt lat="45.0847" lon="5.52663">
        <ele>934.78</ele>
        <time>2019-08-28T12:28:08Z</time>
      </trkpt>
      <trkpt lat="45.08451" lon="5.52745">
        <ele>935.41</ele>
        <time>2019-08-28T12:28:25Z</time>
      </trkpt>
      <trkpt lat="45.08445" lon="5.52811">
        <ele>935.76</ele>
        <time>2019-08-28T12:28:39Z</time>
      </trkpt>
      <trkpt lat="45.08456" lon="5.52853">
        <ele>936.84</ele>
        <time>2019-08-28T12:28:51Z</time>
      </trkpt>
      <trkpt lat="45.08455" lon="5.52859">
        <ele>937.24</ele>
        <time>2019-08-28T12:28:53Z</time>
      </trkpt>
      <trkpt lat="45.08454" lon="5.52861">
        <ele>937.43</ele>
        <time>2019-08-28T12:28:54Z</time>
      </trkpt>
      <trkpt lat="45.08452" lon="5.52863">
        <ele>937.61</ele>
        <time>2019-08-28T12:28:55Z</time>
      </trkpt>
      <trkpt lat="45.08436" lon="5.52878">
        <ele>938.68</ele>
        <time>2019-08-28T12:29:03Z</time>
      </trkpt>
      <trkpt lat="45.08433" lon="5.52883">
        <ele>938.67</ele>
        <time>2019-08-28T12:29:04Z</time>
      </trkpt>
      <trkpt lat="45.0843" lon="5.5289">
        <ele>938.61</ele>
        <time>2019-08-28T12:29:05Z</time>
      </trkpt>
      <trkpt lat="45.08427" lon="5.52897">
        <ele>938.48</ele>
        <time>2019-08-28T12:29:06Z</time>
      </trkpt>
      <trkpt lat="45.08425" lon="5.52905">
        <ele>938.25</ele>
        <time>2019-08-28T12:29:07Z</time>
      </trkpt>
      <trkpt lat="45.08422" lon="5.52911">
        <ele>938</ele>
        <time>2019-08-28T12:29:08Z</time>
      </trkpt>
      <trkpt lat="45.0842" lon="5.52917">
        <ele>937.79</ele>
        <time>2019-08-28T12:29:09Z</time>
      </trkpt>
      <trkpt lat="45.08406" lon="5.52948">
        <ele>938.23</ele>
        <time>2019-08-28T12:29:19Z</time>
      </trkpt>
      <trkpt lat="45.08405" lon="5.52954">
        <ele>938.69</ele>
        <time>2019-08-28T12:29:22Z</time>
      </trkpt>
      <trkpt lat="45.08396" lon="5.5298">
        <ele>939.43</ele>
        <time>2019-08-28T12:29:32Z</time>
      </trkpt>
      <trkpt lat="45.08394" lon="5.52987">
        <ele>939.53</ele>
        <time>2019-08-28T12:29:34Z</time>
      </trkpt>
      <trkpt lat="45.0839" lon="5.52997">
        <ele>939.6</ele>
        <time>2019-08-28T12:29:37Z</time>
      </trkpt>
      <trkpt lat="45.08366" lon="5.5304">
        <ele>939.25</ele>
        <time>2019-08-28T12:29:49Z</time>
      </trkpt>
      <trkpt lat="45.08336" lon="5.53066">
        <ele>939.02</ele>
        <time>2019-08-28T12:29:59Z</time>
      </trkpt>
      <trkpt lat="45.08297" lon="5.53091">
        <ele>939.24</ele>
        <time>2019-08-28T12:30:09Z</time>
      </trkpt>
      <trkpt lat="45.08283" lon="5.53106">
        <ele>939.26</ele>
        <time>2019-08-28T12:30:13Z</time>
      </trkpt>
      <trkpt lat="45.08266" lon="5.53112">
        <ele>939.17</ele>
        <time>2019-08-28T12:30:17Z</time>
      </trkpt>
      <trkpt lat="45.08219" lon="5.5312">
        <ele>939.16</ele>
        <time>2019-08-28T12:30:30Z</time>
      </trkpt>
      <trkpt lat="45.08181" lon="5.53144">
        <ele>939.11</ele>
        <time>2019-08-28T12:30:43Z</time>
      </trkpt>
      <trkpt lat="45.08151" lon="5.53159">
        <ele>939.45</ele>
        <time>2019-08-28T12:30:55Z</time>
      </trkpt>
      <trkpt lat="45.08118" lon="5.53178">
        <ele>939.6</ele>
        <time>2019-08-28T12:31:07Z</time>
      </trkpt>
      <trkpt lat="45.08094" lon="5.53192">
        <ele>940.71</ele>
        <time>2019-08-28T12:31:20Z</time>
      </trkpt>
      <trkpt lat="45.08074" lon="5.53198">
        <ele>942.37</ele>
        <time>2019-08-28T12:31:33Z</time>
      </trkpt>
      <trkpt lat="45.08059" lon="5.53204">
        <ele>945.46</ele>
        <time>2019-08-28T12:31:46Z</time>
      </trkpt>
      <trkpt lat="45.08041" lon="5.53209">
        <ele>948.18</ele>
        <time>2019-08-28T12:32:01Z</time>
      </trkpt>
      <trkpt lat="45.08026" lon="5.53213">
        <ele>951.31</ele>
        <time>2019-08-28T12:32:15Z</time>
      </trkpt>
      <trkpt lat="45.08023" lon="5.53216">
        <ele>951.75</ele>
        <time>2019-08-28T12:32:18Z</time>
      </trkpt>
      <trkpt lat="45.08016" lon="5.53219">
        <ele>952.67</ele>
        <time>2019-08-28T12:32:24Z</time>
      </trkpt>
      <trkpt lat="45.07999" lon="5.53227">
        <ele>955.48</ele>
        <time>2019-08-28T12:32:40Z</time>
      </trkpt>
      <trkpt lat="45.07979" lon="5.53236">
        <ele>958.27</ele>
        <time>2019-08-28T12:32:59Z</time>
      </trkpt>
      <trkpt lat="45.07969" lon="5.53239">
        <ele>960.52</ele>
        <time>2019-08-28T12:33:14Z</time>
      </trkpt>
      <trkpt lat="45.07961" lon="5.53245">
        <ele>962.12</ele>
        <time>2019-08-28T12:33:30Z</time>
      </trkpt>
      <trkpt lat="45.07942" lon="5.53251">
        <ele>963.89</ele>
        <time>2019-08-28T12:33:46Z</time>
      </trkpt>
      <trkpt lat="45.07927" lon="5.5326">
        <ele>965.67</ele>
        <time>2019-08-28T12:34:02Z</time>
      </trkpt>
      <trkpt lat="45.07925" lon="5.53261">
        <ele>965.84</ele>
        <time>2019-08-28T12:34:04Z</time>
      </trkpt>
      <trkpt lat="45.07924" lon="5.5326">
        <ele>965.91</ele>
        <time>2019-08-28T12:34:05Z</time>
      </trkpt>
      <trkpt lat="45.07921" lon="5.53261">
        <ele>966.11</ele>
        <time>2019-08-28T12:34:08Z</time>
      </trkpt>
      <trkpt lat="45.07922" lon="5.53261">
        <ele>966.8</ele>
        <time>2019-08-28T12:34:29Z</time>
      </trkpt>
      <trkpt lat="45.07918" lon="5.53263">
        <ele>966.8</ele>
        <time>2019-08-28T12:34:47Z</time>
      </trkpt>
      <trkpt lat="45.0791" lon="5.53272">
        <ele>966.9</ele>
        <time>2019-08-28T12:35:18Z</time>
      </trkpt>
      <trkpt lat="45.07901" lon="5.53278">
        <ele>966.68</ele>
        <time>2019-08-28T12:35:21Z</time>
      </trkpt>
      <trkpt lat="45.07896" lon="5.53282">
        <ele>966.68</ele>
        <time>2019-08-28T12:35:22Z</time>
      </trkpt>
      <trkpt lat="45.07892" lon="5.53286">
        <ele>966.37</ele>
        <time>2019-08-28T12:35:23Z</time>
      </trkpt>
      <trkpt lat="45.07872" lon="5.53307">
        <ele>964.95</ele>
        <time>2019-08-28T12:35:27Z</time>
      </trkpt>
      <trkpt lat="45.07866" lon="5.53315">
        <ele>964.52</ele>
        <time>2019-08-28T12:35:28Z</time>
      </trkpt>
      <trkpt lat="45.07861" lon="5.53324">
        <ele>964.03</ele>
        <time>2019-08-28T12:35:29Z</time>
      </trkpt>
      <trkpt lat="45.07857" lon="5.53333">
        <ele>963.5</ele>
        <time>2019-08-28T12:35:30Z</time>
      </trkpt>
      <trkpt lat="45.07852" lon="5.53344">
        <ele>962.97</ele>
        <time>2019-08-28T12:35:31Z</time>
      </trkpt>
      <trkpt lat="45.07846" lon="5.53355">
        <ele>962.42</ele>
        <time>2019-08-28T12:35:32Z</time>
      </trkpt>
      <trkpt lat="45.07841" lon="5.53367">
        <ele>961.84</ele>
        <time>2019-08-28T12:35:33Z</time>
      </trkpt>
      <trkpt lat="45.07836" lon="5.53378">
        <ele>961.27</ele>
        <time>2019-08-28T12:35:34Z</time>
      </trkpt>
      <trkpt lat="45.07829" lon="5.53389">
        <ele>960.7</ele>
        <time>2019-08-28T12:35:35Z</time>
      </trkpt>
      <trkpt lat="45.07823" lon="5.53399">
        <ele>960.11</ele>
        <time>2019-08-28T12:35:36Z</time>
      </trkpt>
      <trkpt lat="45.07818" lon="5.53411">
        <ele>959.53</ele>
        <time>2019-08-28T12:35:37Z</time>
      </trkpt>
      <trkpt lat="45.07812" lon="5.53422">
        <ele>958.94</ele>
        <time>2019-08-28T12:35:38Z</time>
      </trkpt>
      <trkpt lat="45.07807" lon="5.53433">
        <ele>958.36</ele>
        <time>2019-08-28T12:35:39Z</time>
      </trkpt>
      <trkpt lat="45.07798" lon="5.53453">
        <ele>957.41</ele>
        <time>2019-08-28T12:35:41Z</time>
      </trkpt>
      <trkpt lat="45.0779" lon="5.5347">
        <ele>956.75</ele>
        <time>2019-08-28T12:35:43Z</time>
      </trkpt>
      <trkpt lat="45.07787" lon="5.53477">
        <ele>956.5</ele>
        <time>2019-08-28T12:35:44Z</time>
      </trkpt>
      <trkpt lat="45.07784" lon="5.53484">
        <ele>956.32</ele>
        <time>2019-08-28T12:35:45Z</time>
      </trkpt>
      <trkpt lat="45.07782" lon="5.53492">
        <ele>956.19</ele>
        <time>2019-08-28T12:35:46Z</time>
      </trkpt>
      <trkpt lat="45.07781" lon="5.53499">
        <ele>956.18</ele>
        <time>2019-08-28T12:35:47Z</time>
      </trkpt>
      <trkpt lat="45.0778" lon="5.53506">
        <ele>956.18</ele>
        <time>2019-08-28T12:35:48Z</time>
      </trkpt>
      <trkpt lat="45.0778" lon="5.53512">
        <ele>956.38</ele>
        <time>2019-08-28T12:35:49Z</time>
      </trkpt>
      <trkpt lat="45.07779" lon="5.53517">
        <ele>956.52</ele>
        <time>2019-08-28T12:35:50Z</time>
      </trkpt>
      <trkpt lat="45.07779" lon="5.53522">
        <ele>956.63</ele>
        <time>2019-08-28T12:35:51Z</time>
      </trkpt>
      <trkpt lat="45.07778" lon="5.53536">
        <ele>956.82</ele>
        <time>2019-08-28T12:35:53Z</time>
      </trkpt>
      <trkpt lat="45.07779" lon="5.53542">
        <ele>956.89</ele>
        <time>2019-08-28T12:35:54Z</time>
      </trkpt>
      <trkpt lat="45.0778" lon="5.53548">
        <ele>956.92</ele>
        <time>2019-08-28T12:35:55Z</time>
      </trkpt>
      <trkpt lat="45.07783" lon="5.53579">
        <ele>956.75</ele>
        <time>2019-08-28T12:35:59Z</time>
      </trkpt>
      <trkpt lat="45.07781" lon="5.53589">
        <ele>956.56</ele>
        <time>2019-08-28T12:36:00Z</time>
      </trkpt>
      <trkpt lat="45.07779" lon="5.53599">
        <ele>956.28</ele>
        <time>2019-08-28T12:36:01Z</time>
      </trkpt>
      <trkpt lat="45.07775" lon="5.53609">
        <ele>955.96</ele>
        <time>2019-08-28T12:36:02Z</time>
      </trkpt>
      <trkpt lat="45.07772" lon="5.53619">
        <ele>955.6</ele>
        <time>2019-08-28T12:36:03Z</time>
      </trkpt>
      <trkpt lat="45.07766" lon="5.53626">
        <ele>955.16</ele>
        <time>2019-08-28T12:36:04Z</time>
      </trkpt>
      <trkpt lat="45.07761" lon="5.53632">
        <ele>954.7</ele>
        <time>2019-08-28T12:36:05Z</time>
      </trkpt>
      <trkpt lat="45.07755" lon="5.53637">
        <ele>954.28</ele>
        <time>2019-08-28T12:36:06Z</time>
      </trkpt>
      <trkpt lat="45.07748" lon="5.5364">
        <ele>953.92</ele>
        <time>2019-08-28T12:36:07Z</time>
      </trkpt>
      <trkpt lat="45.0774" lon="5.53641">
        <ele>953.59</ele>
        <time>2019-08-28T12:36:08Z</time>
      </trkpt>
      <trkpt lat="45.07731" lon="5.53643">
        <ele>953.29</ele>
        <time>2019-08-28T12:36:09Z</time>
      </trkpt>
      <trkpt lat="45.07669" lon="5.53651">
        <ele>950.77</ele>
        <time>2019-08-28T12:36:18Z</time>
      </trkpt>
      <trkpt lat="45.0762" lon="5.53659">
        <ele>952.54</ele>
        <time>2019-08-28T12:36:31Z</time>
      </trkpt>
      <trkpt lat="45.07601" lon="5.5368">
        <ele>953.22</ele>
        <time>2019-08-28T12:36:41Z</time>
      </trkpt>
      <trkpt lat="45.07577" lon="5.53708">
        <ele>953.04</ele>
        <time>2019-08-28T12:36:48Z</time>
      </trkpt>
      <trkpt lat="45.07573" lon="5.53713">
        <ele>952.83</ele>
        <time>2019-08-28T12:36:49Z</time>
      </trkpt>
      <trkpt lat="45.07565" lon="5.53723">
        <ele>952.43</ele>
        <time>2019-08-28T12:36:51Z</time>
      </trkpt>
      <trkpt lat="45.07517" lon="5.53769">
        <ele>951.96</ele>
        <time>2019-08-28T12:37:04Z</time>
      </trkpt>
      <trkpt lat="45.07509" lon="5.53773">
        <ele>952</ele>
        <time>2019-08-28T12:37:06Z</time>
      </trkpt>
      <trkpt lat="45.07496" lon="5.53777">
        <ele>951.96</ele>
        <time>2019-08-28T12:37:09Z</time>
      </trkpt>
      <trkpt lat="45.0748" lon="5.53778">
        <ele>951.85</ele>
        <time>2019-08-28T12:37:13Z</time>
      </trkpt>
      <trkpt lat="45.07476" lon="5.53777">
        <ele>951.85</ele>
        <time>2019-08-28T12:37:14Z</time>
      </trkpt>
      <trkpt lat="45.07444" lon="5.53762">
        <ele>952.67</ele>
        <time>2019-08-28T12:37:25Z</time>
      </trkpt>
      <trkpt lat="45.07441" lon="5.53761">
        <ele>952.76</ele>
        <time>2019-08-28T12:37:26Z</time>
      </trkpt>
      <trkpt lat="45.07396" lon="5.53751">
        <ele>955.23</ele>
        <time>2019-08-28T12:37:41Z</time>
      </trkpt>
      <trkpt lat="45.07368" lon="5.53755">
        <ele>956.94</ele>
        <time>2019-08-28T12:37:54Z</time>
      </trkpt>
      <trkpt lat="45.07337" lon="5.53772">
        <ele>958.78</ele>
        <time>2019-08-28T12:38:09Z</time>
      </trkpt>
      <trkpt lat="45.07303" lon="5.53782">
        <ele>959.59</ele>
        <time>2019-08-28T12:38:23Z</time>
      </trkpt>
      <trkpt lat="45.07294" lon="5.53798">
        <ele>959.41</ele>
        <time>2019-08-28T12:38:37Z</time>
      </trkpt>
      <trkpt lat="45.07294" lon="5.53798">
        <ele>959.04</ele>
        <time>2019-08-28T12:39:11Z</time>
      </trkpt>
      <trkpt lat="45.07293" lon="5.53802">
        <ele>959.26</ele>
        <time>2019-08-28T12:39:17Z</time>
      </trkpt>
      <trkpt lat="45.07293" lon="5.53805">
        <ele>959.27</ele>
        <time>2019-08-28T12:39:18Z</time>
      </trkpt>
      <trkpt lat="45.07292" lon="5.53823">
        <ele>959.11</ele>
        <time>2019-08-28T12:39:21Z</time>
      </trkpt>
      <trkpt lat="45.07293" lon="5.5383">
        <ele>959</ele>
        <time>2019-08-28T12:39:22Z</time>
      </trkpt>
      <trkpt lat="45.07294" lon="5.53838">
        <ele>958.86</ele>
        <time>2019-08-28T12:39:23Z</time>
      </trkpt>
      <trkpt lat="45.07297" lon="5.53846">
        <ele>958.66</ele>
        <time>2019-08-28T12:39:24Z</time>
      </trkpt>
      <trkpt lat="45.073" lon="5.53855">
        <ele>958.42</ele>
        <time>2019-08-28T12:39:25Z</time>
      </trkpt>
      <trkpt lat="45.07303" lon="5.53864">
        <ele>958.18</ele>
        <time>2019-08-28T12:39:26Z</time>
      </trkpt>
      <trkpt lat="45.07305" lon="5.53873">
        <ele>957.59</ele>
        <time>2019-08-28T12:39:27Z</time>
      </trkpt>
      <trkpt lat="45.07307" lon="5.53884">
        <ele>957.59</ele>
        <time>2019-08-28T12:39:28Z</time>
      </trkpt>
      <trkpt lat="45.07307" lon="5.53894">
        <ele>956.84</ele>
        <time>2019-08-28T12:39:29Z</time>
      </trkpt>
      <trkpt lat="45.07305" lon="5.53904">
        <ele>956.45</ele>
        <time>2019-08-28T12:39:30Z</time>
      </trkpt>
      <trkpt lat="45.07303" lon="5.53914">
        <ele>956.08</ele>
        <time>2019-08-28T12:39:31Z</time>
      </trkpt>
      <trkpt lat="45.073" lon="5.53924">
        <ele>955.75</ele>
        <time>2019-08-28T12:39:32Z</time>
      </trkpt>
      <trkpt lat="45.07297" lon="5.53933">
        <ele>955.44</ele>
        <time>2019-08-28T12:39:33Z</time>
      </trkpt>
      <trkpt lat="45.07296" lon="5.53942">
        <ele>955.18</ele>
        <time>2019-08-28T12:39:34Z</time>
      </trkpt>
      <trkpt lat="45.07294" lon="5.53951">
        <ele>954.96</ele>
        <time>2019-08-28T12:39:35Z</time>
      </trkpt>
      <trkpt lat="45.07294" lon="5.5396">
        <ele>954.79</ele>
        <time>2019-08-28T12:39:36Z</time>
      </trkpt>
      <trkpt lat="45.07293" lon="5.54012">
        <ele>954.45</ele>
        <time>2019-08-28T12:39:43Z</time>
      </trkpt>
      <trkpt lat="45.07294" lon="5.54019">
        <ele>954.47</ele>
        <time>2019-08-28T12:39:44Z</time>
      </trkpt>
      <trkpt lat="45.07313" lon="5.5406">
        <ele>954.94</ele>
        <time>2019-08-28T12:39:55Z</time>
      </trkpt>
      <trkpt lat="45.07349" lon="5.54078">
        <ele>955.8</ele>
        <time>2019-08-28T12:40:11Z</time>
      </trkpt>
      <trkpt lat="45.07391" lon="5.54098">
        <ele>956.42</ele>
        <time>2019-08-28T12:40:24Z</time>
      </trkpt>
      <trkpt lat="45.074" lon="5.54117">
        <ele>956.47</ele>
        <time>2019-08-28T12:40:28Z</time>
      </trkpt>
      <trkpt lat="45.07402" lon="5.54122">
        <ele>956.48</ele>
        <time>2019-08-28T12:40:29Z</time>
      </trkpt>
      <trkpt lat="45.07403" lon="5.54128">
        <ele>956.5</ele>
        <time>2019-08-28T12:40:30Z</time>
      </trkpt>
      <trkpt lat="45.07403" lon="5.54134">
        <ele>956.52</ele>
        <time>2019-08-28T12:40:31Z</time>
      </trkpt>
      <trkpt lat="45.07404" lon="5.54141">
        <ele>956.53</ele>
        <time>2019-08-28T12:40:32Z</time>
      </trkpt>
      <trkpt lat="45.07403" lon="5.54147">
        <ele>956.55</ele>
        <time>2019-08-28T12:40:33Z</time>
      </trkpt>
      <trkpt lat="45.07403" lon="5.54152">
        <ele>956.58</ele>
        <time>2019-08-28T12:40:34Z</time>
      </trkpt>
      <trkpt lat="45.07401" lon="5.54164">
        <ele>956.65</ele>
        <time>2019-08-28T12:40:36Z</time>
      </trkpt>
      <trkpt lat="45.07383" lon="5.54229">
        <ele>958.16</ele>
        <time>2019-08-28T12:40:49Z</time>
      </trkpt>
      <trkpt lat="45.07363" lon="5.54307">
        <ele>960.9</ele>
        <time>2019-08-28T12:41:05Z</time>
      </trkpt>
      <trkpt lat="45.07353" lon="5.54323">
        <ele>961.49</ele>
        <time>2019-08-28T12:41:09Z</time>
      </trkpt>
      <trkpt lat="45.0735" lon="5.54327">
        <ele>961.58</ele>
        <time>2019-08-28T12:41:10Z</time>
      </trkpt>
      <trkpt lat="45.07341" lon="5.54337">
        <ele>961.96</ele>
        <time>2019-08-28T12:41:13Z</time>
      </trkpt>
      <trkpt lat="45.07309" lon="5.54374">
        <ele>963.03</ele>
        <time>2019-08-28T12:41:25Z</time>
      </trkpt>
      <trkpt lat="45.07311" lon="5.54421">
        <ele>963.63</ele>
        <time>2019-08-28T12:41:34Z</time>
      </trkpt>
      <trkpt lat="45.07343" lon="5.54469">
        <ele>964.03</ele>
        <time>2019-08-28T12:41:46Z</time>
      </trkpt>
      <trkpt lat="45.07375" lon="5.54522">
        <ele>964.83</ele>
        <time>2019-08-28T12:41:58Z</time>
      </trkpt>
      <trkpt lat="45.07393" lon="5.54603">
        <ele>966</ele>
        <time>2019-08-28T12:42:12Z</time>
      </trkpt>
      <trkpt lat="45.07392" lon="5.54608">
        <ele>966.06</ele>
        <time>2019-08-28T12:42:13Z</time>
      </trkpt>
      <trkpt lat="45.07373" lon="5.54666">
        <ele>966.69</ele>
        <time>2019-08-28T12:42:25Z</time>
      </trkpt>
      <trkpt lat="45.07369" lon="5.5467">
        <ele>966.69</ele>
        <time>2019-08-28T12:42:26Z</time>
      </trkpt>
      <trkpt lat="45.07365" lon="5.54672">
        <ele>966.68</ele>
        <time>2019-08-28T12:42:27Z</time>
      </trkpt>
      <trkpt lat="45.07361" lon="5.54675">
        <ele>966.66</ele>
        <time>2019-08-28T12:42:28Z</time>
      </trkpt>
      <trkpt lat="45.07357" lon="5.54678">
        <ele>966.65</ele>
        <time>2019-08-28T12:42:29Z</time>
      </trkpt>
      <trkpt lat="45.07354" lon="5.54681">
        <ele>966.65</ele>
        <time>2019-08-28T12:42:30Z</time>
      </trkpt>
      <trkpt lat="45.07351" lon="5.54685">
        <ele>966.62</ele>
        <time>2019-08-28T12:42:31Z</time>
      </trkpt>
      <trkpt lat="45.07349" lon="5.5469">
        <ele>966.6</ele>
        <time>2019-08-28T12:42:32Z</time>
      </trkpt>
      <trkpt lat="45.07348" lon="5.54696">
        <ele>966.61</ele>
        <time>2019-08-28T12:42:33Z</time>
      </trkpt>
      <trkpt lat="45.07349" lon="5.54701">
        <ele>966.65</ele>
        <time>2019-08-28T12:42:34Z</time>
      </trkpt>
      <trkpt lat="45.0735" lon="5.54705">
        <ele>966.69</ele>
        <time>2019-08-28T12:42:35Z</time>
      </trkpt>
      <trkpt lat="45.07352" lon="5.5471">
        <ele>966.73</ele>
        <time>2019-08-28T12:42:36Z</time>
      </trkpt>
      <trkpt lat="45.07353" lon="5.54714">
        <ele>966.77</ele>
        <time>2019-08-28T12:42:37Z</time>
      </trkpt>
      <trkpt lat="45.07356" lon="5.54718">
        <ele>966.81</ele>
        <time>2019-08-28T12:42:38Z</time>
      </trkpt>
      <trkpt lat="45.07369" lon="5.54779">
        <ele>967.9</ele>
        <time>2019-08-28T12:42:51Z</time>
      </trkpt>
      <trkpt lat="45.07375" lon="5.54814">
        <ele>969.19</ele>
        <time>2019-08-28T12:43:01Z</time>
      </trkpt>
      <trkpt lat="45.07375" lon="5.54816">
        <ele>969.3</ele>
        <time>2019-08-28T12:43:02Z</time>
      </trkpt>
      <trkpt lat="45.07375" lon="5.54818">
        <ele>969.41</ele>
        <time>2019-08-28T12:43:03Z</time>
      </trkpt>
      <trkpt lat="45.07374" lon="5.5482">
        <ele>969.51</ele>
        <time>2019-08-28T12:43:04Z</time>
      </trkpt>
      <trkpt lat="45.07373" lon="5.54821">
        <ele>969.62</ele>
        <time>2019-08-28T12:43:05Z</time>
      </trkpt>
      <trkpt lat="45.07372" lon="5.54821">
        <ele>969.75</ele>
        <time>2019-08-28T12:43:06Z</time>
      </trkpt>
      <trkpt lat="45.07371" lon="5.54821">
        <ele>969.89</ele>
        <time>2019-08-28T12:43:07Z</time>
      </trkpt>
      <trkpt lat="45.07369" lon="5.5482">
        <ele>970.03</ele>
        <time>2019-08-28T12:43:08Z</time>
      </trkpt>
      <trkpt lat="45.07368" lon="5.5482">
        <ele>970.28</ele>
        <time>2019-08-28T12:43:09Z</time>
      </trkpt>
      <trkpt lat="45.07366" lon="5.54818">
        <ele>970.28</ele>
        <time>2019-08-28T12:43:10Z</time>
      </trkpt>
      <trkpt lat="45.07365" lon="5.54817">
        <ele>970.54</ele>
        <time>2019-08-28T12:43:11Z</time>
      </trkpt>
      <trkpt lat="45.07342" lon="5.5479">
        <ele>972.72</ele>
        <time>2019-08-28T12:43:28Z</time>
      </trkpt>
      <trkpt lat="45.0732" lon="5.54772">
        <ele>974.43</ele>
        <time>2019-08-28T12:43:42Z</time>
      </trkpt>
      <trkpt lat="45.07297" lon="5.54766">
        <ele>975.81</ele>
        <time>2019-08-28T12:43:55Z</time>
      </trkpt>
      <trkpt lat="45.07275" lon="5.54767">
        <ele>977.57</ele>
        <time>2019-08-28T12:44:07Z</time>
      </trkpt>
      <trkpt lat="45.07252" lon="5.54771">
        <ele>979.01</ele>
        <time>2019-08-28T12:44:20Z</time>
      </trkpt>
      <trkpt lat="45.07235" lon="5.54774">
        <ele>980.64</ele>
        <time>2019-08-28T12:44:30Z</time>
      </trkpt>
      <trkpt lat="45.07234" lon="5.54773">
        <ele>980.81</ele>
        <time>2019-08-28T12:44:31Z</time>
      </trkpt>
      <trkpt lat="45.07211" lon="5.54768">
        <ele>982.39</ele>
        <time>2019-08-28T12:44:45Z</time>
      </trkpt>
      <trkpt lat="45.07208" lon="5.54767">
        <ele>982.42</ele>
        <time>2019-08-28T12:44:47Z</time>
      </trkpt>
      <trkpt lat="45.07207" lon="5.54765">
        <ele>982.44</ele>
        <time>2019-08-28T12:44:48Z</time>
      </trkpt>
      <trkpt lat="45.07178" lon="5.54749">
        <ele>982.65</ele>
        <time>2019-08-28T12:45:01Z</time>
      </trkpt>
      <trkpt lat="45.07146" lon="5.54732">
        <ele>982.67</ele>
        <time>2019-08-28T12:45:13Z</time>
      </trkpt>
      <trkpt lat="45.0711" lon="5.54721">
        <ele>982.7</ele>
        <time>2019-08-28T12:45:25Z</time>
      </trkpt>
      <trkpt lat="45.07056" lon="5.54697">
        <ele>983.22</ele>
        <time>2019-08-28T12:45:42Z</time>
      </trkpt>
      <trkpt lat="45.06996" lon="5.54693">
        <ele>983.11</ele>
        <time>2019-08-28T12:45:59Z</time>
      </trkpt>
      <trkpt lat="45.06947" lon="5.54693">
        <ele>982.48</ele>
        <time>2019-08-28T12:46:12Z</time>
      </trkpt>
      <trkpt lat="45.06899" lon="5.54698">
        <ele>981.95</ele>
        <time>2019-08-28T12:46:25Z</time>
      </trkpt>
      <trkpt lat="45.06878" lon="5.54728">
        <ele>981.96</ele>
        <time>2019-08-28T12:46:35Z</time>
      </trkpt>
      <trkpt lat="45.06854" lon="5.54769">
        <ele>983.51</ele>
        <time>2019-08-28T12:46:50Z</time>
      </trkpt>
      <trkpt lat="45.06837" lon="5.54802">
        <ele>985.12</ele>
        <time>2019-08-28T12:47:04Z</time>
      </trkpt>
      <trkpt lat="45.06822" lon="5.54832">
        <ele>986.52</ele>
        <time>2019-08-28T12:47:17Z</time>
      </trkpt>
      <trkpt lat="45.06797" lon="5.54829">
        <ele>986.44</ele>
        <time>2019-08-28T12:47:28Z</time>
      </trkpt>
      <trkpt lat="45.06763" lon="5.54783">
        <ele>984.53</ele>
        <time>2019-08-28T12:47:41Z</time>
      </trkpt>
      <trkpt lat="45.06738" lon="5.54769">
        <ele>984.18</ele>
        <time>2019-08-28T12:47:52Z</time>
      </trkpt>
      <trkpt lat="45.06708" lon="5.54776">
        <ele>985.8</ele>
        <time>2019-08-28T12:48:06Z</time>
      </trkpt>
      <trkpt lat="45.06688" lon="5.5478">
        <ele>988.86</ele>
        <time>2019-08-28T12:48:18Z</time>
      </trkpt>
      <trkpt lat="45.06664" lon="5.54786">
        <ele>991.96</ele>
        <time>2019-08-28T12:48:32Z</time>
      </trkpt>
      <trkpt lat="45.06638" lon="5.54797">
        <ele>994.42</ele>
        <time>2019-08-28T12:48:48Z</time>
      </trkpt>
      <trkpt lat="45.06608" lon="5.54807">
        <ele>995.52</ele>
        <time>2019-08-28T12:49:03Z</time>
      </trkpt>
      <trkpt lat="45.06566" lon="5.54823">
        <ele>996.48</ele>
        <time>2019-08-28T12:49:21Z</time>
      </trkpt>
      <trkpt lat="45.06527" lon="5.54834">
        <ele>998.25</ele>
        <time>2019-08-28T12:49:38Z</time>
      </trkpt>
      <trkpt lat="45.06482" lon="5.54836">
        <ele>998.36</ele>
        <time>2019-08-28T12:49:51Z</time>
      </trkpt>
      <trkpt lat="45.06396" lon="5.54824">
        <ele>995.57</ele>
        <time>2019-08-28T12:50:04Z</time>
      </trkpt>
      <trkpt lat="45.06321" lon="5.54811">
        <ele>992.41</ele>
        <time>2019-08-28T12:50:13Z</time>
      </trkpt>
      <trkpt lat="45.06226" lon="5.54797">
        <ele>990.79</ele>
        <time>2019-08-28T12:50:27Z</time>
      </trkpt>
      <trkpt lat="45.06221" lon="5.54796">
        <ele>990.78</ele>
        <time>2019-08-28T12:50:28Z</time>
      </trkpt>
      <trkpt lat="45.06216" lon="5.54795">
        <ele>990.77</ele>
        <time>2019-08-28T12:50:29Z</time>
      </trkpt>
      <trkpt lat="45.06211" lon="5.54793">
        <ele>990.78</ele>
        <time>2019-08-28T12:50:30Z</time>
      </trkpt>
      <trkpt lat="45.06208" lon="5.54789">
        <ele>990.78</ele>
        <time>2019-08-28T12:50:31Z</time>
      </trkpt>
      <trkpt lat="45.06204" lon="5.54786">
        <ele>990.8</ele>
        <time>2019-08-28T12:50:32Z</time>
      </trkpt>
      <trkpt lat="45.06201" lon="5.54783">
        <ele>990.78</ele>
        <time>2019-08-28T12:50:33Z</time>
      </trkpt>
      <trkpt lat="45.06183" lon="5.5477">
        <ele>991.03</ele>
        <time>2019-08-28T12:50:39Z</time>
      </trkpt>
      <trkpt lat="45.06181" lon="5.54771">
        <ele>991.06</ele>
        <time>2019-08-28T12:50:40Z</time>
      </trkpt>
      <trkpt lat="45.06179" lon="5.54772">
        <ele>991.09</ele>
        <time>2019-08-28T12:50:41Z</time>
      </trkpt>
      <trkpt lat="45.06177" lon="5.54774">
        <ele>991.13</ele>
        <time>2019-08-28T12:50:42Z</time>
      </trkpt>
      <trkpt lat="45.06176" lon="5.54777">
        <ele>991.18</ele>
        <time>2019-08-28T12:50:43Z</time>
      </trkpt>
      <trkpt lat="45.06174" lon="5.5478">
        <ele>991.22</ele>
        <time>2019-08-28T12:50:44Z</time>
      </trkpt>
      <trkpt lat="45.06173" lon="5.54783">
        <ele>991.28</ele>
        <time>2019-08-28T12:50:45Z</time>
      </trkpt>
      <trkpt lat="45.06172" lon="5.54787">
        <ele>991.34</ele>
        <time>2019-08-28T12:50:46Z</time>
      </trkpt>
      <trkpt lat="45.06149" lon="5.54823">
        <ele>993.42</ele>
        <time>2019-08-28T12:51:01Z</time>
      </trkpt>
      <trkpt lat="45.06143" lon="5.54824">
        <ele>993.45</ele>
        <time>2019-08-28T12:51:03Z</time>
      </trkpt>
      <trkpt lat="45.06141" lon="5.54821">
        <ele>993.33</ele>
        <time>2019-08-28T12:51:04Z</time>
      </trkpt>
      <trkpt lat="45.06142" lon="5.54815">
        <ele>993.14</ele>
        <time>2019-08-28T12:51:05Z</time>
      </trkpt>
      <trkpt lat="45.06144" lon="5.5481">
        <ele>992.92</ele>
        <time>2019-08-28T12:51:06Z</time>
      </trkpt>
      <trkpt lat="45.06147" lon="5.54804">
        <ele>992.69</ele>
        <time>2019-08-28T12:51:07Z</time>
      </trkpt>
      <trkpt lat="45.0615" lon="5.54799">
        <ele>992.44</ele>
        <time>2019-08-28T12:51:08Z</time>
      </trkpt>
      <trkpt lat="45.06161" lon="5.5478">
        <ele>991.54</ele>
        <time>2019-08-28T12:51:11Z</time>
      </trkpt>
      <trkpt lat="45.06163" lon="5.54773">
        <ele>991.16</ele>
        <time>2019-08-28T12:51:12Z</time>
      </trkpt>
      <trkpt lat="45.06163" lon="5.54764">
        <ele>990.77</ele>
        <time>2019-08-28T12:51:13Z</time>
      </trkpt>
      <trkpt lat="45.0616" lon="5.54757">
        <ele>990.4</ele>
        <time>2019-08-28T12:51:14Z</time>
      </trkpt>
      <trkpt lat="45.06154" lon="5.54753">
        <ele>990.05</ele>
        <time>2019-08-28T12:51:15Z</time>
      </trkpt>
      <trkpt lat="45.06148" lon="5.54752">
        <ele>989.68</ele>
        <time>2019-08-28T12:51:16Z</time>
      </trkpt>
      <trkpt lat="45.06143" lon="5.54752">
        <ele>989.36</ele>
        <time>2019-08-28T12:51:17Z</time>
      </trkpt>
      <trkpt lat="45.06138" lon="5.54753">
        <ele>989.1</ele>
        <time>2019-08-28T12:51:18Z</time>
      </trkpt>
      <trkpt lat="45.0608" lon="5.54749">
        <ele>989.13</ele>
        <time>2019-08-28T12:51:33Z</time>
      </trkpt>
      <trkpt lat="45.06009" lon="5.54743">
        <ele>990.7</ele>
        <time>2019-08-28T12:51:51Z</time>
      </trkpt>
      <trkpt lat="45.05981" lon="5.54748">
        <ele>991.19</ele>
        <time>2019-08-28T12:51:58Z</time>
      </trkpt>
      <trkpt lat="45.05938" lon="5.54761">
        <ele>991.83</ele>
        <time>2019-08-28T12:52:10Z</time>
      </trkpt>
      <trkpt lat="45.05899" lon="5.54779">
        <ele>993.71</ele>
        <time>2019-08-28T12:52:23Z</time>
      </trkpt>
      <trkpt lat="45.05866" lon="5.54787">
        <ele>995.5</ele>
        <time>2019-08-28T12:52:37Z</time>
      </trkpt>
      <trkpt lat="45.05864" lon="5.54785">
        <ele>995.62</ele>
        <time>2019-08-28T12:52:38Z</time>
      </trkpt>
      <trkpt lat="45.0585" lon="5.5473">
        <ele>995.78</ele>
        <time>2019-08-28T12:52:54Z</time>
      </trkpt>
      <trkpt lat="45.05848" lon="5.54727">
        <ele>995.75</ele>
        <time>2019-08-28T12:52:55Z</time>
      </trkpt>
      <trkpt lat="45.05845" lon="5.54725">
        <ele>995.72</ele>
        <time>2019-08-28T12:52:56Z</time>
      </trkpt>
      <trkpt lat="45.05838" lon="5.54726">
        <ele>995.52</ele>
        <time>2019-08-28T12:52:59Z</time>
      </trkpt>
      <trkpt lat="45.05831" lon="5.54729">
        <ele>995.45</ele>
        <time>2019-08-28T12:53:12Z</time>
      </trkpt>
      <trkpt lat="45.0583" lon="5.54726">
        <ele>995.59</ele>
        <time>2019-08-28T12:53:36Z</time>
      </trkpt>
      <trkpt lat="45.05831" lon="5.54728">
        <ele>995.61</ele>
        <time>2019-08-28T12:54:04Z</time>
      </trkpt>
    </trkseg>
  </trk>
</gpx>